[[{"header":{"parameterUnit":"m.s-1","parameterCategory":1,"la1":30.6,"la2":28.766,"lo1":-90.7593,"lo2":-88.6598,"dy":0.0162,"dx":0.0183,"nx":116,"ny":114,"refTime":"2023-08-01T00:00:00:Z","depth":0,"parameterNumber":2,"parameterNumberName":"U-component_of_WINDS"},"data":[0.0,0.0,0.0,0.0,0.0,0.0,0.0,0.0,0.0,0.0,0.0,0.0,0.0,0.0,0.0,0.0,0.0,0.0,0.0,0.0,0.0,0.0,0.0,0.0,0.0,0.0,0.0,0.0,0.0,0.0,0.0,0.0,0.0,0.0,0.0,0.0,0.0,0.0,0.0,0.0,0.0,0.0,0.0,0.0,0.0,0.0,0.0,0.0,0.0,0.0,0.0,0.0,0.0,0.0,0.0,0.0,0.0,0.0,0.0,0.0,0.0,0.0,0.0,0.0,0.0,0.0,0.0,0.0,0.0,0.0,0.0,0.0,0.0,0.0,0.0,0.0,0.0,0.0,0.0,0.0,0.0,0.0,0.0,0.0,0.0,0.0,0.0,0.0,0.0,0.0,0.0,0.0,0.0,0.0,0.0,0.0,0.0,0.0,0.0,0.0,0.0,0.0,0.0,0.0,0.0,0.0,0.0,0.0,0.0,0.0,0.0,0.0,0.0,0.0,0.0,0.0,0.0,0.0,0.0,0.0,0.0,0.0,0.0,0.0,0.0,0.0,0.0,0.0,0.0,0.0,0.0,0.0,0.0,0.0,0.0,0.0,0.0,0.0,0.0,0.0,0.0,0.0,0.0,0.0,0.0,0.0,0.0,0.0,0.0,0.0,0.0,0.0,0.0,0.0,0.0,0.0,0.0,0.0,0.0,0.0,0.0,0.0,0.0,0.0,0.0,0.0,0.0,0.0,0.0,0.0,0.0,0.0,0.0,0.0,0.0,0.0,0.0,0.0,0.0,0.0,0.0,0.0,0.0,0.0,0.0,0.0,0.0,0.0,0.0,0.0,0.0,0.0,0.0,0.0,0.0,0.0,0.0,0.0,0.0,0.0,0.0,0.0,0.0,0.0,0.0,0.0,0.0,0.0,0.0,0.0,0.0,0.0,0.0,0.0,0.0,0.0,0.0,0.0,0.0,0.0,0.0,0.0,0.0,0.0,0.0,0.0,0.0,0.0,0.0,0.0,0.0,0.0,0.0,0.0,0.0,0.0,0.0,0.0,0.0,0.0,0.0,0.0,0.0,0.0,0.0,0.0,0.0,0.0,0.0,0.0,0.0,0.0,0.0,0.0,0.0,0.0,0.0,0.0,0.0,0.0,0.0,0.0,0.0,0.0,0.0,0.0,0.0,0.0,0.0,0.0,0.0,0.0,0.0,0.0,0.0,0.0,0.0,0.0,0.0,0.0,0.0,0.0,0.0,0.0,0.0,0.0,0.0,0.0,0.0,0.0,0.0,0.0,0.0,0.0,0.0,0.0,0.0,0.0,0.0,0.0,0.0,0.0,0.0,0.0,0.0,0.0,0.0,0.0,0.0,0.0,0.0,0.0,0.0,0.0,0.0,0.0,0.0,0.0,0.0,0.0,0.0,0.0,0.0,0.0,0.0,0.0,0.0,0.0,0.0,0.0,0.0,0.0,0.0,0.0,0.0,0.0,0.0,0.0,0.0,0.0,0.0,0.0,0.0,0.0,0.0,0.0,0.0,0.0,0.0,0.0,0.0,0.0,0.0,0.0,0.0,0.0,0.0,0.0,0.0,0.0,0.0,0.0,0.0,0.0,0.0,0.0,0.0,0.0,0.0,0.0,0.0,0.0,0.0,0.0,0.0,0.0,0.0,0.0,0.0,0.0,0.0,0.0,0.0,0.0,0.0,0.0,0.0,0.0,0.0,0.0,0.0,0.0,0.0,0.0,0.0,0.0,0.0,0.0,0.0,0.0,0.0,0.0,0.0,0.0,0.0,0.0,0.0,0.0,0.0,0.0,0.0,0.0,0.0,0.0,0.0,0.0,0.0,0.0,0.0,0.0,0.0,0.0,0.0,0.0,0.0,0.0,0.0,0.0,0.0,0.0,0.0,0.0,0.0,0.0,0.0,0.0,0.0,0.0,0.0,0.0,0.0,0.0,0.0,0.0,0.0,0.0,0.0,0.0,0.0,0.0,0.0,0.0,0.0,0.0,0.0,0.0,0.0,0.0,0.0,0.0,0.0,0.0,0.0,0.0,0.0,0.0,0.0,0.0,0.0,0.0,0.0,0.0,0.0,0.0,0.0,0.0,0.0,0.0,0.0,0.0,0.0,0.0,0.0,0.0,0.0,0.0,0.0,0.0,0.0,0.0,0.0,0.0,0.0,0.0,0.0,0.0,0.0,0.0,0.0,0.0,0.0,0.0,0.0,0.0,0.0,0.0,0.0,0.0,0.0,0.0,0.0,0.0,0.0,0.0,0.0,0.0,0.0,0.0,0.0,0.0,0.0,0.0,0.0,0.0,0.0,0.0,0.0,0.0,0.0,0.0,0.0,0.0,0.0,0.0,0.0,0.0,0.0,0.0,0.0,0.0,0.0,0.0,0.0,0.0,0.0,0.0,0.0,0.0,0.0,0.0,0.0,0.0,0.0,0.0,0.0,0.0,0.0,0.0,0.0,0.0,0.0,0.0,0.0,0.0,0.0,0.0,0.0,0.0,0.0,0.0,0.0,0.0,0.0,0.0,0.0,0.0,0.0,0.0,0.0,0.0,0.0,0.0,0.0,0.0,0.0,0.0,0.0,0.0,0.0,0.0,0.0,0.0,0.0,0.0,0.0,0.0,0.0,0.0,0.0,0.0,0.0,0.0,0.0,0.0,0.0,0.0,0.0,0.0,0.0,0.0,0.0,0.0,0.0,0.0,0.0,0.0,0.0,0.0,0.0,0.0,0.0,0.0,0.0,0.0,0.0,0.0,0.0,0.0,0.0,0.0,0.0,0.0,0.0,0.0,0.0,0.0,0.0,0.0,0.0,0.0,0.0,0.0,0.0,0.0,0.0,0.0,0.0,0.0,0.0,0.0,0.0,0.0,0.0,0.0,0.0,0.0,0.0,0.0,0.0,0.0,0.0,0.0,0.0,0.0,0.0,0.0,0.0,0.0,0.0,0.0,0.0,0.0,0.0,0.0,0.0,0.0,0.0,0.0,0.0,0.0,0.0,0.0,0.0,0.0,0.0,0.0,0.0,0.0,0.0,0.0,0.0,0.0,0.0,0.0,0.0,0.0,0.0,0.0,0.0,0.0,0.0,0.0,0.0,0.0,0.0,0.0,0.0,0.0,0.0,0.0,0.0,0.0,0.0,0.0,0.0,0.0,0.0,0.0,0.0,0.0,0.0,0.0,0.0,0.0,0.0,0.0,0.0,0.0,0.0,0.0,0.0,0.0,0.0,0.0,0.0,0.0,0.0,0.0,0.0,0.0,0.0,0.0,0.0,0.0,0.0,0.0,0.0,0.0,0.0,0.0,0.0,0.0,0.0,0.0,0.0,0.0,0.0,0.0,0.0,0.0,0.0,0.0,0.0,0.0,0.0,0.0,0.0,0.0,0.0,0.0,0.0,0.0,0.0,0.0,0.0,0.0,0.0,0.0,0.0,0.0,0.0,0.0,0.0,0.0,0.0,0.0,0.0,0.0,0.0,0.0,0.0,0.0,0.0,0.0,0.0,0.0,0.0,0.0,0.0,0.0,0.0,0.0,0.0,0.0,0.0,0.0,0.0,0.0,0.0,0.0,0.0,0.0,0.0,0.0,0.0,0.0,0.0,0.0,0.0,0.0,0.0,0.0,0.0,0.0,0.0,0.0,0.0,0.0,0.0,0.0,0.0,0.0,0.0,0.0,0.0,0.0,0.0,0.0,0.0,0.0,0.0,0.0,0.0,0.0,0.0,0.0,0.0,0.0,0.0,0.0,0.0,0.0,0.0,0.0,0.0,0.0,0.0,0.0,0.0,0.0,0.0,0.0,0.0,0.0,0.0,0.0,0.0,0.0,0.0,0.0,0.0,0.0,0.0,0.0,0.0,0.0,0.0,0.0,0.0,0.0,0.0,0.0,0.0,0.0,0.0,0.0,0.0,0.0,0.0,0.0,0.0,0.0,0.0,0.0,0.0,0.0,0.0,0.0,0.0,0.0,0.0,0.0,0.0,0.0,0.0,0.0,0.0,0.0,0.0,0.0,0.0,0.0,0.0,0.0,0.0,0.0,0.0,0.0,0.0,0.0,0.0,0.0,0.0,0.0,0.0,0.0,0.0,0.0,0.0,0.0,0.0,0.0,0.0,0.0,0.0,0.0,0.0,0.0,0.0,0.0,0.0,0.0,0.0,0.0,0.0,0.0,0.0,0.0,0.0,0.0,0.0,0.0,0.0,0.0,0.0,0.0,0.0,0.0,0.0,0.0,0.0,0.0,0.0,0.0,0.0,0.0,0.0,0.0,0.0,0.0,0.0,0.0,0.0,0.0,0.0,0.0,0.0,0.0,0.0,0.0,0.0,0.0,0.0,0.0,0.0,0.0,0.0,0.0,0.0,0.0,0.0,0.0,0.0,0.0,0.0,0.0,0.0,0.0,0.0,0.0,0.0,0.0,0.0,0.0,0.0,0.0,0.0,0.0,0.0,0.0,0.0,0.0,0.0,0.0,0.0,0.0,0.0,0.0,0.0,0.0,0.0,0.0,0.0,0.0,0.0,0.0,0.0,0.0,0.0,0.0,0.0,0.0,0.0,0.0,0.0,0.0,0.0,0.0,0.0,0.0,0.0,0.0,0.0,0.0,0.0,0.0,0.0,0.0,0.0,0.0,0.0,0.0,0.0,0.0,0.0,0.0,0.0,0.0,0.0,0.0,0.0,0.0,0.0,0.0,0.0,0.0,0.0,0.0,0.0,0.0,0.0,0.0,0.0,0.0,0.0,0.0,0.0,0.0,0.0,0.0,0.0,0.0,0.0,0.0,0.0,0.0,0.0,0.0,0.0,0.0,0.0,0.0,0.0,0.0,0.0,0.0,0.0,0.0,0.0,0.0,0.0,0.0,0.0,0.0,0.0,0.0,0.0,0.0,0.0,0.0,0.0,0.0,0.0,0.0,0.0,0.0,0.0,0.0,0.0,0.0,0.0,0.0,0.0,0.0,0.0,0.0,0.0,0.0,0.0,0.0,0.0,0.0,0.0,0.0,0.0,0.0,0.0,0.0,0.0,0.0,0.0,0.0,0.0,0.0,0.0,0.0,0.0,0.0,0.0,0.0,0.0,0.0,0.0,0.0,0.0,0.0,0.0,0.0,0.0,0.0,0.0,0.0,0.0,0.0,0.0,0.0,0.0,0.0,0.0,0.0,0.0,0.0,0.0,0.0,0.0,0.0,0.0,0.0,0.0,0.0,0.0,0.0,0.0,0.0,0.0,0.0,0.0,0.0,0.0,0.0,0.0,0.0,0.0,0.0,0.0,0.0,0.0,0.0,0.0,0.0,0.0,0.0,0.0,0.0,0.0,0.0,0.0,0.0,0.0,0.0,0.0,0.0,0.0,0.0,0.0,0.0,0.0,0.0,0.0,0.0,0.0,0.0,0.0,0.0,0.0,0.0,0.0,0.0,0.0,0.0,0.0,0.0,0.0,0.0,0.0,0.0,0.0,0.0,0.0,0.0,0.0,0.0,0.0,0.0,0.0,0.0,0.0,0.0,0.0,0.0,0.0,0.0,0.0,0.0,0.0,0.0,0.0,0.0,0.0,0.0,0.0,0.0,0.0,0.0,0.0,0.0,0.0,0.0,0.0,0.0,0.0,0.0,0.0,0.0,0.0,0.0,0.0,0.0,0.0,0.0,0.0,0.0,0.0,0.0,0.0,0.0,0.0,0.0,0.0,0.0,0.0,0.0,0.0,0.0,0.0,0.0,0.0,0.0,0.0,0.0,0.0,0.0,0.0,0.0,0.0,0.0,0.0,0.0,0.0,0.0,0.0,0.0,0.0,0.0,0.0,0.0,0.0,0.0,0.0,0.0,0.0,0.0,0.0,0.0,0.0,0.0,0.0,0.0,0.0,0.0,0.0,0.0,0.0,0.0,0.0,0.0,0.0,0.0,0.0,0.0,0.0,0.0,0.0,0.0,0.0,0.0,0.0,0.0,0.0,0.0,0.0,0.0,0.0,0.0,0.0,0.0,0.0,0.0,0.0,0.0,0.0,0.0,0.0,0.0,0.0,0.0,0.0,0.0,0.0,0.0,0.0,0.0,0.0,0.0,0.0,0.0,0.0,0.0,0.0,0.0,-4.811,0.0,0.0,0.0,0.0,0.0,0.0,0.0,0.0,0.0,0.0,0.0,0.0,0.0,0.0,0.0,0.0,0.0,0.0,0.0,0.0,0.0,0.0,0.0,0.0,0.0,0.0,0.0,0.0,0.0,0.0,0.0,0.0,0.0,0.0,0.0,0.0,0.0,0.0,0.0,0.0,0.0,0.0,0.0,0.0,0.0,0.0,0.0,0.0,0.0,0.0,0.0,0.0,0.0,0.0,0.0,0.0,0.0,0.0,0.0,0.0,0.0,0.0,0.0,0.0,0.0,0.0,0.0,0.0,0.0,0.0,0.0,0.0,0.0,0.0,0.0,0.0,0.0,0.0,0.0,0.0,0.0,0.0,0.0,0.0,0.0,0.0,0.0,0.0,0.0,0.0,0.0,0.0,0.0,0.0,0.0,0.0,0.0,0.0,0.0,0.0,0.0,0.0,0.0,0.0,0.0,0.0,0.0,0.0,0.0,0.0,0.0,0.0,0.0,0.0,0.0,0.0,-4.7687,0.0,0.0,0.0,0.0,0.0,0.0,0.0,0.0,0.0,0.0,0.0,0.0,0.0,0.0,0.0,0.0,0.0,0.0,0.0,0.0,0.0,0.0,0.0,0.0,0.0,0.0,0.0,0.0,0.0,0.0,0.0,0.0,0.0,0.0,0.0,0.0,0.0,0.0,0.0,0.0,0.0,0.0,0.0,0.0,0.0,0.0,0.0,0.0,0.0,0.0,0.0,0.0,0.0,0.0,0.0,0.0,0.0,0.0,0.0,0.0,0.0,0.0,0.0,0.0,0.0,0.0,0.0,0.0,0.0,0.0,0.0,0.0,0.0,0.0,0.0,0.0,0.0,0.0,0.0,0.0,0.0,0.0,0.0,0.0,0.0,0.0,0.0,0.0,0.0,0.0,0.0,0.0,0.0,0.0,0.0,0.0,0.0,0.0,0.0,0.0,0.0,0.0,0.0,0.0,0.0,0.0,0.0,0.0,-4.918,-4.8799,-4.8168,-4.803,-4.7947,-4.7902,-4.7929,-4.7439,-4.6613,-4.6501,0.0,0.0,0.0,0.0,0.0,0.0,0.0,0.0,0.0,0.0,0.0,0.0,0.0,0.0,0.0,0.0,0.0,0.0,0.0,0.0,0.0,0.0,0.0,0.0,0.0,0.0,0.0,0.0,0.0,0.0,0.0,0.0,0.0,0.0,0.0,0.0,0.0,0.0,-5.13,-5.13,-5.1304,-5.1316,-5.1316,0.0,0.0,0.0,0.0,0.0,0.0,0.0,0.0,0.0,0.0,0.0,0.0,0.0,0.0,0.0,0.0,0.0,0.0,0.0,0.0,0.0,0.0,0.0,0.0,0.0,0.0,0.0,0.0,0.0,0.0,0.0,0.0,0.0,0.0,0.0,0.0,0.0,0.0,0.0,0.0,0.0,0.0,0.0,-5.1127,-5.114,0.0,0.0,0.0,0.0,0.0,0.0,0.0,0.0,0.0,0.0,0.0,0.0,0.0,-5.0654,-4.9965,-4.9946,-4.9646,-4.9038,-4.9021,-4.8695,-4.8012,-4.7945,-4.7902,-4.7881,-4.778,0.0,-4.6976,-4.6525,0.0,0.0,0.0,0.0,0.0,0.0,0.0,0.0,0.0,0.0,0.0,0.0,0.0,0.0,0.0,0.0,0.0,0.0,0.0,0.0,0.0,0.0,0.0,0.0,0.0,0.0,0.0,0.0,0.0,0.0,0.0,0.0,0.0,0.0,0.0,0.0,-5.124,-5.124,-5.124,-5.124,-5.124,-5.124,-5.124,-5.1249,-5.1292,-5.1092,0.0,0.0,0.0,0.0,0.0,0.0,0.0,0.0,0.0,0.0,0.0,0.0,0.0,0.0,0.0,0.0,0.0,0.0,0.0,0.0,0.0,0.0,0.0,0.0,0.0,0.0,0.0,0.0,0.0,0.0,0.0,0.0,0.0,0.0,0.0,0.0,0.0,0.0,0.0,-5.1107,-5.1101,-5.1101,-5.1095,-5.1101,0.0,0.0,0.0,0.0,0.0,0.0,0.0,0.0,0.0,-5.1817,-5.1836,-5.1661,-5.13,-5.0827,-5.027,-4.9677,-4.9144,-4.8569,-4.7927,-4.7842,-4.778,-4.778,-4.7738,-4.7428,-4.6954,-4.6406,-4.5918,-4.5407,0.0,0.0,0.0,0.0,-4.4615,-4.4542,0.0,0.0,0.0,0.0,0.0,0.0,0.0,0.0,0.0,0.0,0.0,0.0,0.0,0.0,0.0,0.0,0.0,0.0,0.0,0.0,0.0,0.0,0.0,0.0,0.0,0.0,0.0,0.0,-5.1202,-5.1202,-5.1202,-5.1202,-5.1202,-5.1196,-5.1153,-5.1192,-5.1278,-5.1136,-5.0951,0.0,0.0,0.0,0.0,0.0,0.0,0.0,0.0,0.0,0.0,0.0,0.0,0.0,0.0,0.0,0.0,0.0,0.0,0.0,0.0,0.0,0.0,0.0,0.0,0.0,0.0,0.0,0.0,0.0,0.0,0.0,0.0,0.0,0.0,0.0,0.0,0.0,0.0,-5.1383,-5.146,-5.1693,-5.1656,-5.1622,0.0,0.0,0.0,0.0,0.0,0.0,-5.2794,-5.2717,-5.2635,-5.2624,-5.259,-5.2496,-5.2269,-5.1548,-5.0933,-5.0393,-4.962,-4.8952,-4.8439,-4.8137,-4.8004,-4.8007,-4.7787,-4.7472,-4.7062,-4.6382,-4.5775,-4.5267,-4.4786,-4.4615,-4.4615,-4.4615,-4.4615,-4.4615,0.0,0.0,0.0,0.0,0.0,0.0,0.0,0.0,0.0,0.0,0.0,0.0,0.0,0.0,0.0,0.0,0.0,0.0,0.0,0.0,0.0,0.0,0.0,0.0,0.0,0.0,0.0,-5.1202,-5.1202,-5.1202,-5.1202,-5.1202,-5.1202,-5.1196,-5.1062,-5.1075,-5.1202,-5.1062,-5.0887,-5.0696,0.0,0.0,0.0,0.0,0.0,0.0,0.0,0.0,0.0,0.0,0.0,0.0,0.0,0.0,0.0,0.0,0.0,0.0,0.0,0.0,0.0,0.0,0.0,0.0,0.0,0.0,0.0,0.0,0.0,0.0,0.0,0.0,0.0,0.0,0.0,0.0,0.0,0.0,0.0,-5.3274,-5.3145,0.0,0.0,0.0,0.0,-5.2565,-5.2597,-5.2819,-5.3327,-5.3352,-5.3292,-5.3163,-5.3146,-5.2752,-5.1928,-5.1568,-5.1249,-5.0951,-5.06,-5.0271,-4.9967,-4.9184,-4.8837,-4.88,-4.8022,-4.7678,-4.7593,-4.6525,-4.5775,-4.5267,-4.4786,-4.4615,-4.4615,-4.4615,-4.4615,-4.4615,0.0,0.0,0.0,0.0,0.0,0.0,0.0,0.0,0.0,0.0,0.0,0.0,0.0,0.0,0.0,0.0,0.0,0.0,0.0,0.0,0.0,0.0,0.0,0.0,0.0,0.0,-5.1202,-5.1202,-5.1202,-5.1202,-5.1196,-5.1115,-5.1069,-5.1062,-5.0887,-5.0835,-5.0875,-5.075,-5.0596,-5.0439,-5.0389,-5.0286,0.0,0.0,0.0,0.0,0.0,0.0,0.0,0.0,0.0,0.0,0.0,0.0,0.0,0.0,0.0,0.0,0.0,0.0,0.0,0.0,0.0,0.0,0.0,0.0,0.0,0.0,0.0,0.0,0.0,0.0,0.0,0.0,0.0,0.0,0.0,0.0,0.0,-5.2952,-5.2904,0.0,-5.2851,-5.308,-5.3232,-5.3167,-5.3543,-5.3846,-5.4039,-5.4042,-5.4025,-5.3958,-5.3958,-5.3808,-5.3508,-5.2881,-5.2303,-5.1745,-5.113,-5.0568,-5.0093,-4.98,-4.9673,-4.9655,-4.9365,-4.9238,-4.9141,-4.7895,-4.6962,-4.6238,-4.5372,-4.5062,-4.5008,-4.4564,-4.4412,-4.4395,0.0,0.0,0.0,0.0,0.0,0.0,0.0,0.0,0.0,0.0,0.0,0.0,0.0,0.0,0.0,0.0,0.0,0.0,0.0,0.0,0.0,0.0,0.0,0.0,0.0,0.0,-5.1184,-5.1134,-5.1134,-5.1095,-5.1042,-5.0944,-5.0906,-5.0887,-5.0707,-5.0605,-5.0548,-5.0368,-5.0301,-5.0309,-5.0303,-5.0195,-5.0038,0.0,0.0,0.0,0.0,0.0,0.0,0.0,0.0,0.0,0.0,0.0,0.0,0.0,0.0,0.0,0.0,0.0,0.0,0.0,0.0,0.0,0.0,0.0,0.0,0.0,0.0,0.0,0.0,0.0,0.0,0.0,0.0,0.0,0.0,0.0,-5.3207,-5.3506,-5.3454,-5.3408,-5.3408,-5.3636,-5.3795,-5.3795,-5.4169,-5.4521,-5.4803,-5.4803,-5.4953,-5.5235,-5.5235,-5.5235,-5.5235,-5.448,-5.3907,-5.3445,-5.241,-5.1706,-5.1285,-5.0764,-5.051,-5.0492,-5.022,-5.0112,-5.0035,-4.914,-4.8447,-4.7818,-4.6127,-4.5372,-4.5188,-4.4625,-4.435,-4.4224,0.0,0.0,0.0,0.0,0.0,0.0,0.0,0.0,0.0,0.0,0.0,0.0,0.0,0.0,0.0,0.0,0.0,0.0,0.0,0.0,0.0,0.0,0.0,0.0,0.0,0.0,0.0,0.0,-5.0978,-5.0879,-5.0687,-5.0687,-5.0687,-5.0678,-5.0538,-5.0404,-5.0275,-5.0019,-5.0038,-5.0286,-5.0275,-5.0118,-4.9879,0.0,0.0,0.0,0.0,0.0,0.0,0.0,0.0,0.0,0.0,0.0,0.0,0.0,0.0,0.0,0.0,0.0,0.0,0.0,0.0,0.0,0.0,0.0,0.0,0.0,0.0,0.0,0.0,0.0,0.0,0.0,0.0,0.0,-5.3894,-5.3919,-5.4225,-5.5071,-5.4962,-5.4776,-5.4776,-5.4552,-5.4409,-5.4446,-5.4446,-5.4803,-5.5593,-5.563,-5.6025,-5.6868,-5.6887,-5.6887,-5.6887,-5.6247,-5.5902,-5.5881,-5.4428,-5.3748,-5.3675,-5.2118,-5.1393,-5.1321,-5.0565,-5.0202,-5.0184,-5.0126,-5.0108,-4.9834,-4.7009,-4.5615,-4.5177,-4.4869,-4.4502,-4.4135,0.0,0.0,0.0,0.0,0.0,0.0,0.0,0.0,0.0,0.0,0.0,0.0,0.0,0.0,0.0,0.0,0.0,0.0,0.0,0.0,0.0,0.0,0.0,0.0,0.0,0.0,0.0,0.0,0.0,0.0,0.0,-5.0314,-5.0259,-5.0267,-5.0118,-5.0044,-5.0006,-4.9933,-4.9879,-4.9866,-4.9755,-4.9731,-4.9745,0.0,0.0,0.0,0.0,0.0,0.0,0.0,0.0,0.0,0.0,0.0,0.0,0.0,0.0,0.0,0.0,0.0,0.0,0.0,0.0,0.0,0.0,0.0,0.0,0.0,0.0,0.0,0.0,0.0,0.0,0.0,-5.4213,-5.4242,-5.452,-5.4394,-5.4349,-5.4591,-5.4552,-5.4522,-5.4522,-5.4441,-5.4634,-5.5218,-5.5255,-5.563,-5.6512,-5.6549,-5.6643,-5.6887,-5.6887,-5.6887,-5.6887,-5.6443,-5.6071,-5.5902,-5.5206,-5.4745,-5.4562,-5.411,-5.3585,-5.3023,-5.2806,-5.2371,-5.1792,-5.0994,-5.0667,-5.0512,-4.8748,-4.7776,-4.7264,-4.6493,-4.5833,-4.5308,0.0,0.0,0.0,0.0,0.0,0.0,0.0,0.0,0.0,0.0,0.0,0.0,0.0,0.0,0.0,0.0,0.0,0.0,0.0,0.0,0.0,0.0,0.0,0.0,0.0,0.0,0.0,0.0,0.0,0.0,0.0,0.0,0.0,0.0,-4.9927,-4.9871,-4.9816,-4.9816,-4.9736,-4.9608,-4.9521,-4.9551,-4.9608,-4.9608,-4.9648,-4.9721,-4.9653,-4.9608,-4.9608,-4.9608,0.0,0.0,0.0,0.0,0.0,0.0,0.0,0.0,0.0,0.0,0.0,0.0,0.0,0.0,0.0,0.0,0.0,0.0,0.0,0.0,0.0,0.0,0.0,0.0,-5.4409,-5.4439,-5.4613,-5.4505,-5.4409,-5.4409,-5.4409,-5.454,-5.4878,-5.4916,-5.5254,-5.608,-5.6155,-5.6512,-5.7356,-5.7394,-5.7563,-5.7882,-5.7901,-5.7901,-5.7901,-5.7392,-5.7068,-5.6897,-5.5999,-5.5498,-5.5341,-5.5051,-5.4653,-5.42,-5.42,-5.3947,-5.3452,-5.2666,-5.2372,0.0,0.0,0.0,0.0,0.0,-4.6287,-4.5798,0.0,0.0,0.0,0.0,0.0,0.0,0.0,0.0,0.0,0.0,0.0,0.0,0.0,0.0,0.0,0.0,0.0,0.0,0.0,0.0,0.0,0.0,0.0,0.0,0.0,0.0,0.0,0.0,0.0,0.0,0.0,0.0,0.0,0.0,0.0,0.0,0.0,-4.9682,-4.9608,-4.9509,-4.9509,-4.9509,-4.9509,-4.9509,-4.9509,-4.9509,-4.9509,-4.9509,-4.9509,-4.9509,0.0,0.0,0.0,0.0,0.0,0.0,0.0,0.0,0.0,0.0,0.0,0.0,0.0,0.0,0.0,0.0,0.0,0.0,0.0,0.0,0.0,0.0,0.0,0.0,-5.4409,-5.4409,-5.4409,-5.4409,-5.4409,-5.4409,-5.4484,-5.4822,-5.5537,-5.5687,-5.61,-5.6962,-5.7037,-5.7394,-5.8201,0.0,0.0,0.0,0.0,-5.929,-5.929,-5.8642,-5.8301,-5.8279,-5.6835,-5.6138,-5.6102,-5.5468,-5.5106,-5.5033,-5.5033,-5.4955,-5.4816,-5.4496,-5.4327,-5.3939,-5.0533,-4.8914,-4.8363,-4.7172,-4.6491,-4.6124,0.0,0.0,0.0,0.0,0.0,0.0,0.0,0.0,0.0,0.0,0.0,0.0,0.0,0.0,0.0,0.0,0.0,0.0,0.0,0.0,0.0,0.0,0.0,0.0,0.0,0.0,0.0,0.0,0.0,0.0,0.0,0.0,0.0,0.0,0.0,0.0,0.0,0.0,0.0,-4.9509,-4.9509,-4.9509,-4.9509,-4.9509,-4.9509,-4.9509,-4.9509,-4.9509,-4.9509,-4.9509,-4.9509,-4.9509,-4.9509,0.0,0.0,0.0,0.0,0.0,0.0,0.0,0.0,0.0,0.0,0.0,0.0,0.0,0.0,0.0,0.0,0.0,0.0,0.0,0.0,-5.4409,-5.4409,-5.4409,-5.4409,-5.4409,-5.4409,-5.4409,-5.4972,-5.5424,-5.5574,-5.6249,-5.7,-5.7807,-5.7882,-5.822,-5.9027,-5.9065,-5.914,-5.929,-5.929,-5.929,-5.929,-5.8642,-5.8301,-5.8279,0.0,0.0,-5.6953,-5.6826,-5.6391,-5.5776,-5.5776,-5.5291,-5.4471,-5.42,-5.3807,-5.3284,-5.1768,-5.0589,-4.9641,-4.8646,-4.8219,-4.8094,0.0,0.0,0.0,0.0,0.0,0.0,0.0,0.0,0.0,0.0,0.0,0.0,0.0,0.0,0.0,0.0,0.0,0.0,0.0,0.0,0.0,0.0,0.0,0.0,0.0,0.0,0.0,0.0,0.0,0.0,0.0,0.0,0.0,0.0,0.0,0.0,0.0,0.0,0.0,0.0,0.0,-4.9509,-4.9509,-4.9509,-4.9509,-4.9509,-4.9509,-4.9509,-4.9509,-4.9509,-4.9509,-4.9509,-4.9509,-4.9509,-4.9509,0.0,0.0,0.0,0.0,0.0,0.0,0.0,0.0,0.0,0.0,0.0,0.0,0.0,0.0,-5.2926,-5.4165,0.0,-5.4409,-5.4409,-5.4409,-5.4409,-5.4409,-5.4409,-5.4559,-5.4953,-5.5349,-5.5931,-5.6757,-5.7244,-5.7826,-5.8652,-5.8708,-5.8877,-5.9271,-5.929,-5.929,-5.929,-5.929,-5.9215,-5.9044,-5.8558,-5.8231,-5.8051,-5.7486,-5.7188,-5.7188,-5.7188,-5.6971,-5.6591,-5.6591,-5.6223,-5.5582,-5.5143,-5.4492,-5.3699,-5.3193,-5.2305,-5.117,-5.0046,-4.9494,-4.9177,0.0,0.0,0.0,0.0,0.0,0.0,0.0,0.0,0.0,0.0,0.0,0.0,0.0,0.0,0.0,0.0,0.0,0.0,0.0,0.0,0.0,0.0,0.0,0.0,0.0,0.0,0.0,0.0,0.0,0.0,0.0,0.0,0.0,0.0,0.0,0.0,0.0,0.0,0.0,0.0,0.0,0.0,-4.9509,-4.9509,-4.9509,-4.9509,-4.9509,-4.9509,-4.9509,-4.9509,-4.9509,-4.9509,-4.9509,-4.9509,-4.9509,-4.9509,-4.9509,0.0,0.0,0.0,0.0,0.0,0.0,0.0,0.0,-5.0109,-5.0917,-5.1724,-5.2588,-5.3449,-5.424,-5.4409,-5.4409,-5.4409,-5.4409,-5.4409,-5.4409,-5.454,-5.4953,-5.5762,-5.5837,-5.6438,-5.7939,-5.8239,-5.8614,-5.9253,-5.929,-5.929,-5.929,-5.929,-5.929,-5.929,-5.929,-5.9178,-5.8888,-5.8495,-5.8164,-5.7909,-5.7412,-5.7188,-5.7188,-5.7188,-5.7188,-5.7188,-5.7105,-5.6899,-5.6564,-5.6032,-5.529,-5.4542,-5.4542,-5.3952,-5.2907,-5.1494,-5.068,-5.0109,0.0,0.0,0.0,0.0,0.0,0.0,0.0,0.0,0.0,0.0,0.0,0.0,0.0,0.0,0.0,0.0,0.0,0.0,0.0,0.0,0.0,0.0,0.0,0.0,0.0,0.0,0.0,0.0,0.0,0.0,0.0,0.0,0.0,0.0,0.0,0.0,0.0,0.0,0.0,0.0,0.0,0.0,-4.9509,-4.9509,-4.9509,-4.9509,-4.9509,-4.9509,-4.9509,-4.9509,-4.9509,-4.9509,-4.9509,-4.9509,-4.9509,-4.9509,0.0,-4.9509,-4.9509,-4.9509,-4.9509,-4.9509,-4.9509,-4.9509,0.0,-5.0109,-5.0917,-5.1724,-5.2588,-5.3449,-5.424,-5.4409,-5.4409,-5.4409,-5.4409,-5.4409,-5.4409,-5.5011,-5.5798,-5.6643,-5.6756,-5.7112,-5.7995,-5.8746,-5.9196,-5.929,-5.929,-5.929,-5.929,-5.929,-5.929,-5.929,-5.929,-5.9272,-5.9234,-5.8621,-5.8279,-5.8253,-5.754,-5.7188,-5.7188,-5.7188,-5.7188,-5.7163,-5.6707,-5.6282,-5.5975,-5.5666,-5.5484,-5.5385,-5.5385,-5.5285,-5.4921,-5.3006,-5.1941,-5.1429,0.0,0.0,0.0,0.0,0.0,0.0,0.0,0.0,0.0,0.0,0.0,0.0,0.0,0.0,0.0,0.0,0.0,0.0,0.0,0.0,0.0,0.0,0.0,0.0,0.0,0.0,0.0,0.0,0.0,0.0,0.0,0.0,0.0,0.0,0.0,0.0,0.0,0.0,0.0,0.0,0.0,0.0,-4.9509,-4.9509,-4.9509,-4.9509,-4.9509,-4.9509,0.0,0.0,-4.9509,-4.9459,-4.9262,-4.9345,-4.9459,-4.9262,-4.9345,0.0,-4.9509,-4.9509,-4.9509,-4.9509,-4.9509,-4.9509,-4.9509,-5.0485,-5.148,-5.1837,-5.2963,-5.3996,-5.4334,-5.4409,-5.4409,0.0,-5.4409,-5.4409,-5.4409,-5.5086,-5.5912,-5.6793,-5.7319,-5.792,-5.8727,-5.9102,-5.929,-5.929,-5.929,-5.929,-5.929,-5.929,-5.929,-5.929,-5.929,-5.9102,-5.8725,-5.8431,-5.8078,-5.766,-5.7338,-5.7188,-5.7188,-5.7188,-5.7112,-5.6951,-5.6573,-5.6217,-5.589,-5.5607,-5.5507,-5.5507,-5.5507,-5.5507,-5.5308,-5.3726,-5.2991,-5.2647,0.0,0.0,0.0,0.0,0.0,0.0,0.0,0.0,0.0,0.0,0.0,0.0,0.0,0.0,0.0,0.0,0.0,0.0,0.0,0.0,0.0,0.0,0.0,0.0,0.0,0.0,0.0,0.0,0.0,0.0,0.0,0.0,0.0,0.0,0.0,0.0,0.0,0.0,0.0,0.0,0.0,0.0,-4.9509,-4.9509,-4.9509,-4.9509,-4.9509,-4.9509,0.0,0.0,-4.9509,-4.9459,-4.9211,-4.9295,-4.9459,-4.9195,-4.9311,-4.9509,-4.9509,-4.9509,-4.9509,-4.9509,-4.9509,-4.9509,-4.9509,-5.0748,-5.1912,-5.1912,-5.3226,-5.4409,-5.4409,-5.4409,-5.4409,-5.4409,-5.4409,-5.4409,-5.4409,-5.531,-5.6192,-5.6812,-5.7807,-5.8671,-5.9234,-5.929,-5.929,-5.929,-5.929,-5.929,-5.929,-5.929,-5.929,-5.929,-5.9215,-5.8926,-5.8452,-5.8257,-5.7895,-5.7363,-5.7239,-5.7188,-5.7188,-5.7188,-5.7036,-5.6794,-5.6519,-5.6217,-5.589,-5.5607,-5.5507,-5.5507,-5.5507,-5.5507,-5.5378,-5.4468,-5.4031,-5.37,0.0,0.0,0.0,0.0,0.0,0.0,0.0,0.0,0.0,0.0,0.0,0.0,0.0,0.0,0.0,0.0,0.0,0.0,0.0,0.0,0.0,0.0,0.0,0.0,0.0,0.0,0.0,0.0,0.0,0.0,0.0,0.0,0.0,0.0,0.0,0.0,0.0,0.0,0.0,0.0,0.0,0.0,-4.9509,-4.9509,-4.9509,-4.9509,-4.9509,0.0,0.0,0.0,-4.9509,-4.9509,-4.9493,-4.949,0.0,-4.9493,-4.949,-4.9509,-4.9509,-4.9509,-4.9509,-4.9509,-4.9509,-4.9509,-4.9509,-5.0748,-5.1912,-5.1912,-5.3226,-5.4409,-5.4409,-5.4409,-5.4409,-5.4409,-5.4409,-5.4409,-5.4409,-5.5817,-5.6868,-5.6887,-5.8295,-5.9271,0.0,-5.929,-5.929,-5.929,-5.929,-5.929,-5.929,-5.929,-5.929,-5.929,-5.8985,-5.8808,-5.8788,-5.8146,-5.7792,-5.7768,-5.7406,-5.7188,-5.7188,-5.7188,-5.7036,-5.6794,-5.6519,-5.6217,-5.589,-5.5607,-5.5507,-5.5507,-5.5507,-5.5507,-5.5507,-5.546,-5.5109,-5.4565,0.0,0.0,0.0,0.0,0.0,0.0,0.0,0.0,0.0,0.0,0.0,0.0,0.0,0.0,0.0,0.0,0.0,0.0,0.0,0.0,0.0,0.0,0.0,0.0,0.0,0.0,0.0,0.0,0.0,0.0,0.0,0.0,0.0,0.0,0.0,0.0,0.0,0.0,0.0,0.0,0.0,0.0,-4.9474,-4.9262,-4.9179,-4.9146,0.0,0.0,0.0,0.0,0.0,-4.9113,-4.8713,-4.8854,-4.9179,-4.9179,-4.9179,-4.923,-4.9443,-4.9509,-4.9509,-4.9509,-4.9509,-4.964,-5.0166,-5.1123,-5.2062,-5.2625,-5.3639,-5.4409,-5.4409,-5.4409,-5.4409,-5.4409,-5.4409,-5.4409,-5.4409,-5.5836,-5.6887,-5.6887,-5.8314,0.0,0.0,0.0,0.0,-5.929,-5.929,-5.929,-5.929,-5.929,-5.9197,-5.8985,-5.8848,-5.8582,-5.8146,-5.7914,-5.7673,-5.7388,-5.7264,-5.7188,-5.7188,-5.7188,-5.6951,-5.6519,-5.6455,-5.6106,-5.5637,-5.5537,-5.5507,-5.5507,-5.5507,-5.5507,-5.5507,-5.5507,-5.5389,-5.5144,0.0,0.0,0.0,0.0,0.0,0.0,0.0,0.0,0.0,0.0,0.0,0.0,0.0,0.0,0.0,0.0,0.0,0.0,0.0,0.0,0.0,0.0,0.0,0.0,0.0,0.0,0.0,0.0,0.0,0.0,0.0,0.0,0.0,0.0,0.0,0.0,0.0,0.0,0.0,0.0,0.0,0.0,-4.9295,-4.9077,-4.894,0.0,0.0,0.0,0.0,0.0,0.0,-4.8784,-4.8402,-4.855,-4.8854,-4.8854,-4.8854,-4.8889,-4.9113,-4.9181,-4.9197,-4.9313,-4.9311,-4.9567,-5.0488,-5.1311,-5.2156,-5.3017,-5.3827,-5.4409,-5.4409,-5.4285,-5.4251,-5.4373,-5.4304,-5.4251,-5.4373,-5.5836,-5.6887,-5.6887,-5.8314,-5.929,0.0,0.0,0.0,-5.929,-5.929,-5.929,-5.929,-5.929,-5.9159,-5.8808,-5.8686,-5.8366,-5.7792,-5.7649,-5.7455,-5.7188,-5.7188,-5.7188,-5.7206,-5.7105,-5.6873,-5.6519,-5.6328,-5.5993,-5.5637,-5.5537,-5.5507,-5.5507,-5.5507,-5.5507,-5.5507,-5.5507,-5.5507,-5.5419,0.0,0.0,0.0,0.0,0.0,0.0,0.0,0.0,0.0,0.0,0.0,0.0,0.0,0.0,0.0,0.0,0.0,0.0,0.0,0.0,0.0,0.0,0.0,0.0,0.0,0.0,0.0,0.0,0.0,0.0,0.0,0.0,0.0,0.0,0.0,0.0,0.0,0.0,0.0,0.0,0.0,0.0,-4.8974,-4.8957,0.0,0.0,0.0,0.0,0.0,0.0,0.0,-4.855,-4.8569,-4.8569,-4.855,-4.8569,-4.8569,-4.8569,-4.8587,-4.8605,-4.866,-4.8906,-4.8974,-4.9266,-5.0445,-5.1316,-5.2107,-5.3024,-5.383,-5.4356,0.0,0.0,-5.3981,-5.4321,-5.409,-5.3981,-5.4339,-5.5801,-5.6851,0.0,0.0,0.0,0.0,0.0,0.0,-5.9272,0.0,-5.929,-5.929,-5.9272,-5.9121,-5.8788,-5.8452,-5.8119,-5.7768,-5.7388,-5.7188,-5.7188,-5.7188,-5.7188,-5.7188,-5.6951,-5.6821,-5.6768,-5.6182,-5.5918,-5.589,-5.5607,-5.5507,-5.5507,-5.5507,-5.5507,-5.5507,-5.5507,-5.5507,-5.5341,0.0,0.0,0.0,0.0,0.0,0.0,0.0,0.0,0.0,0.0,0.0,0.0,0.0,0.0,0.0,0.0,0.0,0.0,0.0,0.0,0.0,0.0,0.0,0.0,0.0,0.0,0.0,0.0,0.0,0.0,0.0,0.0,0.0,0.0,0.0,0.0,0.0,0.0,0.0,0.0,0.0,0.0,-4.8678,0.0,0.0,0.0,0.0,0.0,0.0,0.0,0.0,0.0,0.0,-4.8093,-4.797,-4.8173,-4.8231,-4.8288,-4.8532,-4.8605,-4.8623,-4.8678,-4.8695,-4.9084,-5.0583,-5.1083,-5.164,-5.3049,-5.3513,-5.3643,-5.3643,0.0,0.0,-5.3963,-5.3757,0.0,-5.3981,-5.5265,0.0,-5.65,0.0,-5.9024,-5.9272,-5.929,0.0,0.0,-5.9159,-5.929,-5.929,-5.9063,-5.8767,-5.8452,-5.8119,-5.7726,-5.7356,-5.7239,-5.7188,-5.7188,-5.7188,-5.7188,-5.7206,-5.713,-5.7003,-5.6768,-5.6437,-5.6116,-5.589,-5.5607,-5.5507,-5.5507,-5.5507,-5.5507,-5.5507,-5.5507,-5.5507,-5.5401,0.0,0.0,0.0,0.0,0.0,0.0,0.0,0.0,0.0,0.0,0.0,0.0,0.0,0.0,0.0,0.0,0.0,0.0,0.0,0.0,0.0,0.0,0.0,0.0,0.0,0.0,0.0,0.0,0.0,0.0,0.0,0.0,0.0,0.0,0.0,0.0,0.0,0.0,0.0,0.0,0.0,0.0,0.0,0.0,0.0,0.0,0.0,0.0,0.0,0.0,0.0,-4.772,-4.787,-4.7827,-4.772,-4.787,0.0,-4.8045,-4.8571,-4.8466,-4.8321,-4.8786,-4.864,-4.8825,-5.0599,-5.0987,-5.1468,-5.3074,-5.3407,-5.3407,-5.3407,-5.3304,0.0,0.0,0.0,0.0,-5.3642,-5.497,-5.5965,0.0,-5.7598,0.0,-5.8847,-5.8867,-5.8767,0.0,-5.8888,-5.9024,-5.8867,-5.8665,-5.8431,-5.8097,-5.7909,-5.7601,-5.7188,-5.7188,-5.7188,-5.7188,-5.7188,-5.7188,-5.7206,-5.7079,-5.6873,-5.66,0.0,-5.6021,-5.5706,-5.5549,-5.5507,-5.5507,-5.5507,-5.5507,-5.5507,-5.5507,-5.5507,-5.5448,0.0,0.0,0.0,0.0,0.0,0.0,0.0,0.0,0.0,0.0,0.0,0.0,0.0,0.0,0.0,0.0,0.0,0.0,0.0,0.0,0.0,0.0,0.0,0.0,0.0,0.0,0.0,0.0,0.0,0.0,0.0,0.0,0.0,0.0,0.0,0.0,0.0,0.0,0.0,0.0,0.0,0.0,0.0,0.0,0.0,0.0,0.0,0.0,0.0,0.0,-4.7717,-4.7717,-4.7717,-4.7717,-4.7717,-4.7717,-4.779,-4.8004,-4.871,-4.8384,-4.8088,-4.8995,-4.8638,-4.8535,-5.0444,-5.0871,-5.1331,-5.2933,-5.3265,-5.3265,-5.3265,-5.3091,-5.3023,-5.3304,0.0,-5.3045,-5.3304,-5.4744,-5.5776,-5.5818,-5.7257,-5.8235,-5.8297,-5.8301,-5.8279,-5.8253,-5.8498,-5.8561,-5.8301,-5.8275,-5.8074,-5.7721,-5.7721,-5.7553,-5.7188,-5.7188,-5.7188,-5.7188,-5.7188,-5.7188,-5.7188,-5.6925,-5.6662,-5.6437,-5.606,0.0,-5.5566,-5.5507,-5.5507,-5.5507,-5.5507,-5.5507,-5.5507,-5.5507,-5.5437,-5.5349,0.0,0.0,0.0,0.0,0.0,0.0,0.0,0.0,0.0,0.0,-4.5657,-4.6406,0.0,0.0,0.0,0.0,0.0,0.0,0.0,0.0,0.0,0.0,0.0,0.0,0.0,0.0,0.0,0.0,0.0,0.0,0.0,0.0,0.0,0.0,0.0,0.0,0.0,0.0,0.0,0.0,0.0,0.0,0.0,0.0,0.0,0.0,0.0,0.0,0.0,0.0,-4.7717,-4.7717,-4.7717,-4.7717,-4.7717,-4.7717,-4.8167,-4.871,-4.8855,-4.88,-4.8731,-4.8922,-4.8363,-4.8221,-4.9883,-5.0268,0.0,-5.2318,-5.2667,-5.2667,-5.2667,-5.2618,-5.2708,-5.3023,-5.2802,-5.2708,-5.3023,-5.4232,-5.5184,0.0,-5.6919,-5.7983,-5.8257,-5.8301,0.0,0.0,0.0,-5.8074,-5.8279,-5.8029,-5.7721,-5.7332,-5.7289,-5.7264,-5.7188,-5.7188,-5.7188,-5.7188,-5.7188,-5.7188,-5.7188,-5.6925,-5.6768,-5.6689,-5.6126,0.0,-5.5804,-5.5578,-5.5507,-5.5507,-5.5507,-5.5507,-5.5507,-5.5507,-5.5086,-5.4507,0.0,0.0,0.0,0.0,0.0,0.0,0.0,0.0,-4.4852,-4.4626,-4.5015,-4.5606,-4.6406,-4.6478,0.0,0.0,0.0,0.0,0.0,0.0,0.0,0.0,0.0,0.0,0.0,0.0,0.0,0.0,0.0,0.0,0.0,0.0,0.0,0.0,0.0,0.0,0.0,0.0,0.0,0.0,0.0,0.0,0.0,0.0,0.0,0.0,0.0,0.0,0.0,0.0,-4.7717,-4.7717,-4.7717,-4.7717,-4.7717,-4.7717,-4.7989,-4.8456,-4.9293,-4.8912,-4.8475,-4.9329,-4.8605,-4.8134,-4.9749,0.0,0.0,-5.2172,-5.2498,-5.2498,-5.2498,-5.2498,0.0,-5.2708,-5.2595,-5.2567,-5.2731,-5.3629,0.0,-5.506,-5.6157,-5.7103,0.0,-5.7732,-5.766,0.0,0.0,-5.7559,-5.7708,-5.7583,-5.7388,-5.7206,-5.7188,-5.7188,-5.7188,-5.7188,-5.7188,-5.7188,-5.7188,-5.7188,-5.7188,-5.6925,-5.6715,-5.6573,-5.6116,0.0,-5.5695,-5.5566,-5.5507,-5.5507,-5.5507,-5.5507,-5.5455,-5.5033,-5.4647,-5.4261,0.0,0.0,0.0,0.0,0.0,0.0,0.0,-4.4615,-4.4615,-4.4615,-4.4615,-4.4934,-4.5843,-4.6024,-4.643,0.0,0.0,0.0,0.0,0.0,0.0,0.0,0.0,0.0,0.0,0.0,0.0,0.0,0.0,0.0,0.0,0.0,0.0,0.0,0.0,0.0,0.0,0.0,0.0,0.0,0.0,0.0,0.0,0.0,0.0,0.0,0.0,0.0,0.0,0.0,-4.7717,-4.7717,-4.7717,-4.7717,-4.7717,-4.7717,-4.7826,-4.8242,-4.9492,-4.8931,-4.8261,-4.9528,-4.8768,-4.8134,-4.9749,-5.0112,0.0,-5.2172,-5.2498,-5.2498,-5.2498,0.0,-5.2498,0.0,-5.2498,-5.2498,-5.2498,-5.3186,-5.4001,0.0,-5.554,0.0,-5.7116,-5.7188,0.0,0.0,0.0,0.0,-5.7188,-5.7188,-5.7188,-5.7188,-5.7188,-5.7188,-5.7188,-5.7188,-5.7188,-5.7188,-5.7188,-5.7188,-5.7206,-5.6873,-5.66,-5.6373,-5.5975,0.0,0.0,-5.5244,-5.5156,-5.5016,-5.5016,-5.5016,-5.4928,-5.4296,-5.3963,-5.3734,0.0,0.0,0.0,0.0,0.0,0.0,0.0,-4.4615,-4.4615,-4.4615,-4.4615,-4.4786,-4.532,-4.58,-4.6123,0.0,0.0,0.0,0.0,0.0,0.0,0.0,0.0,0.0,0.0,0.0,0.0,0.0,0.0,0.0,0.0,0.0,0.0,0.0,0.0,0.0,0.0,0.0,0.0,0.0,0.0,0.0,0.0,0.0,0.0,0.0,0.0,0.0,0.0,0.0,0.0,-4.7717,-4.7717,-4.7717,-4.7717,-4.7717,0.0,0.0,-4.8963,-4.8891,-4.8818,-4.8963,-4.8348,-4.8134,-4.9749,0.0,-5.0565,-5.2172,-5.2498,-5.2498,-5.2498,-5.2498,-5.2498,-5.2498,0.0,-5.2498,0.0,0.0,-5.4001,-5.4798,0.0,0.0,0.0,0.0,0.0,0.0,0.0,0.0,-5.7188,-5.7188,-5.7188,-5.7188,-5.7188,-5.7188,-5.7188,-5.7188,-5.7188,-5.7188,-5.7188,-5.7188,-5.7163,-5.6662,-5.641,-5.6373,-5.5782,0.0,0.0,-5.4419,-5.4015,-5.3429,-5.3429,-5.3429,-5.3383,-5.3341,-5.2839,-5.2179,0.0,0.0,0.0,0.0,0.0,0.0,0.0,-4.4615,-4.4615,-4.4615,-4.4615,-4.4682,-4.4852,-4.532,-4.5749,0.0,0.0,0.0,0.0,0.0,0.0,0.0,0.0,0.0,0.0,0.0,0.0,-4.7717,-4.7717,0.0,0.0,0.0,0.0,0.0,0.0,0.0,0.0,0.0,0.0,0.0,0.0,0.0,0.0,0.0,0.0,0.0,0.0,0.0,0.0,0.0,0.0,0.0,-4.7717,-4.7717,0.0,0.0,-4.7935,-4.8275,-4.8764,-4.8547,-4.8275,-4.8764,-4.8294,-4.8134,-4.9749,0.0,-5.0565,-5.2172,-5.2498,-5.2498,-5.2498,-5.2498,-5.2498,0.0,0.0,0.0,-5.2498,0.0,0.0,0.0,0.0,0.0,0.0,0.0,0.0,0.0,0.0,0.0,-5.7188,-5.7188,-5.7188,-5.7188,-5.7188,-5.6971,-5.6482,-5.6482,-5.6247,-5.583,-5.583,-5.5738,-5.5545,-5.5141,-5.4875,-5.4703,-5.4303,0.0,0.0,-5.3629,-5.3454,-5.3201,-5.3201,-5.3201,-5.3148,-5.2646,-5.2277,-5.1934,0.0,0.0,0.0,0.0,0.0,-4.4615,-4.4615,-4.4615,-4.4615,-4.4615,-4.4615,-4.4615,-4.4615,-4.4906,-4.5258,-4.5631,0.0,0.0,0.0,0.0,0.0,0.0,0.0,0.0,0.0,0.0,-4.7615,-4.745,-4.7615,-4.7717,0.0,0.0,-4.7717,0.0,0.0,0.0,0.0,0.0,0.0,0.0,0.0,0.0,0.0,0.0,0.0,0.0,0.0,0.0,0.0,0.0,0.0,0.0,0.0,0.0,0.0,0.0,-4.7717,-4.7826,-4.8384,-4.8113,-4.7823,-4.8384,-4.8134,-4.8061,0.0,0.0,-5.0492,-5.1846,-5.2317,-5.2498,-5.2498,-5.2498,-5.2498,0.0,0.0,-5.2498,-5.2498,0.0,0.0,0.0,0.0,-5.4925,0.0,0.0,0.0,0.0,0.0,0.0,-5.6844,-5.6645,-5.6609,-5.6826,-5.6627,-5.6247,-5.5667,-5.5667,-5.5414,-5.4907,-5.4834,-5.4668,-5.4493,-5.4062,-5.3771,-5.3572,-5.3313,0.0,0.0,-5.2839,-5.2699,-5.2534,-5.2534,-5.2534,-5.2435,-5.1891,-5.1681,-5.161,0.0,0.0,0.0,0.0,0.0,0.0,0.0,-4.4615,-4.4615,-4.4615,-4.4615,-4.4615,-4.4615,-4.4598,-4.4598,-4.4615,0.0,0.0,0.0,0.0,0.0,0.0,0.0,0.0,0.0,0.0,-4.7428,-4.6908,-4.7428,-4.7717,-4.7717,-4.7717,-4.7717,-4.7717,0.0,0.0,0.0,0.0,0.0,0.0,0.0,0.0,0.0,0.0,0.0,0.0,0.0,0.0,0.0,0.0,0.0,0.0,0.0,0.0,0.0,0.0,-4.7717,-4.7717,-4.7717,-4.7717,-4.7717,-4.7717,-4.7717,-4.7895,0.0,0.0,-5.0347,-5.114,-5.1937,-5.2498,-5.2498,-5.2498,-5.2498,-5.2498,0.0,0.0,-5.2498,0.0,0.0,0.0,0.0,0.0,0.0,0.0,0.0,0.0,0.0,0.0,-5.6011,-5.5323,-5.5269,-5.5975,-5.5305,-5.4925,-5.4907,-5.4907,-5.4907,-5.4907,-5.4618,-5.4518,-5.4493,-5.3887,-5.3599,0.0,0.0,0.0,0.0,-5.2004,-5.1593,-5.0908,-5.0908,-5.0908,-5.0908,-5.0908,-5.0908,-5.0908,0.0,0.0,0.0,0.0,0.0,0.0,0.0,-4.4615,-4.4615,-4.4615,-4.4615,-4.4615,-4.4615,-4.4615,-4.4615,-4.4615,0.0,0.0,0.0,0.0,0.0,0.0,0.0,0.0,0.0,0.0,-4.6525,-4.6358,-4.6886,-4.7151,-4.7151,-4.7533,-4.7717,-4.7717,-4.7717,0.0,0.0,0.0,0.0,0.0,0.0,0.0,0.0,0.0,0.0,0.0,0.0,0.0,0.0,0.0,0.0,0.0,0.0,0.0,0.0,0.0,0.0,0.0,-4.7717,-4.7717,-4.7717,-4.7717,-4.7717,-4.7895,-4.871,0.0,0.0,-5.1013,-5.1484,-5.1846,-5.2389,-5.2498,-5.2498,-5.2498,0.0,0.0,0.0,0.0,0.0,0.0,0.0,0.0,0.0,0.0,0.0,0.0,0.0,0.0,-5.5287,-5.4508,-5.4436,-5.5214,-5.5015,-5.4653,-5.4092,-5.4092,-5.3707,-5.2979,-5.2906,-5.2684,-5.2311,-5.2129,-5.1918,0.0,0.0,0.0,0.0,-5.1242,-5.1101,-5.0891,-5.0891,-5.0891,-5.0891,-5.0891,-5.0891,-5.0891,0.0,0.0,0.0,0.0,0.0,0.0,0.0,-4.4615,-4.4615,-4.4615,-4.4615,-4.4615,-4.4615,-4.4615,-4.4615,-4.4615,0.0,0.0,0.0,0.0,0.0,0.0,0.0,0.0,0.0,-4.5918,-4.6,-4.58,-4.6334,-4.6707,-4.6908,-4.7236,-4.7511,-4.7717,-4.7717,0.0,0.0,0.0,0.0,0.0,0.0,0.0,-4.7717,0.0,0.0,0.0,0.0,0.0,0.0,0.0,0.0,0.0,0.0,0.0,0.0,0.0,-4.7717,0.0,0.0,-4.7717,-4.7717,-4.7717,-4.7717,0.0,0.0,0.0,0.0,0.0,0.0,0.0,-5.1937,-5.2299,-5.2498,-5.2498,0.0,0.0,0.0,0.0,0.0,-5.2498,0.0,0.0,0.0,0.0,0.0,0.0,0.0,0.0,-5.449,-5.3675,-5.3476,-5.3983,-5.4001,-5.3748,-5.3241,-5.3146,-5.2756,-5.2102,-5.1889,-5.1615,-5.1298,-5.1193,-5.1061,0.0,0.0,0.0,0.0,-5.0891,-5.0891,-5.0891,-5.0891,-5.0891,-5.0891,-5.0891,-5.0891,-5.0891,0.0,0.0,0.0,0.0,0.0,0.0,0.0,0.0,0.0,-4.4615,-4.4615,-4.4615,-4.4615,-4.4615,-4.4615,-4.4615,0.0,0.0,0.0,0.0,0.0,0.0,0.0,0.0,0.0,-4.552,-4.5742,-4.5267,-4.5775,-4.6334,-4.6822,-4.6886,-4.7191,-4.7717,-4.7717,0.0,0.0,0.0,0.0,0.0,0.0,0.0,0.0,0.0,0.0,0.0,0.0,0.0,0.0,0.0,0.0,0.0,0.0,0.0,0.0,0.0,0.0,0.0,0.0,-4.7657,-4.7717,0.0,0.0,0.0,0.0,0.0,0.0,0.0,0.0,0.0,0.0,0.0,0.0,0.0,0.0,0.0,0.0,-5.2498,0.0,0.0,-5.382,0.0,0.0,0.0,0.0,0.0,0.0,0.0,-5.3657,-5.2915,-5.2498,-5.2498,-5.2498,-5.2498,-5.2498,-5.2246,-5.2126,-5.2078,-5.1589,-5.1324,-5.1255,-5.1034,-5.0918,0.0,0.0,0.0,0.0,-5.1031,-5.1013,-5.0978,-5.0978,-5.0943,-5.0891,-5.0891,-5.0891,-5.0891,0.0,0.0,0.0,0.0,0.0,0.0,0.0,0.0,0.0,0.0,-4.4615,-4.4615,-4.4615,-4.4615,-4.4615,0.0,0.0,0.0,0.0,0.0,0.0,0.0,0.0,0.0,0.0,-4.4814,-4.4896,-4.4759,-4.5258,-4.5749,-4.631,-4.6707,-4.7191,-4.7717,-4.7717,-4.7717,0.0,0.0,0.0,0.0,0.0,0.0,0.0,0.0,0.0,0.0,-4.7717,-4.7717,0.0,0.0,0.0,0.0,0.0,0.0,0.0,0.0,-4.6817,-4.6566,-4.6994,0.0,-4.7717,-4.7717,-4.7717,-4.7717,0.0,0.0,0.0,0.0,0.0,0.0,0.0,0.0,0.0,0.0,0.0,0.0,-5.2408,0.0,0.0,-5.2498,-5.2824,0.0,0.0,0.0,0.0,0.0,0.0,-5.4291,-5.286,-5.2589,-5.2498,-5.2498,-5.2498,-5.2498,-5.2498,-5.2452,-5.2198,-5.179,-5.1864,-5.1589,-5.0998,-5.1141,-5.1088,0.0,0.0,0.0,-5.1803,-5.24,-5.2295,-5.1751,-5.1751,-5.14,-5.0891,-5.0891,-5.0891,-5.0891,0.0,0.0,0.0,0.0,0.0,0.0,0.0,0.0,0.0,0.0,0.0,0.0,0.0,0.0,0.0,0.0,0.0,0.0,0.0,0.0,0.0,0.0,0.0,0.0,-4.4615,-4.4615,-4.4615,-4.4615,-4.4852,-4.5346,-4.6116,-4.6406,-4.6954,-4.7717,-4.7717,-4.7717,0.0,0.0,0.0,0.0,-4.7717,0.0,0.0,0.0,0.0,0.0,-4.7717,-4.7717,0.0,-4.7407,-4.7129,-4.6908,0.0,0.0,0.0,0.0,-4.6334,-4.6147,-4.6454,-4.6931,-4.7385,-4.7636,-4.7511,-4.7323,-4.7323,0.0,0.0,0.0,0.0,0.0,0.0,0.0,0.0,0.0,-5.045,0.0,0.0,0.0,-5.2186,-5.2475,0.0,0.0,0.0,0.0,0.0,0.0,0.0,-5.4363,-5.3114,-5.2697,-5.2498,-5.2498,-5.2498,-5.2452,-5.2317,-5.2198,-5.1914,-5.1513,-5.1538,-5.1501,-5.14,-5.1563,-5.1756,0.0,0.0,0.0,-5.2049,-5.247,-5.219,-5.1505,-5.1505,-5.1242,-5.0891,-5.0891,-5.0891,-5.0891,0.0,0.0,0.0,0.0,0.0,0.0,0.0,0.0,0.0,0.0,0.0,0.0,0.0,0.0,0.0,0.0,0.0,0.0,0.0,0.0,0.0,0.0,0.0,-4.4615,-4.4615,-4.4615,-4.4615,-4.4615,-4.4615,-4.5079,-4.5975,-4.6049,-4.6683,-4.7717,-4.7717,-4.7717,0.0,0.0,0.0,0.0,-4.7717,0.0,0.0,0.0,0.0,0.0,0.0,0.0,0.0,-4.6931,-4.673,-4.659,-4.6213,0.0,0.0,0.0,0.0,0.0,-4.5968,-4.631,-4.6776,-4.7302,-4.7107,-4.6776,-4.6776,0.0,0.0,0.0,0.0,0.0,0.0,-4.7668,0.0,0.0,0.0,0.0,-5.13,-5.1457,-5.1651,-5.2162,0.0,0.0,0.0,0.0,0.0,0.0,0.0,-5.4265,-5.3471,-5.2786,-5.2354,-5.2228,-5.2233,-5.2138,-5.1945,-5.1864,-5.169,-5.141,-5.1246,-5.1396,-5.1894,-5.1948,-5.2273,-5.2867,0.0,0.0,-5.2032,-5.2137,-5.1751,-5.1066,-5.1066,-5.0996,-5.0891,-5.0891,-5.0891,-5.0891,0.0,0.0,0.0,0.0,0.0,0.0,0.0,0.0,0.0,0.0,0.0,0.0,0.0,0.0,0.0,0.0,0.0,0.0,0.0,0.0,0.0,0.0,-4.4615,-4.4615,-4.4615,-4.4615,-4.4615,-4.4615,-4.4615,-4.4879,-4.5433,-4.5893,-4.6683,-4.7717,-4.7717,-4.7717,-4.7717,-4.7717,-4.7717,-4.7717,-4.7717,0.0,0.0,0.0,0.0,0.0,0.0,0.0,0.0,-4.6262,-4.5925,-4.5614,-4.5975,0.0,0.0,0.0,0.0,0.0,-4.532,-4.5468,-4.5673,-4.6213,-4.6286,-4.622,-4.622,0.0,0.0,0.0,0.0,0.0,0.0,-4.6379,-4.6727,0.0,0.0,-4.989,0.0,0.0,-5.0858,0.0,0.0,0.0,0.0,0.0,0.0,0.0,0.0,-5.2966,-5.2225,-5.2067,-5.1679,-5.0999,-5.0964,-5.1105,-5.1357,-5.2018,-5.2246,-5.1963,-5.2174,-5.1961,-5.1423,-5.1639,-5.1555,-5.1277,0.0,-5.2119,-5.2067,-5.2734,-5.2541,-5.1839,-5.1839,-5.1452,-5.0891,-5.0891,-5.0891,-5.0891,0.0,0.0,0.0,0.0,0.0,0.0,0.0,0.0,0.0,0.0,0.0,0.0,0.0,0.0,0.0,0.0,0.0,0.0,0.0,0.0,0.0,-4.4615,-4.4615,-4.4615,-4.4615,-4.4615,-4.4615,-4.4615,-4.4615,-4.4824,-4.5329,-4.6165,-4.6954,-4.7717,-4.7717,-4.7717,-4.7717,-4.7717,-4.7717,-4.7717,0.0,0.0,0.0,0.0,0.0,0.0,0.0,0.0,0.0,0.0,-4.5494,-4.5294,-4.5284,0.0,0.0,0.0,0.0,0.0,-4.4852,-4.4917,-4.4971,-4.5222,-4.5477,-4.5673,-4.5673,0.0,0.0,0.0,0.0,0.0,0.0,0.0,-4.5681,-4.6852,0.0,-4.8943,-5.0091,-5.0265,0.0,0.0,0.0,0.0,0.0,0.0,0.0,0.0,0.0,0.0,-5.1322,-5.0531,-4.9899,-4.9513,-4.9495,-4.9565,-4.9617,-5.0383,-5.0916,-5.122,-5.0766,-5.0588,-5.0661,-5.0643,-5.0717,-5.0908,0.0,-5.1154,-5.0785,-5.1154,-5.1084,-5.075,-5.075,-5.082,-5.0891,-5.0891,-5.061,-5.0241,0.0,0.0,0.0,0.0,0.0,0.0,0.0,0.0,0.0,0.0,0.0,0.0,0.0,0.0,0.0,0.0,0.0,0.0,0.0,0.0,-4.4615,-4.4615,-4.4615,-4.4615,-4.4615,-4.4615,-4.4615,-4.4615,-4.4615,-4.4824,-4.5329,-4.6123,-4.6886,-4.7511,-4.7511,-4.7593,-4.7717,-4.7717,-4.7717,-4.7678,0.0,0.0,0.0,0.0,0.0,0.0,0.0,0.0,0.0,0.0,0.0,0.0,0.0,0.0,0.0,-4.4615,-4.4615,-4.4615,-4.4615,-4.4615,-4.4615,-4.4615,0.0,-4.5152,-4.5152,-4.4852,0.0,0.0,0.0,0.0,0.0,-4.4615,0.0,-4.6549,-4.713,0.0,0.0,0.0,0.0,0.0,0.0,0.0,0.0,0.0,0.0,0.0,0.0,0.0,-5.0115,-4.9017,-4.8285,-4.8111,-4.8111,-4.8093,-4.8085,-4.84,-4.9079,-5.0069,-4.9408,-4.9345,-4.9847,-4.9624,-4.9829,-5.0329,-5.0329,-4.9978,-4.9416,-4.9416,-4.9416,-4.9416,-4.9416,-4.9785,-5.0329,-5.0329,-4.9943,-4.9416,0.0,0.0,0.0,0.0,0.0,0.0,0.0,0.0,0.0,0.0,0.0,0.0,0.0,0.0,0.0,0.0,0.0,0.0,0.0,0.0,-4.4615,-4.4615,-4.4615,-4.4615,-4.4615,-4.4615,-4.4615,-4.4615,-4.4615,-4.4824,-4.5303,-4.5381,-4.5968,-4.6954,-4.6954,-4.7236,-4.7717,-4.7717,-4.7717,-4.7657,-4.7151,0.0,0.0,0.0,0.0,0.0,0.0,0.0,0.0,0.0,0.0,0.0,0.0,0.0,-4.4615,-4.4615,-4.4615,-4.4615,-4.4615,-4.4615,-4.4615,-4.4615,-4.4626,0.0,-4.4654,-4.4626,0.0,-4.4615,0.0,0.0,0.0,-4.4615,0.0,0.0,0.0,0.0,0.0,0.0,0.0,0.0,0.0,0.0,0.0,0.0,0.0,0.0,0.0,0.0,-4.8107,-4.8005,-4.7615,-4.6932,-4.6915,-4.7113,-4.7451,-4.6773,-4.7221,-4.8844,-4.9389,-4.9424,-4.9093,-4.9068,-4.8917,-4.8653,-4.8653,-4.8635,-4.8583,-4.8583,-4.8583,-4.8583,-4.8583,-4.86,-4.8653,-4.8653,-4.8635,-4.8583,0.0,0.0,0.0,0.0,0.0,0.0,0.0,0.0,0.0,0.0,0.0,0.0,0.0,0.0,0.0,0.0,0.0,0.0,0.0,0.0,-4.4615,-4.4615,-4.4615,-4.4615,-4.4615,-4.4615,-4.4615,-4.4615,-4.4615,-4.4824,-4.5303,-4.5622,-4.6,-4.6406,-4.6753,-4.6999,-4.7196,-4.7196,-4.7196,-4.7173,-4.6976,-4.6707,0.0,0.0,0.0,0.0,0.0,0.0,0.0,0.0,-4.4615,-4.4615,0.0,0.0,-4.4615,-4.4615,-4.4615,-4.4615,-4.4615,-4.4615,-4.4615,-4.4615,-4.4615,0.0,0.0,-4.4615,-4.4615,-4.4615,-4.4615,0.0,0.0,0.0,0.0,0.0,0.0,0.0,0.0,0.0,0.0,0.0,0.0,0.0,0.0,0.0,0.0,0.0,0.0,0.0,-4.6549,-4.6092,-4.5703,-4.5461,-4.5444,-4.5382,-4.5348,-4.5456,-4.5674,-4.5966,-4.6953,-4.7311,-4.7131,-4.7223,-4.7174,-4.7074,-4.7074,-4.7074,-4.7074,-4.7074,-4.7354,-4.7871,-4.8302,-4.8495,-4.8495,-4.8556,-4.8257,-4.7819,0.0,0.0,0.0,0.0,0.0,0.0,0.0,0.0,0.0,0.0,0.0,0.0,0.0,0.0,0.0,0.0,0.0,0.0,0.0,-4.4615,-4.4615,-4.4615,-4.4615,-4.4615,-4.4615,-4.4615,-4.4615,-4.4615,-4.4615,-4.4759,-4.5089,-4.5451,-4.5708,-4.585,-4.6238,-4.6478,-4.666,-4.666,-4.666,-4.6637,-4.6454,-4.6172,0.0,0.0,0.0,0.0,0.0,0.0,0.0,0.0,0.0,0.0,0.0,0.0,0.0,0.0,-4.4615,-4.4615,-4.4615,-4.4615,-4.4615,0.0,0.0,0.0,-4.4615,-4.4615,-4.4615,-4.4615,-4.4615,-4.4615,-4.4615,0.0,0.0,0.0,0.0,0.0,0.0,0.0,0.0,0.0,0.0,0.0,0.0,0.0,0.0,0.0,0.0,0.0,0.0,-4.4886,-4.4615,-4.4615,-4.4542,-4.4355,-4.4097,-4.4502,-4.4502,-4.408,-4.5035,-4.5615,-4.5887,-4.598,-4.6073,-4.6196,-4.6196,-4.6196,-4.6196,-4.6196,-4.6512,-4.7081,-4.7565,-4.7758,-4.7776,-4.7836,-4.7503,-4.7029,0.0,0.0,0.0,0.0,0.0,0.0,0.0,0.0,0.0,0.0,0.0,0.0,0.0,0.0,0.0,0.0,0.0,0.0,0.0,-4.4615,-4.4615,-4.4615,-4.4615,-4.4615,-4.4615,-4.4615,-4.4615,-4.4615,-4.4615,-4.4615,-4.4615,-4.4598,-4.4852,-4.5303,-4.5303,-4.5614,-4.6074,-4.6074,-4.6074,-4.6067,-4.5494,-4.5303,-4.5241,0.0,0.0,0.0,0.0,0.0,0.0,0.0,-4.4615,0.0,0.0,0.0,0.0,0.0,-4.4615,-4.4615,-4.4615,-4.4615,-4.4615,0.0,0.0,0.0,-4.4615,-4.4615,-4.4615,-4.4615,0.0,-4.4615,-4.4615,0.0,0.0,-4.5585,0.0,0.0,0.0,0.0,0.0,0.0,0.0,0.0,0.0,0.0,0.0,0.0,0.0,0.0,0.0,-4.4615,-4.4615,-4.4615,-4.4395,-4.4224,-4.4097,-4.3985,-4.3793,-4.3598,-4.408,-4.4752,-4.558,-4.558,-4.5829,-4.6196,-4.6196,-4.6196,-4.6196,-4.6196,-4.6196,-4.6196,-4.6196,-4.6196,-4.6196,-4.6196,-4.6196,-4.6196,0.0,0.0,0.0,0.0,0.0,0.0,0.0,0.0,0.0,0.0,0.0,0.0,0.0,0.0,0.0,0.0,0.0,0.0,0.0,-4.431,-4.4615,-4.4615,-4.4615,-4.4615,-4.4615,-4.4615,-4.4615,-4.4615,-4.4615,-4.4615,-4.4598,-4.4944,-4.4998,-4.4824,-4.5152,-4.5381,-4.5537,-4.5537,-4.5537,-4.552,-4.5355,-4.5098,-4.4786,0.0,0.0,0.0,0.0,0.0,0.0,0.0,0.0,0.0,0.0,0.0,0.0,-4.4615,-4.4615,-4.4615,-4.4615,-4.4615,0.0,-4.4615,0.0,0.0,0.0,0.0,0.0,0.0,0.0,-4.4615,-4.4615,0.0,0.0,-4.5585,0.0,0.0,0.0,0.0,0.0,0.0,0.0,0.0,0.0,0.0,0.0,0.0,0.0,0.0,0.0,-4.4468,-4.4395,-4.4395,-4.4241,-4.4097,-4.3956,-4.3927,-4.3793,-4.3598,-4.373,-4.4121,-4.4714,-4.5319,-4.5675,-4.5786,-4.6073,-4.6196,-4.6196,-4.6196,-4.6196,-4.6196,-4.6196,-4.6196,-4.6196,-4.6196,-4.6196,-4.6147,0.0,0.0,0.0,0.0,0.0,0.0,0.0,0.0,0.0,0.0,0.0,0.0,0.0,0.0,0.0,0.0,0.0,0.0,0.0,0.0,-4.4615,-4.4615,-4.4615,-4.4615,-4.4615,-4.4615,-4.4615,-4.4615,-4.4615,-4.4615,-4.4615,-4.4906,-4.4879,-4.4598,-4.4906,-4.5008,-4.5008,-4.5008,-4.5008,-4.5008,-4.5008,-4.4852,-4.4615,0.0,0.0,0.0,0.0,0.0,0.0,0.0,0.0,0.0,0.0,0.0,0.0,-4.4615,-4.4615,-4.4615,-4.4615,-4.4615,0.0,-4.4615,-4.4615,-4.4615,-4.4615,0.0,0.0,0.0,0.0,-4.4615,-4.4615,-4.4615,0.0,0.0,0.0,0.0,0.0,0.0,0.0,0.0,0.0,0.0,0.0,0.0,0.0,0.0,0.0,0.0,0.0,-4.4468,-4.4412,-4.4412,-4.4253,-4.4126,-4.3969,-4.3927,-4.3793,-4.3598,-4.3598,-4.3747,-4.4051,-4.4752,-4.5266,-4.5606,-4.6023,-4.6196,-4.6196,-4.6196,-4.6196,-4.6196,-4.6196,-4.6196,-4.6196,-4.6196,-4.6097,-4.593,0.0,0.0,0.0,0.0,0.0,0.0,0.0,0.0,0.0,0.0,0.0,0.0,0.0,0.0,0.0,0.0,0.0,0.0,0.0,0.0,-4.4542,-4.4615,-4.4615,-4.4615,-4.4615,-4.4615,-4.4615,-4.4615,-4.4615,-4.4615,-4.4615,-4.4615,-4.4615,-4.4615,-4.4615,-4.4615,-4.4615,-4.4615,-4.4615,-4.4615,-4.4615,-4.4615,-4.4615,-4.4615,0.0,0.0,0.0,0.0,0.0,0.0,0.0,0.0,0.0,0.0,-4.4615,-4.4615,-4.4615,-4.4615,-4.4615,0.0,0.0,-4.4615,-4.4615,0.0,-4.4615,-4.4615,-4.4615,-4.4615,0.0,-4.4615,0.0,0.0,0.0,0.0,0.0,0.0,0.0,0.0,0.0,0.0,0.0,0.0,0.0,0.0,0.0,0.0,0.0,0.0,0.0,-4.457,-4.457,-4.4542,-4.4384,-4.4212,-4.4068,-4.3939,-4.3763,-4.3598,-4.3598,-4.3598,-4.3628,-4.408,-4.478,-4.5606,-4.5998,-4.6172,-4.6196,-4.6196,-4.6196,-4.6196,-4.6196,-4.6196,-4.6196,-4.6196,-4.5947,-4.558,0.0,0.0,0.0,0.0,0.0,0.0,0.0,0.0,0.0,0.0,0.0,0.0,0.0,0.0,0.0,0.0,0.0,0.0,0.0,0.0,-4.3972,-4.457,-4.4615,-4.4615,-4.4615,-4.4615,-4.4615,-4.4615,-4.4615,-4.4615,-4.4615,-4.4615,-4.4615,-4.4615,-4.4615,-4.4615,-4.4615,-4.4615,-4.4615,-4.4615,-4.4615,-4.4615,-4.4615,-4.4615,-4.4615,0.0,0.0,0.0,0.0,0.0,0.0,0.0,-4.4615,-4.4615,-4.4615,-4.4615,-4.4615,-4.4615,0.0,-4.4615,0.0,0.0,-4.4615,-4.4615,-4.4615,-4.4615,-4.4615,-4.4615,-4.4615,-4.4615,0.0,0.0,0.0,0.0,0.0,0.0,0.0,0.0,0.0,0.0,0.0,0.0,0.0,0.0,0.0,0.0,0.0,0.0,-4.4367,-4.4367,-4.4327,-4.4212,-4.4056,-4.3969,-4.3939,-4.3763,-4.3628,0.0,-4.3598,-4.3598,-4.3628,-4.408,-4.478,-4.5606,-4.5684,-4.5905,-4.6196,-4.6196,-4.6196,-4.6196,-4.6196,-4.6196,-4.6196,-4.6196,-4.5947,-4.5555,0.0,0.0,0.0,0.0,0.0,0.0,0.0,0.0,0.0,0.0,0.0,0.0,0.0,0.0,0.0,0.0,0.0,0.0,0.0,0.0,0.0,0.0,-4.4615,0.0,0.0,0.0,-4.4615,-4.4615,-4.4615,-4.4615,-4.4615,-4.4615,-4.4615,-4.4615,-4.4615,-4.4615,-4.4615,-4.4615,-4.4615,-4.4615,-4.4615,-4.4615,-4.4615,-4.4615,-4.4615,-4.4615,-4.4615,0.0,0.0,0.0,0.0,0.0,0.0,0.0,-4.4615,-4.4615,-4.4615,-4.4615,0.0,0.0,0.0,0.0,0.0,0.0,-4.4615,-4.4615,-4.4615,-4.4615,-4.4615,0.0,0.0,0.0,0.0,0.0,0.0,0.0,0.0,0.0,0.0,0.0,0.0,0.0,0.0,0.0,0.0,0.0,0.0,-4.4384,-4.4196,-4.4196,-4.4184,-4.4097,-4.4027,-4.3969,-4.3898,-4.3793,-4.3704,-4.3598,-4.3598,-4.3598,-4.3628,-4.408,-4.4547,-4.4998,-4.5424,-4.5727,-4.593,-4.6122,-4.6196,-4.6196,-4.6196,-4.6196,-4.6196,-4.6196,-4.5786,-4.5249,0.0,0.0,0.0,0.0,0.0,0.0,0.0,0.0,0.0,0.0,0.0,0.0,0.0,0.0,0.0,0.0,0.0,0.0,0.0,0.0,0.0,0.0,0.0,0.0,0.0,0.0,0.0,0.0,0.0,0.0,0.0,0.0,0.0,-4.4615,-4.4615,-4.4615,-4.4615,-4.4615,-4.4615,-4.4615,-4.4615,-4.4615,-4.4615,-4.4615,-4.4615,-4.4615,-4.4615,-4.4615,-4.4615,-4.4615,0.0,0.0,0.0,0.0,-4.4615,-4.4615,-4.4615,-4.4615,0.0,0.0,0.0,0.0,0.0,0.0,0.0,-4.4615,0.0,0.0,0.0,0.0,0.0,0.0,0.0,0.0,0.0,0.0,0.0,0.0,0.0,0.0,0.0,0.0,0.0,0.0,0.0,0.0,0.0,-4.427,-4.4085,-4.4097,-4.4126,-4.4085,-4.4173,-4.4181,-4.4081,-4.4184,-4.4175,-4.4039,-4.4039,-4.3943,-4.381,-4.4206,-4.4342,-4.4321,-4.5052,-4.545,-4.5632,-4.5955,-4.6147,-4.6196,-4.6196,-4.6196,-4.6196,-4.6196,-4.5658,-4.491,0.0,0.0,0.0,0.0,0.0,0.0,0.0,0.0,0.0,0.0,0.0,0.0,0.0,0.0,0.0,0.0,0.0,0.0,0.0,0.0,0.0,0.0,-4.4615,0.0,0.0,0.0,0.0,0.0,0.0,0.0,0.0,0.0,0.0,-4.4615,0.0,-4.4615,-4.4615,-4.4615,-4.4615,-4.4615,-4.4615,-4.4615,-4.4615,-4.4615,-4.4615,-4.4615,-4.4615,-4.4615,-4.4615,-4.4615,-4.4615,0.0,0.0,0.0,-4.4615,-4.4615,-4.4615,-4.4615,0.0,0.0,0.0,0.0,0.0,0.0,0.0,0.0,0.0,0.0,0.0,0.0,0.0,0.0,0.0,0.0,0.0,0.0,0.0,0.0,0.0,0.0,0.0,0.0,0.0,0.0,0.0,0.0,-4.4468,-4.4372,-4.3956,-4.4155,-4.4184,-4.3927,-4.448,-4.4797,-4.4767,-4.5277,-4.5609,-4.5779,-4.5779,-4.5338,-4.4556,-4.463,-4.4519,-4.431,-4.4435,-4.4889,-4.5606,-4.5658,-4.5879,-4.6196,-4.6196,-4.6196,-4.6196,-4.6196,-4.5658,-4.491,0.0,0.0,0.0,0.0,0.0,0.0,0.0,0.0,0.0,0.0,0.0,0.0,0.0,0.0,0.0,0.0,0.0,0.0,0.0,0.0,0.0,-4.4615,-4.4615,-4.4615,-4.4615,0.0,0.0,0.0,0.0,0.0,0.0,-4.4615,-4.4615,0.0,0.0,0.0,-4.4615,-4.4615,-4.4615,-4.4615,-4.4615,-4.4615,-4.4615,-4.4615,-4.4615,-4.4615,-4.4615,-4.4615,-4.4615,-4.4615,-4.4615,-4.4615,-4.4615,0.0,0.0,0.0,-4.4615,0.0,-4.4615,0.0,0.0,0.0,0.0,0.0,0.0,0.0,0.0,0.0,0.0,0.0,0.0,0.0,0.0,0.0,0.0,0.0,0.0,0.0,0.0,0.0,0.0,0.0,0.0,0.0,0.0,0.0,-4.4367,-4.4298,-4.4027,-4.4126,-4.431,-4.4612,-4.4929,-4.5267,-4.5668,-4.594,-4.6107,-4.6216,-4.6141,-4.5865,-4.5471,-4.5379,-4.4809,-4.3906,-4.4196,-4.4642,-4.5222,-4.5503,-4.5829,-4.6196,-4.6196,-4.6196,-4.6172,-4.5955,-4.5459,-4.4882,0.0,0.0,0.0,0.0,0.0,0.0,0.0,0.0,0.0,0.0,0.0,0.0,0.0,0.0,0.0,0.0,0.0,0.0,0.0,0.0,0.0,-4.4615,-4.4615,-4.4615,-4.4615,0.0,0.0,0.0,0.0,0.0,-4.4615,-4.4615,-4.4615,0.0,-4.4615,-4.4615,0.0,-4.4615,-4.4615,-4.4615,-4.4615,-4.4615,-4.4615,-4.4615,-4.4615,-4.4615,-4.4615,-4.4615,-4.4615,-4.4615,-4.4615,-4.4615,-4.4615,-4.4615,0.0,0.0,0.0,0.0,0.0,0.0,0.0,0.0,0.0,0.0,0.0,0.0,0.0,0.0,0.0,0.0,0.0,0.0,0.0,0.0,0.0,0.0,0.0,0.0,0.0,0.0,0.0,0.0,0.0,0.0,0.0,0.0,-4.4338,-4.4298,-4.4097,-4.4126,-4.4473,-4.5181,-4.5382,-4.5852,-4.6558,-4.6759,-4.6829,-4.6736,-4.6691,-4.6529,-4.6283,-4.6142,-4.5384,-4.4175,-4.4515,-4.4935,-4.5324,-4.5682,-4.6064,-4.6429,-4.6429,-4.6429,-4.6377,-4.6073,-4.5682,-4.5269,0.0,0.0,0.0,0.0,0.0,0.0,0.0,0.0,0.0,0.0,0.0,0.0,0.0,-4.0524,-4.0802,-4.1492,-4.2141,-4.3092,-4.444,-4.457,-4.4615,-4.4615,-4.4615,0.0,-4.4615,-4.4615,0.0,0.0,0.0,0.0,-4.4615,-4.4615,-4.4615,-4.4615,-4.4615,-4.4615,-4.4615,0.0,0.0,-4.4615,-4.4615,-4.4615,-4.4615,-4.4615,-4.4615,-4.4615,-4.4615,-4.4615,-4.4615,-4.4615,-4.4615,-4.4615,-4.4615,-4.4615,-4.4615,0.0,0.0,0.0,0.0,0.0,0.0,0.0,0.0,0.0,0.0,0.0,0.0,0.0,0.0,0.0,0.0,0.0,0.0,0.0,0.0,0.0,0.0,0.0,0.0,0.0,0.0,0.0,0.0,0.0,0.0,0.0,-4.4468,-4.4429,-4.4126,-4.4224,-4.456,-4.5181,-4.5885,-4.6592,-4.7345,-4.8031,-4.8224,-4.7917,-4.8031,-4.7665,-4.6873,-4.6841,-4.6411,-4.5682,-4.5713,-4.6004,-4.641,-4.6439,-4.6704,-4.7062,-4.7062,-4.7062,-4.7062,-4.7033,-4.6763,-4.641,0.0,0.0,0.0,0.0,0.0,0.0,0.0,0.0,0.0,0.0,0.0,0.0,0.0,-4.0489,-4.0783,-4.1426,-4.252,-4.3166,-4.3259,-4.4093,-4.4615,-4.4615,-4.4615,-4.4615,-4.4615,-4.4615,0.0,0.0,0.0,-4.4615,-4.4615,-4.4615,-4.4615,-4.4615,-4.4615,-4.4615,-4.4615,-4.4615,0.0,0.0,0.0,0.0,-4.4542,-4.4076,-4.3898,-4.3839,-4.341,-4.3529,-4.3898,-4.3898,-4.3898,-4.3898,-4.3898,-4.3604,-4.335,-4.3781,-4.4236,-4.4615,0.0,0.0,0.0,0.0,0.0,0.0,0.0,0.0,0.0,0.0,0.0,0.0,0.0,0.0,0.0,0.0,0.0,0.0,0.0,0.0,0.0,0.0,0.0,0.0,0.0,0.0,0.0,0.0,0.0,-4.524,-4.5125,-4.5166,-4.5503,-4.6216,-4.6928,-4.7669,-4.8411,-4.868,-4.8721,-4.8517,-4.8436,-4.8158,-4.7748,-4.7636,-4.7454,-4.7206,-4.7206,-4.6943,-4.6498,-4.6498,-4.6735,-4.7096,-4.7096,-4.7096,-4.7067,-4.6806,-4.6617,-4.6438,0.0,0.0,0.0,0.0,0.0,0.0,0.0,0.0,0.0,0.0,0.0,0.0,0.0,0.0,-4.0783,-4.1426,-4.252,-4.3075,-4.2862,-4.396,-4.4615,-4.4615,-4.4615,-4.4615,-4.4615,-4.4615,-4.4615,0.0,0.0,0.0,0.0,-4.4615,-4.4615,-4.4615,-4.4615,-4.4615,0.0,0.0,0.0,-4.457,0.0,0.0,-4.4133,0.0,0.0,-4.3106,-4.2676,-4.28,-4.3166,-4.3166,-4.3166,-4.3166,-4.3166,-4.2862,-4.2645,-4.3287,-4.3839,-4.4265,-4.4542,0.0,0.0,0.0,0.0,0.0,0.0,0.0,0.0,0.0,0.0,0.0,0.0,0.0,0.0,0.0,0.0,0.0,0.0,0.0,0.0,0.0,0.0,0.0,0.0,0.0,0.0,0.0,0.0,0.0,-4.5971,-4.5971,-4.6338,-4.7141,-4.7885,-4.848,-4.8909,-4.8877,-4.8753,-4.8612,-4.8436,-4.8276,-4.8147,-4.8033,-4.8001,-4.8001,-4.8001,-4.7631,-4.701,-4.701,-4.7164,-4.7389,-4.7389,-4.7389,-4.7359,-4.7102,-4.701,-4.6965,0.0,0.0,0.0,0.0,0.0,0.0,0.0,0.0,0.0,-4.0489,0.0,0.0,0.0,0.0,0.0,-4.1393,-4.2078,-4.2738,-4.3423,-4.415,-4.4542,-4.4542,-4.4542,-4.4542,-4.4542,-4.4542,-4.457,0.0,0.0,0.0,0.0,0.0,-4.4587,-4.457,-4.4598,-4.457,-4.4542,0.0,-4.457,-4.4497,0.0,-4.3482,-4.3423,0.0,0.0,0.0,-4.2458,-4.2458,-4.2489,-4.2489,-4.2489,-4.2458,-4.2458,-4.2458,-4.2614,-4.3257,-4.3482,-4.3647,0.0,0.0,0.0,0.0,0.0,0.0,0.0,0.0,0.0,0.0,0.0,0.0,0.0,0.0,0.0,0.0,0.0,0.0,0.0,0.0,0.0,0.0,0.0,0.0,0.0,0.0,0.0,0.0,-4.6481,-4.6481,-4.6481,-4.6498,-4.6928,-4.7906,-4.8629,-4.8956,-4.8818,-4.8627,-4.842,-4.8195,-4.8099,-4.8001,-4.8001,-4.8001,-4.8001,-4.8001,-4.8001,-4.8001,-4.8001,-4.8001,-4.8001,-4.8001,-4.8001,-4.8001,-4.8001,-4.8001,-4.8001,-4.8001,0.0,0.0,0.0,0.0,0.0,0.0,0.0,0.0,-4.0489,0.0,0.0,0.0,-4.0489,-4.0489,-4.0558,-4.0783,-4.1393,-4.1868,-4.2046,-4.2707,-4.3092,-4.3092,-4.3092,-4.3092,-4.3092,-4.3558,0.0,0.0,0.0,0.0,0.0,0.0,0.0,0.0,-4.4367,-4.4018,-4.3122,-4.3588,0.0,-4.3735,-4.3045,-4.2769,0.0,0.0,0.0,0.0,0.0,-4.136,-4.1771,-4.1771,-4.1771,-4.1673,-4.1209,-4.1393,-4.1804,-4.1981,-4.2738,-4.3542,-4.3735,0.0,0.0,0.0,0.0,0.0,0.0,0.0,0.0,0.0,0.0,0.0,0.0,0.0,0.0,0.0,0.0,0.0,0.0,0.0,0.0,0.0,0.0,0.0,0.0,0.0,0.0,0.0,-4.6237,-4.5903,-4.5903,-4.6439,-4.7288,-4.8495,-4.8838,-4.8956,-4.8818,-4.8846,-4.8704,-4.842,-4.8388,-4.8244,-4.8001,-4.8001,-4.8001,-4.8001,-4.8001,-4.8001,-4.8001,-4.8001,-4.8001,-4.8001,-4.8001,-4.8001,-4.8001,-4.8001,-4.8001,-4.8001,0.0,0.0,0.0,0.0,0.0,0.0,0.0,0.0,-4.0489,0.0,0.0,0.0,-4.0489,-4.0489,-4.0489,-4.0489,-4.1109,-4.1492,-4.1492,-4.2141,-4.252,-4.252,-4.2769,-4.28,-4.252,-4.3469,0.0,0.0,0.0,0.0,0.0,0.0,0.0,0.0,0.0,0.0,0.0,0.0,0.0,0.0,-4.2363,0.0,0.0,-4.1343,-4.1091,0.0,0.0,0.0,-4.1091,-4.1091,-4.1091,-4.1024,-4.0612,-4.0783,-4.1142,-4.1426,-4.2269,-4.3136,-4.3406,-4.4047,0.0,0.0,0.0,0.0,-4.4615,-4.4615,0.0,0.0,0.0,0.0,0.0,0.0,0.0,0.0,0.0,0.0,0.0,0.0,0.0,0.0,0.0,0.0,0.0,-4.668,-4.668,-4.668,-4.6292,-4.6026,-4.6026,-4.6444,-4.7055,-4.795,-4.8058,-4.8179,-4.8408,-4.8422,-4.8481,-4.8627,-4.8547,-4.8388,-4.8212,-4.8212,-4.8147,-4.8082,-4.8082,-4.8066,-4.8001,-4.8001,-4.8001,-4.8001,-4.8001,-4.8001,-4.8001,-4.8001,-4.8001,-4.8001,0.0,0.0,0.0,0.0,0.0,0.0,0.0,0.0,0.0,0.0,-4.0489,-4.0489,-4.0489,-4.0489,-4.0489,-4.0489,-4.1057,-4.1393,-4.1393,-4.1965,-4.2269,-4.2269,-4.2862,-4.2892,-4.23,-4.3575,0.0,0.0,0.0,0.0,0.0,0.0,0.0,0.0,0.0,0.0,0.0,0.0,0.0,-4.2237,-4.1624,-4.1393,0.0,0.0,-4.0489,-4.0489,-4.0489,-4.0489,-4.0489,-4.0489,-4.0489,-4.0489,-4.0489,-4.0489,-4.0612,-4.1209,-4.1933,-4.2645,-4.3227,-4.3972,-4.4615,-4.4615,-4.4615,0.0,-4.4615,-4.4615,-4.4615,0.0,0.0,0.0,0.0,0.0,0.0,0.0,0.0,0.0,0.0,0.0,0.0,0.0,0.0,0.0,-4.6241,-4.6292,-4.6292,-4.6292,-4.6292,-4.6325,-4.6426,-4.6426,-4.652,-4.6756,-4.6786,-4.7107,-4.7753,-4.7585,-4.7844,-4.8534,-4.8459,-4.8381,-4.8398,-4.8482,-4.842,-4.8227,-4.8227,-4.8179,-4.8066,-4.8033,-4.8001,-4.8001,-4.8001,-4.8001,-4.8001,-4.8001,-4.8001,-4.8001,-4.0489,0.0,0.0,0.0,0.0,0.0,0.0,0.0,0.0,-4.0489,-4.0489,-4.0489,-4.0489,-4.0489,-4.0489,-4.0489,-4.0612,-4.0681,-4.0681,-4.0802,-4.0904,-4.0904,-4.1024,-4.1024,-4.0904,-4.1689,0.0,0.0,0.0,0.0,0.0,0.0,0.0,0.0,0.0,0.0,0.0,0.0,0.0,-4.087,-4.0749,0.0,-4.0681,-4.0558,-4.0489,-4.0489,-4.0489,-4.0489,-4.0489,-4.0489,-4.0489,-4.0489,-4.0489,-4.0489,-4.0524,-4.0646,-4.1558,-4.252,-4.2676,-4.3634,-4.4615,-4.4615,-4.4615,0.0,-4.4615,-4.4615,-4.4615,0.0,0.0,0.0,0.0,0.0,0.0,0.0,0.0,0.0,0.0,0.0,0.0,0.0,0.0,0.0,-4.4964,-4.4964,-4.4964,-4.4964,-4.4964,-4.5235,-4.5814,-4.5848,-4.6072,-4.6557,-4.6727,-4.6794,-4.6763,-4.69,-4.6937,-4.6952,-4.7527,-4.772,-4.763,-4.8216,-4.8483,-4.8452,-4.8452,-4.842,-4.8388,-4.8244,-4.8082,-4.8001,-4.8001,-4.8001,-4.8001,-4.8001,-4.8001,-4.8001,-4.0489,0.0,0.0,0.0,0.0,0.0,0.0,0.0,0.0,0.0,-4.0489,-4.0489,-4.0489,-4.0489,-4.0489,-4.0489,-4.0489,-4.0489,-4.0489,-4.0489,-4.0489,-4.0489,-4.0802,-4.0836,-4.0489,-4.1492,0.0,0.0,0.0,0.0,0.0,0.0,0.0,0.0,0.0,0.0,0.0,0.0,-4.0802,-4.0489,-4.0489,0.0,-4.0489,-4.0489,-4.0489,-4.0489,-4.0489,-4.0489,-4.0489,-4.0489,-4.0489,0.0,-4.0489,-4.0489,-4.0489,-4.0489,-4.1459,-4.252,-4.252,-4.3545,0.0,-4.4615,-4.4615,0.0,0.0,-4.4615,-4.4615,0.0,0.0,0.0,0.0,0.0,0.0,0.0,0.0,0.0,0.0,0.0,0.0,0.0,0.0,0.0,-4.4615,-4.4615,-4.4615,-4.4615,-4.4615,-4.4767,-4.5128,-4.5145,-4.5269,-4.5537,-4.564,-4.5826,-4.611,-4.6215,-4.6401,-4.665,-4.7022,-4.7164,-4.7137,-4.7861,-4.8135,-4.8073,-4.8459,-4.8532,-4.8356,-4.8227,-4.8115,-4.8001,-4.8001,-4.8001,-4.8001,-4.8001,-4.8001,-4.8001,-4.0489,0.0,0.0,0.0,0.0,0.0,0.0,0.0,0.0,0.0,0.0,-4.0489,-4.0489,-4.0489,-4.0489,-4.0489,-4.0489,-4.0489,-4.0489,-4.0489,-4.0489,-4.0489,-4.1024,-4.1057,-4.0524,-4.1558,-4.1575,0.0,0.0,0.0,0.0,0.0,0.0,0.0,0.0,0.0,0.0,0.0,0.0,-4.0489,0.0,-4.0489,-4.0489,-4.0489,-4.0489,-4.0489,-4.0489,-4.0489,-4.0489,-4.0489,-4.0489,-4.0489,-4.0489,-4.0489,0.0,0.0,-4.136,-4.2332,0.0,0.0,0.0,0.0,0.0,-4.4615,0.0,0.0,0.0,0.0,0.0,0.0,0.0,0.0,0.0,0.0,0.0,0.0,0.0,0.0,0.0,0.0,0.0,0.0,0.0,-4.4542,-4.4542,-4.4542,-4.4542,-4.4542,-4.4542,-4.4542,-4.457,-4.4615,-4.4615,-4.4902,-4.5483,-4.55,-4.5788,-4.6363,-4.6515,-4.6583,-4.6599,-4.7361,-4.7592,-4.7487,-4.8141,-4.8322,-4.8155,-4.8107,-4.8111,-4.8131,-4.8033,-4.8001,-4.8001,-4.8001,-4.8001,-4.8001,-4.0489,-4.0489,0.0,0.0,0.0,0.0,0.0,0.0,0.0,0.0,0.0,0.0,-4.0489,-4.0489,-4.0489,-4.0489,-4.0489,-4.0489,-4.0489,-4.0489,-4.0489,-4.0489,-4.0558,-4.0593,-4.0489,-4.0646,-4.0646,0.0,0.0,0.0,0.0,0.0,0.0,0.0,-4.0593,0.0,0.0,0.0,-4.0489,0.0,-4.0489,-4.0489,0.0,-4.0489,-4.0489,-4.0489,-4.0489,-4.0489,-4.0489,0.0,-4.0489,-4.0489,0.0,-4.0489,-4.0489,-4.0489,0.0,0.0,0.0,0.0,0.0,0.0,-4.4615,0.0,0.0,0.0,-4.4615,-4.4615,0.0,0.0,0.0,0.0,0.0,0.0,0.0,0.0,0.0,0.0,0.0,0.0,0.0,0.0,0.0,-4.4338,-4.4338,-4.4338,-4.4338,-4.4338,-4.4338,-4.4338,-4.4412,-4.4598,-4.4615,-4.4649,-4.4733,-4.4733,-4.4784,-4.4869,-4.55,-4.5821,-4.5855,-4.6583,-4.6921,-4.6891,-4.6976,-4.7368,-4.7916,-4.7729,-4.8071,-4.8644,-4.8196,-4.8001,-4.8001,-4.8001,-4.8001,-4.8001,-4.0489,-4.0489,0.0,0.0,0.0,0.0,0.0,0.0,0.0,0.0,0.0,0.0,-4.0489,-4.0489,-4.0489,-4.0489,-4.0489,-4.0489,0.0,-4.0489,-4.0489,-4.0489,-4.0489,-4.0489,-4.0489,-4.0489,-4.0489,-4.0489,-4.0489,0.0,0.0,0.0,0.0,0.0,-4.0489,0.0,-4.0489,0.0,-4.0489,0.0,0.0,0.0,0.0,-4.0489,-4.0489,-4.0489,-4.0489,-4.0489,-4.0489,0.0,-4.0489,0.0,0.0,0.0,0.0,-4.0489,0.0,0.0,0.0,0.0,0.0,0.0,0.0,0.0,-4.4615,0.0,-4.4615,0.0,0.0,0.0,0.0,0.0,0.0,0.0,-4.4395,0.0,0.0,0.0,0.0,0.0,0.0,0.0,0.0,0.0,0.0,0.0,-4.4468,-4.4468,-4.4468,-4.4468,-4.4514,-4.4615,-4.4615,-4.4615,-4.4615,-4.4615,-4.4615,-4.4615,-4.4891,-4.5043,-4.5077,-4.5821,-4.616,-4.616,-4.616,-4.627,-4.6389,-4.5803,-4.5684,-4.5912,-4.6038,-4.6673,-4.75,-4.7404,-4.709,-4.6725,-4.0489,-4.0489,0.0,0.0,0.0,0.0,0.0,0.0,0.0,0.0,0.0,0.0,-4.0489,-4.0489,-4.0489,-4.0489,-4.0489,-4.0489,0.0,0.0,-4.0489,-4.0489,-4.0489,-4.0489,-4.0489,-4.0489,-4.0489,-4.0489,0.0,0.0,0.0,0.0,0.0,0.0,0.0,-4.0489,-4.0489,0.0,-4.0489,-4.0489,-4.0489,-4.0489,-4.0489,-4.0489,-4.0489,-4.0489,-4.0489,-4.0489,-4.0489,-4.0489,-4.0489,0.0,-4.0489,0.0,-4.0489,0.0,0.0,0.0,-4.2269,0.0,0.0,0.0,0.0,0.0,0.0,0.0,0.0,0.0,0.0,0.0,0.0,0.0,0.0,0.0,0.0,-4.3927,0.0,0.0,0.0,0.0,0.0,0.0,0.0,0.0,0.0,-4.4514,-4.4328,-4.4209,-4.4209,-4.4209,-4.4237,-4.4265,-4.4496,-4.4496,-4.4265,-4.4265,-4.4164,-4.3972,-4.3972,-4.3972,-4.4005,-4.4519,-4.4773,-4.4773,-4.4773,-4.4789,-4.4793,-4.4186,-4.3954,-4.4056,-4.4401,-4.5166,-4.6107,-4.6472,-4.6245,-4.5798,-4.0489,-4.0489,0.0,0.0,0.0,0.0,0.0,0.0,0.0,0.0,0.0,0.0,0.0,0.0,0.0,0.0,0.0,-4.0489,-4.0489,0.0,-4.0489,-4.0489,-4.0489,-4.0489,-4.0489,-4.0489,-4.0489,0.0,0.0,0.0,0.0,0.0,0.0,0.0,0.0,-4.0489,-4.0489,-4.0489,-4.0489,-4.0489,-4.0489,-4.0489,-4.0489,0.0,-4.0489,-4.0489,-4.0489,0.0,0.0,-4.0489,-4.0489,0.0,0.0,0.0,0.0,0.0,0.0,0.0,0.0,0.0,0.0,-4.4253,0.0,0.0,0.0,0.0,-4.4615,0.0,0.0,0.0,0.0,0.0,-4.4124,-4.2608,0.0,0.0,0.0,0.0,0.0,0.0,0.0,0.0,0.0,0.0,0.0,-4.431,-4.3654,-4.3222,-4.3222,-4.3222,-4.3305,-4.3426,-4.4181,-4.4215,-4.3443,-4.3426,-4.3081,-4.2354,-4.2354,-4.2354,-4.2354,-4.2388,-4.2405,-4.2405,-4.2405,-4.2811,-4.346,-4.3443,-4.3866,-4.4542,-4.4246,-4.3729,-4.3349,-4.5175,-4.5814,-4.5798,-4.0397,0.0,0.0,0.0,0.0,0.0,0.0,-4.0489,0.0,0.0,-4.0489,0.0,0.0,-4.0489,-4.0489,0.0,0.0,-4.0489,-4.0489,-4.0489,0.0,-4.0489,-4.0489,-4.0489,-4.0489,-4.0489,-4.0489,0.0,0.0,0.0,0.0,0.0,0.0,0.0,0.0,-4.0489,0.0,0.0,0.0,0.0,0.0,-4.0489,-4.0489,0.0,0.0,-4.0489,-4.0489,-4.0489,0.0,-4.0489,-4.0489,-4.0489,-4.0489,-4.0489,-4.0489,-4.0489,-4.0802,0.0,0.0,0.0,-4.3393,-4.4355,0.0,0.0,0.0,0.0,0.0,0.0,0.0,0.0,0.0,0.0,-4.347,-4.2455,-4.2506,0.0,0.0,0.0,0.0,0.0,0.0,0.0,0.0,0.0,0.0,-4.3709,-4.3017,-4.2594,-4.2594,-4.2594,-4.2621,-4.2675,-4.342,-4.369,-4.3392,-4.3392,-4.3257,-4.3031,-4.2523,-4.2286,-4.2286,-4.2286,-4.2286,-4.2269,-4.1779,-4.1711,-4.1888,-4.1319,-4.1189,-4.1396,-4.1682,-4.1577,-4.1477,-4.3028,-4.3313,-4.2899,-4.0043,0.0,0.0,0.0,0.0,0.0,0.0,0.0,0.0,0.0,-4.0489,0.0,-4.0489,0.0,-4.0489,0.0,-4.0489,-4.0489,-4.0489,-4.0489,0.0,-4.0489,-4.0489,-4.0489,-4.0489,-4.0489,-4.0489,0.0,0.0,-4.0489,0.0,0.0,0.0,0.0,0.0,-4.0489,-4.0489,0.0,-4.0489,0.0,0.0,-4.0489,0.0,0.0,-4.0489,-4.0489,0.0,-4.0489,-4.0489,-4.0489,-4.0489,-4.0489,-4.0489,-4.0489,-4.0489,-4.0489,-4.0802,-4.1309,-4.1949,-4.2645,0.0,-4.4047,-4.4412,0.0,-4.4615,0.0,-4.4615,0.0,0.0,0.0,0.0,0.0,0.0,-4.2066,-4.1914,-4.1644,0.0,-4.0417,0.0,0.0,0.0,0.0,0.0,0.0,-4.3014,-4.3014,-4.2337,-4.1914,0.0,0.0,-4.1914,-4.1914,-4.2625,-4.3014,-4.3014,-4.3014,-4.2895,-4.2625,-4.2134,-4.1762,-4.1534,-4.1534,-4.1534,-4.15,-4.1018,-4.0798,-4.0764,-4.0214,-3.9884,-3.9806,-4.0151,-4.0201,-4.0248,-4.1607,-4.1794,-4.1409,-3.9428,0.0,0.0,0.0,-4.0489,0.0,0.0,0.0,-4.0489,0.0,-4.0489,-4.0489,-4.0489,-4.0489,-4.0489,-4.0489,-4.0489,-4.0489,-4.0489,-4.0489,0.0,0.0,-4.0489,-4.0489,-4.0489,-4.0489,-4.0489,0.0,0.0,0.0,0.0,0.0,0.0,0.0,-4.0489,0.0,-4.0489,-4.0489,-4.0489,-4.0489,-4.0489,-4.0489,-4.0489,-4.0489,-4.0489,-4.0489,-4.0489,-4.0489,-4.0489,-4.0489,-4.0489,-4.0489,-4.0489,-4.0489,-4.0489,-4.0489,-4.0524,-4.0681,-4.1376,-4.2046,-4.2707,-4.3393,0.0,0.0,0.0,0.0,-4.4615,0.0,0.0,0.0,0.0,0.0,0.0,-4.139,-4.1153,-4.0899,0.0,0.0,0.0,0.0,0.0,0.0,0.0,-4.183,-4.2236,-4.2236,-4.1559,-4.1153,0.0,0.0,-4.1153,-4.1153,-4.1863,-4.2236,-4.2236,-4.2269,-4.1948,-4.1255,-4.1221,-4.0832,-4.0146,-4.013,-4.0096,-4.0096,-4.0096,-4.0096,-4.0096,-4.0096,-4.0011,-3.9901,-3.9755,-3.9616,-3.9641,-4.0868,-4.1309,-4.1309,-3.8677,-3.929,-3.9905,0.0,-4.0489,-4.0489,0.0,0.0,0.0,0.0,-4.0489,-4.0489,-4.0489,-4.0489,-4.0489,-4.0489,-4.0489,0.0,0.0,0.0,0.0,-4.0489,-4.0489,-4.0489,-4.0489,-4.0489,-4.0489,-4.0489,0.0,0.0,-4.0489,0.0,0.0,0.0,0.0,0.0,-4.0489,-4.0489,-4.0489,-4.0489,-4.0489,-4.0489,0.0,0.0,-4.0489,-4.0489,-4.0489,-4.0489,-4.0489,-4.0489,-4.0489,-4.0489,-4.0489,-4.0489,-4.0489,-4.0489,-4.0836,-4.1393,-4.2046,-4.2738,-4.3423,-4.415,-4.4468,-4.4615,0.0,0.0,0.0,0.0,0.0,0.0,0.0,0.0,0.0,0.0,-4.0383,-4.0333,0.0,0.0,0.0,-4.0096,0.0,-4.0595,-4.1153,-4.1373,-4.1474,-4.1474,-4.0798,0.0,0.0,0.0,0.0,-4.0383,-4.1102,-4.1474,-4.1474,-4.2016,-4.2202,-4.1999,-4.1457,-4.1102,-4.0899,-4.0367,-4.0096,-4.0096,-4.0096,-4.0096,-4.0096,-4.0096,-4.0011,-3.9901,-3.9875,-3.972,-3.9534,-3.9757,-3.9846,-3.9846,-3.8,0.0,0.0,-4.0382,0.0,0.0,-4.0489,-4.0489,0.0,-4.0489,-4.0489,0.0,-4.0489,-4.0489,-4.0489,-4.0489,-4.0489,0.0,-4.0489,0.0,0.0,-4.0489,-4.0489,-4.0489,-4.0489,-4.0489,-4.0489,-4.0489,0.0,0.0,-4.0489,0.0,0.0,0.0,0.0,-4.0489,0.0,-4.0489,-4.0489,-4.0489,-4.0489,0.0,0.0,-4.0489,-4.0489,-4.0489,-4.0489,-4.0489,-4.0489,-4.0489,-4.0489,-4.0489,-4.0489,-4.0489,-4.0489,-4.0489,-4.0956,-4.1591,-4.1949,-4.2769,-4.3601,-4.4018,-4.4367,-4.4615,-4.4615,-4.4615,-4.4615,0.0,-4.3961,-4.3156,0.0,0.0,0.0,0.0,0.0,0.0,0.0,0.0,0.0,0.0,-4.0096,-4.0265,-4.0679,-4.0713,-4.0713,-4.0713,-4.0333,0.0,0.0,0.0,0.0,-4.0096,-4.0493,-4.0865,-4.1204,-4.161,-4.1982,-4.2286,-4.1542,-4.1204,-4.117,-4.0451,-4.0096,-4.0096,-4.0096,-4.0096,-4.0096,-4.0096,-4.0011,-3.9901,-3.9849,-3.972,-3.959,-3.9494,-3.9405,-3.9299,-3.76,0.0,0.0,0.0,0.0,0.0,0.0,-4.0489,0.0,-4.0489,0.0,-4.0489,-4.0489,-4.0489,-4.0489,-4.0489,0.0,-4.0489,-4.0489,-4.0489,-4.0489,-4.0489,-4.0489,-4.0489,-4.0489,-4.0489,-4.0489,0.0,0.0,0.0,0.0,0.0,0.0,0.0,0.0,0.0,0.0,-4.0489,-4.0489,-4.0489,-4.0489,-4.0489,-4.0489,-4.0489,-4.0489,-4.0489,-4.0489,-4.0489,-4.0489,-4.0489,-4.0489,-4.0489,-4.0489,-4.0489,-4.0489,-4.0489,-4.0904,-4.1393,-4.1492,-4.2363,-4.3287,-4.3453,-4.3972,-4.4468,-4.457,-4.4615,-4.4581,-4.4479,-4.3809,-4.3047,0.0,0.0,0.0,0.0,0.0,0.0,0.0,0.0,0.0,0.0,0.0,0.0,-4.0096,-4.0096,-4.0096,-4.0096,0.0,0.0,0.0,0.0,0.0,-4.0096,-4.0096,-4.0417,-4.1052,0.0,-4.1525,-4.2151,-4.1593,-4.1288,-4.1187,-4.0527,-4.0197,-4.0096,-4.0096,-4.0096,-4.0096,-4.0096,-4.0037,-3.9926,-3.9781,-3.9729,-3.9729,-3.9703,-3.9547,-3.9352,-3.8123,0.0,0.0,0.0,0.0,-4.0489,-4.0489,-4.0489,-4.0489,-4.0489,-4.0489,-4.0489,-4.0489,-4.0489,-4.0489,-4.0489,-4.0489,0.0,0.0,0.0,0.0,-4.0489,-4.0489,-4.0489,-4.0489,-4.0489,-4.0489,0.0,0.0,0.0,0.0,0.0,0.0,0.0,0.0,0.0,-4.0489,-4.0489,0.0,-4.0489,-4.0489,-4.0489,-4.0489,-4.0489,-4.0489,-4.0489,-4.0489,-4.0489,-4.0489,-4.0489,-4.0489,-4.0489,-4.0489,-4.0489,-4.0489,-4.0489,-4.0593,-4.0817,-4.1343,-4.1673,-4.2109,-4.3227,-4.3617,-4.3839,-4.4468,-4.4615,-4.4401,-4.3758,-4.3014,-4.2269,-4.1525,0.0,0.0,0.0,0.0,0.0,0.0,0.0,0.0,0.0,0.0,-4.0096,0.0,-4.0096,0.0,0.0,0.0,0.0,0.0,0.0,0.0,0.0,-4.0096,0.0,0.0,0.0,-4.1271,-4.1407,-4.188,-4.1779,-4.1204,-4.1068,-4.0679,-4.0096,-4.0096,-4.0096,-4.0096,-4.0096,-4.0087,-4.0062,-3.991,-3.9858,-3.9833,-3.9729,-3.9677,-3.9625,0.0,0.0,0.0,0.0,0.0,0.0,0.0,-4.0489,-4.0489,-4.0489,-4.0489,-4.0489,-4.0489,-4.0489,-4.0489,-4.0489,-4.0489,-4.0489,-4.0489,-4.0489,-4.0489,-4.0489,-4.0489,-4.0489,-4.0489,-4.0489,-4.0489,-4.0489,0.0,0.0,0.0,0.0,0.0,0.0,0.0,-4.0489,0.0,0.0,0.0,-4.0489,-4.0489,-4.0489,-4.0489,-4.0489,-4.0489,-4.0489,-4.0489,-4.0489,-4.0489,-4.0489,-4.0489,-4.0489,-4.0489,-4.0489,-4.0489,-4.0489,-4.0749,-4.1176,-4.1836,-4.2269,-4.2769,-4.381,-4.4076,-4.4179,-4.4514,-4.4265,-4.3876,-4.3477,-4.2523,-4.1508,-4.0764,-4.035,0.0,0.0,0.0,0.0,0.0,0.0,-4.0096,0.0,0.0,0.0,0.0,0.0,0.0,0.0,0.0,0.0,0.0,0.0,0.0,0.0,0.0,0.0,0.0,0.0,0.0,-4.1204,-4.1559,-4.1745,-4.1762,-4.1373,-4.1018,-4.0646,-4.0282,-4.0096,-4.0096,-4.0096,-4.0096,-4.0096,-4.0037,-4.0011,-3.9986,-3.9935,-3.991,-3.9884,0.0,-3.9598,0.0,0.0,-4.0489,0.0,-4.0489,-4.0489,-4.0489,-4.0489,-4.0489,-4.0489,-4.0489,-4.0489,-4.0489,-4.0489,-4.0489,-4.0489,-4.0489,-4.0489,-4.0489,-4.0489,-4.0489,-4.0489,-4.0489,-4.0489,-4.0489,0.0,0.0,0.0,0.0,0.0,0.0,0.0,0.0,0.0,0.0,0.0,-4.0366,-4.0489,-4.0489,-4.0489,-4.0489,-4.0489,-4.0489,-4.0489,-4.0489,-4.0489,-4.0489,-4.0489,-4.0489,-4.0489,-4.0489,-4.0489,-4.0524,-4.0681,-4.1091,-4.1641,-4.2332,-4.2892,-4.3453,-4.4179,-4.4249,-4.4176,-4.4305,-4.3724,-4.3105,-4.2953,-4.1897,-4.0781,-4.0214,-4.0096,0.0,0.0,0.0,0.0,0.0,0.0,0.0,0.0,0.0,0.0,-4.0096,0.0,0.0,0.0,0.0,0.0,0.0,0.0,0.0,0.0,0.0,-4.0096,-4.0096,0.0,-4.0375,-4.0967,-4.1288,-4.166,-4.2049,-4.1627,-4.1356,-4.117,-4.0434,-4.0096,-4.0096,-4.0096,-4.0096,-4.0096,-4.0096,-4.0096,-4.0096,-4.0096,-4.0096,-4.007,0.0,0.0,0.0,0.0,0.0,0.0,-4.0489,-4.0489,-4.0489,-4.0489,-4.0489,-4.0489,-4.0489,-4.0489,-4.0489,-4.0489,-4.0489,-4.0489,-4.0489,-4.0489,-4.0489,-4.0489,-4.0489,-4.0489,-4.0489,-4.0489,-4.0489,0.0,0.0,-4.0182,0.0,0.0,0.0,0.0,0.0,0.0,0.0,-3.9582,-3.9936,-4.0489,-4.0489,-4.0489,-4.0489,-4.0489,-4.0489,-4.0489,-4.0489,-4.0489,-4.0489,-4.0489,-4.0489,-4.0489,-4.0489,-4.0489,-4.0612,-4.1243,-4.1459,-4.1641,-4.2332,-4.2552,-4.2769,-4.3423,-4.309,-4.277,-4.3367,-4.2946,-4.2202,-4.1542,-4.0747,-4.018,-4.0113,-4.0096,-4.0096,0.0,0.0,0.0,0.0,0.0,-4.0096,-4.0096,0.0,0.0,0.0,-4.0096,0.0,0.0,-3.9723,0.0,0.0,0.0,0.0,-4.0096,0.0,-4.0096,-4.0096,-4.0096,-4.013,-4.0231,-4.1542,-4.188,-4.1322,-4.1914,-4.183,-4.117,-4.0434,-4.0096,-4.0096,-4.0096,-4.0096,-4.0096,-4.0096,-4.0096,-4.0096,-4.0096,-4.0096,-4.0113,0.0,0.0,0.0,0.0,0.0,0.0,0.0,-4.0489,-4.0489,-4.0489,-4.0489,-4.0489,-4.0489,-4.0489,-4.0489,-4.0489,-4.0489,-4.0489,-4.0489,-4.0489,-4.0489,-4.0489,-4.0489,-4.0489,-4.0489,-4.0489,-4.0489,0.0,0.0,0.0,0.0,0.0,0.0,0.0,0.0,-3.8662,-3.8939,-3.9339,-3.9644,-3.992,-4.0336,-4.0489,-4.0489,-4.0489,-4.0489,-4.0489,-4.0489,-4.0489,-4.0489,-4.0489,-4.0489,-4.0489,-4.0489,-4.0489,-4.0558,-4.0802,-4.0904,-4.1031,-4.1675,-4.1827,-4.2006,-4.2622,-4.2573,-4.241,-4.2689,-4.2168,-4.1559,-4.1271,-4.0595,-4.0096,-4.0096,-4.0096,-4.0096,-4.0096,0.0,0.0,0.0,0.0,0.0,-4.0096,0.0,-3.9943,0.0,0.0,0.0,0.0,0.0,0.0,0.0,0.0,0.0,-4.0096,0.0,-4.0096,-4.0096,-4.0096,-4.0096,-4.0113,-4.1136,-4.1711,-4.1863,-4.1711,-4.1238,-4.051,-4.0231,-4.0096,-4.0096,-4.0096,-3.9893,-3.9618,-3.9969,-3.9876,-3.9601,-3.9969,-4.0096,-4.0096,-4.0489,0.0,-4.0489,0.0,-4.0489,-4.0489,-4.0489,-4.0489,-4.0489,-4.0489,-4.0489,-4.0489,-4.0489,-4.0489,-4.0489,-4.0489,-4.0489,-4.0489,-4.0489,-4.0489,-4.0489,-4.0489,-4.0489,0.0,-4.0489,-4.0489,-4.0489,-4.0489,-4.0489,0.0,0.0,0.0,0.0,0.0,-3.7923,-3.8031,-3.8246,-3.8723,-3.9046,-3.9228,-3.9705,-3.9905,-3.9905,-3.9905,-3.9905,-3.9905,-3.9905,-3.9905,-3.9905,-3.9905,-4.0026,-4.0176,-4.0189,-4.0059,-3.9992,-4.0364,-4.0464,-4.0635,-4.1457,-4.1668,-4.1758,-4.2189,-4.2134,-4.1965,-4.1965,-4.1407,-4.0882,-4.0882,-4.0468,-4.0096,-4.0096,-4.0096,-4.0096,-4.0096,0.0,0.0,0.0,-4.0096,0.0,-3.9808,-3.9791,-3.9503,-3.8751,-3.8667,0.0,0.0,0.0,0.0,0.0,0.0,0.0,0.0,0.0,0.0,0.0,-4.0096,-4.0096,-4.0113,-4.0849,-4.1593,-4.2269,-4.1762,-4.1119,-4.0417,-4.0197,-4.0096,-4.0096,-4.0096,-3.985,-3.9497,-3.9944,-3.9825,-3.954,-3.9927,-4.0096,-4.0096,-4.0489,-4.0489,-4.0489,-4.0489,-4.0489,-4.0489,-4.0489,-4.0489,-4.0489,-4.0489,-4.0489,-4.0489,-4.0489,-4.0489,-4.0489,-4.0489,-4.0489,-4.0489,-4.0489,-4.0489,-4.0489,0.0,0.0,-4.0489,-4.0489,-4.0489,-4.0489,-4.0489,0.0,0.0,-3.8492,0.0,-3.6522,-3.6507,-3.6507,-3.6892,-3.7507,-3.7523,-3.7923,-3.8523,-3.8539,-3.8539,-3.8539,-3.8539,-3.8539,-3.8539,-3.8539,-3.8539,-3.8539,-3.8539,-3.8899,-3.9424,-3.9493,-3.9077,-3.8769,-4.0027,-4.0388,-4.0684,-4.1963,-4.2303,-4.2303,-4.2286,-4.1745,-4.1221,-4.1221,-4.0629,-4.0113,-4.0113,-4.0113,-4.0096,-4.0096,-4.0096,-4.0096,-4.0096,0.0,0.0,0.0,-4.0096,0.0,-3.9089,-3.9005,-3.8717,-3.799,-3.7922,0.0,0.0,0.0,0.0,0.0,0.0,0.0,-3.8988,-3.9005,0.0,-4.0096,-4.0096,-4.0096,-4.0113,-4.0849,-4.1593,-4.2286,-4.2286,-4.188,-4.1153,-4.0434,-4.0096,-4.0096,-4.0096,-4.0113,-4.007,-4.0096,-4.0113,-4.007,-4.0096,-4.0096,-4.0096,-4.0489,-4.0489,-4.0489,-4.0489,-4.0489,-4.0489,-4.0489,-4.0489,-4.0489,-4.0489,-4.0489,-4.0489,-4.0489,-4.0489,-4.0489,0.0,-4.0489,-4.0489,0.0,-4.0489,-4.0489,-4.0489,-4.0489,-4.0489,-4.0489,-4.0489,-4.0489,-4.0489,0.0,0.0,0.0,-3.7123,-3.6492,-3.6492,-3.6492,-3.6615,-3.6846,-3.7307,-3.7631,-3.7861,-3.8323,-3.8508,-3.8508,-3.8508,-3.8508,-3.8541,-3.898,-3.9124,-3.9172,-3.958,-3.9553,-3.9335,-3.9365,-3.9512,-3.9811,-4.019,-4.0326,-4.042,-4.0774,-4.0877,-4.0842,-4.0822,-4.0637,-4.0468,-4.0468,-4.0282,-4.0096,-4.0096,-4.0096,-4.0096,-4.0096,-4.0096,-4.0096,-4.0096,-4.0096,0.0,-4.0096,0.0,-3.9242,-3.9022,-3.8565,-3.7956,-3.7212,-3.7168,0.0,0.0,0.0,0.0,0.0,0.0,0.0,0.0,-3.8734,0.0,-3.9368,-3.9859,-4.0096,-4.0096,-4.035,-4.0832,-4.1576,-4.2066,-4.1897,-4.117,-4.0434,-4.0096,-4.0096,-4.0096,-3.9867,-3.9523,-3.9944,-3.985,-3.954,-3.9944,-4.0096,-4.0096,-4.0489,-4.0489,-4.0489,-4.0489,-4.0489,-4.0489,-4.0489,-4.0489,-4.0489,-4.0489,-4.0489,-4.0489,-4.0489,-4.0489,0.0,-4.0489,-4.0489,-4.0489,-4.0489,-4.0489,-4.0489,-4.0489,-4.0489,-4.0489,-4.0489,-4.0489,0.0,-4.0489,-3.9982,-3.9305,-3.8477,-3.7123,-3.6492,-3.6492,-3.6492,-3.6492,-3.6522,-3.6953,-3.7123,-3.7153,-3.7584,-3.7754,-3.7754,-3.7754,-3.7754,-3.7802,-3.8184,-3.8294,-3.8404,-3.9015,-3.9082,-3.8971,-3.917,-3.9722,-4.0179,-3.9952,-3.9883,-3.9927,-4.0109,-4.0154,-4.016,-4.0113,-4.0096,-4.0096,-4.0096,-4.0096,-4.0096,-4.0096,-4.0096,-4.0096,-4.0096,-4.0096,-4.0096,-4.0096,-3.9876,-3.969,-3.969,0.0,-3.8481,0.0,0.0,0.0,0.0,-3.6349,-3.6146,0.0,0.0,0.0,0.0,0.0,0.0,-3.7449,-3.7922,0.0,-3.8988,-3.9469,-3.9842,-4.0113,-4.0671,-4.1153,-4.1627,-4.2083,-4.2049,-4.1559,-4.0553,-4.0096,-4.0096,-4.0096,-3.9893,-3.9592,-3.9944,-3.9867,-3.9575,-3.9969,-4.0096,-4.007,-4.0489,-4.0489,-4.0489,0.0,-4.0489,0.0,-4.0489,-4.0489,-4.0489,-4.0489,-4.0489,-4.0489,-4.0489,-4.0489,-4.0489,-4.0489,0.0,0.0,0.0,-4.0489,-4.0489,-4.0489,-4.0489,-4.0489,-4.0489,-4.0489,-4.0489,-4.0489,-3.9136,-3.8508,-3.8477,-3.7123,-3.6492,-3.6492,-3.6492,-3.6492,-3.6492,-3.6492,-3.6492,-3.6492,-3.6492,-3.6492,-3.6492,-3.6492,-3.6492,-3.6523,-3.66,-3.6631,-3.6723,-3.7371,-3.7953,-3.8502,-3.9082,-3.9644,-3.9995,-3.9418,-3.9259,-3.9391,-3.9944,-4.0096,-4.0096,-4.0096,-4.0096,-4.0096,-4.0096,-4.0096,-4.0096,-4.0096,-4.0096,-4.0096,-4.0096,-4.0062,-4.0028,-4.0028,-3.9394,-3.892,-3.892,-3.8294,-3.7567,0.0,0.0,0.0,0.0,-3.56,-3.56,0.0,0.0,0.0,0.0,0.0,-3.5943,-3.6694,-3.6778,-3.7472,-3.8819,-3.8886,-3.9276,-4.0045,-4.1534,-4.2236,-4.2286,-4.2286,-4.2286,-4.2202,-4.0756,-4.0096,-4.0096,-4.0096,-4.0096,-4.0096,-4.0096,-4.0096,-4.0096,-4.0045,-4.0045,-3.9969,0.0,0.0,-4.0489,-4.0489,-4.0489,-4.0489,-4.0489,-4.0489,-4.0489,-4.0489,-4.0489,-4.0489,-4.0489,-4.0489,-4.0489,-4.0489,-4.0489,-4.0489,-4.0489,-4.0489,-4.0489,-4.0489,-4.0489,-4.0489,-4.0489,-4.0489,-4.0489,-4.0489,-3.9136,-3.8508,-3.8477,-3.7123,-3.6492,-3.6492,-3.6492,-3.6492,-3.6492,-3.6492,-3.6492,-3.6492,-3.6492,-3.6492,-3.6492,-3.6492,-3.6492,-3.6631,-3.7533,-3.7867,-3.8039,-3.9092,-3.9549,-3.9705,-3.9825,-3.9995,-4.007,-3.9944,-3.9893,-3.9918,-4.0045,-4.0096,-4.0096,-4.0096,-4.0096,-4.0096,-4.0096,-4.0096,-4.0096,-4.0096,-4.0096,-4.0096,-4.0096,-3.9656,-3.9242,-3.9242,-3.8633,-3.8159,-3.8159,-3.7516,-3.6998,0.0,-3.6265,-3.5825,-3.5616,-3.56,-3.56,0.0,0.0,0.0,0.0,-3.56,-3.5684,-3.5893,-3.6468,-3.6981,-3.732,-3.7872,-3.8531,-3.9276,-4.0764,-4.1762,-4.2286,-4.2286,-4.2286,-4.2202,-4.0756,-4.0096,-4.0096,-4.0096,-4.0096,-4.0096,-4.0096,-4.0096,-4.0045,-3.9575,-3.9418,-3.9391,-4.0489,-4.0489,-4.0489,-4.0489,-4.0489,-4.0489,-4.0489,-4.0489,-4.0489,-4.0489,-4.0489,-4.0489,-4.0489,-4.0489,-4.0489,-4.0489,-4.0489,-4.0489,-4.0489,-4.0489,-4.0489,-4.0489,-4.0489,-4.0489,-4.0489,-4.0489,-4.0489,-4.0489,-3.9136,-3.8508,-3.8477,-3.7123,-3.6492,-3.6492,-3.6492,-3.6492,-3.6492,-3.6492,-3.6492,-3.6492,-3.6492,-3.6492,-3.6492,-3.6492,-3.6492,-3.6585,-3.7252,-3.765,-3.8039,-3.8957,-3.947,-3.9747,-4.002,-4.0096,-4.0096,-4.0096,-4.0096,-4.0096,-4.0096,-4.0096,-4.0096,-4.0096,-4.0096,-4.0096,-4.0096,-4.0096,-4.0096,-4.0096,-4.0096,-3.9994,-3.9673,-3.9259,-3.8886,-3.8548,-3.7872,-3.7398,-3.7398,-3.6738,0.0,-3.6248,-3.5876,-3.56,-3.56,-3.56,-3.56,-3.56,-3.56,0.0,-3.56,-3.56,-3.56,-3.56,-3.6028,-3.6417,-3.6795,-3.7533,-3.8108,-3.8514,-4.0003,-4.0916,-4.1322,-4.1644,-4.1796,-4.1728,-4.0603,-4.0096,-4.0096,-4.0096,-3.9944,-3.9696,-3.9696,-3.9523,-3.9269,-3.9232,-3.9206,-3.9152,-4.0489,-4.0489,-4.0489,-4.0489,-4.0489,-4.0489,-4.0489,-4.0489,-4.0489,-4.0489,-4.0489,-4.0489,-4.0489,-4.0489,-4.0489,-4.0489,-4.0489,-4.0489,-4.0489,-4.0489,-4.0489,-4.0489,-4.0489,-4.0489,-4.0489,-4.0489,-4.0443,-4.0336,-3.9123,-3.8462,-3.8323,-3.7076,-3.6492,-3.6492,-3.6492,-3.6492,-3.6492,-3.6492,-3.6492,-3.6492,-3.6492,-3.6492,-3.6523,-3.66,-3.6631,-3.6662,-3.6831,-3.7238,-3.7767,-3.8379,-3.8903,-3.9418,-3.9944,-4.0096,-4.0096,-4.0096,-4.0096,-4.0096,-4.0096,-4.0096,-4.0096,-4.0096,-4.0096,-4.0096,-4.0096,-4.0011,-3.9943,-3.9943,-3.9859,-3.9588,-3.8937,-3.8734,-3.8447,-3.7838,-3.711,-3.6626,-3.6626,0.0,-3.56,-3.56,-3.56,-3.56,-3.56,-3.56,-3.56,-3.56,-3.56,-3.56,-3.56,-3.56,-3.56,-3.56,-3.56,-3.5943,-3.6626,-3.7246,-3.7618,-3.7753,-3.9116,-3.9876,-4.0113,-4.0764,-4.1102,-4.1153,-4.0315,-3.9969,-3.9969,-3.9876,-3.9523,-3.9082,-3.9162,-3.8821,-3.8362,-3.8892,-3.9001,-3.8865,-4.0489,-4.0489,-4.0489,-4.0489,-4.0489,-4.0489,-4.0489,-4.0489,-4.0489,-4.0489,-4.0489,-4.0489,-4.0489,-4.0489,-4.0489,-4.0489,-4.0489,-4.0489,-4.0489,-4.0489,-4.0489,-4.0489,-4.0489,-4.0489,-4.0489,-4.0489,-4.0213,-3.9677,-3.8893,-3.8215,-3.7646,-3.6861,-3.6492,-3.6492,-3.6492,-3.6492,-3.6492,-3.6492,-3.6492,-3.6492,-3.6492,-3.6492,-3.6554,-3.7074,-3.7268,-3.7371,-3.8423,-3.8838,-3.9001,-3.9601,-3.9876,-3.9969,-4.007,-4.0096,-4.0096,-4.0096,-4.0096,-4.0096,-4.0096,-4.0096,-4.0096,-4.0096,-4.0096,-4.0096,-4.0096,-3.9622,-3.9157,-3.9157,-3.8667,-3.821,-3.8091,-3.755,-3.71,-3.6998,-3.6299,-3.5785,-3.5785,0.0,-3.56,-3.56,-3.56,-3.56,-3.56,-3.56,-3.56,-3.56,-3.56,-3.56,-3.56,-3.56,-3.56,-3.56,-3.56,-3.565,-3.5785,-3.5904,-3.6299,-3.6998,-3.7838,-3.8886,-4.0113,-4.0223,-4.0603,-4.1144,-3.9883,-3.9339,-3.9312,-3.8794,-3.8502,-3.849,-3.9001,-3.8821,-3.8306,-3.8407,-3.8124,-3.7666,-4.0489,-4.0489,-4.0489,-4.0489,-4.0489,-4.0489,-4.0489,-4.0489,-4.0489,-4.0489,-4.0489,-4.0489,-4.0489,-4.0489,-4.0489,-4.0489,-4.0489,-4.0489,-4.0489,-4.0489,-4.0489,-4.0489,-4.0489,-4.0489,-4.0489,-4.0136,-3.9797,-3.949,-3.8477,-3.78,-3.7492,-3.6799,-3.6492,-3.6492,-3.6492,-3.6492,-3.6523,-3.6846,-3.6983,-3.7013,-3.7342,-3.7474,-3.7504,-3.7796,-3.7867,-3.7969,-3.8518,-3.892,-3.9259,-3.9523,-3.9825,-4.0096,-4.0096,-4.0096,-4.0028,-3.9622,-3.9791,-4.0011,-3.9622,-3.952,-3.9419,-3.9005,-3.8903,-3.8903,-3.8903,-3.865,-3.8413,-3.8413,-3.8142,-3.7787,-3.7381,-3.7032,-3.666,-3.6214,-3.5836,0.0,0.0,-3.56,-3.56,-3.56,-3.56,-3.56,-3.56,-3.56,-3.56,-3.56,-3.56,-3.56,-3.56,-3.56,-3.56,-3.56,-3.56,-3.56,-3.56,-3.56,-3.5785,-3.6163,-3.6941,-3.7694,-3.8447,-3.8848,-3.9434,-4.0077,-3.9462,-3.9206,-3.9179,-3.892,-3.8407,-3.7854,-3.8112,-3.7854,-3.7371,-3.7709,-3.7637,-3.7417,-4.0489,-4.0489,-4.0489,-4.0489,-4.0489,-4.0489,-4.0489,-4.0489,-4.0489,-4.0489,-4.0489,-4.0489,-4.0489,-4.0489,-4.0489,-4.0489,-4.0489,-4.0428,-4.0274,-4.0259,-4.0336,-4.0489,-4.0336,-4.0182,-4.0028,-3.9521,-3.92,-3.9046,-3.8,-3.7415,-3.7261,-3.6738,-3.6569,-3.6723,-3.6723,-3.6785,-3.6937,-3.7401,-3.7608,-3.765,-3.8124,-3.8306,-3.8322,-3.8463,-3.8518,-3.8546,-3.8684,-3.9028,-3.9418,-3.9418,-3.9604,-3.9842,-3.9842,-3.974,-3.9486,-3.8903,-3.914,-3.9486,-3.8886,-3.8734,-3.8616,-3.8041,-3.7905,-3.7905,-3.7905,-3.777,-3.7652,-3.7652,-3.7499,-3.7195,-3.662,-3.6502,-3.6315,-3.5701,0.0,0.0,0.0,-3.56,-3.56,-3.56,-3.56,-3.56,-3.56,-3.56,-3.56,-3.56,-3.56,-3.56,-3.56,-3.56,-3.56,-3.56,-3.56,-3.56,-3.56,-3.56,-3.56,-3.56,-3.6231,-3.6663,-3.697,-3.7727,-3.8391,-3.8957,-3.8989,-3.892,-3.8783,-3.8645,-3.8026,-3.7208,-3.7358,-3.7134,-3.6785,-3.7371,-3.7608,-3.7608,-4.0489,-4.0489,-4.0489,-4.0489,-4.0489,-4.0489,-4.0489,-4.0489,-4.0489,-4.0489,-4.0489,-4.0489,-4.0489,-4.0489,-4.0489,-4.0489,-4.0489,-4.0228,-3.9598,-3.9551,-3.9844,-4.0459,-3.989,-3.9259,-3.8677,-3.8616,-3.8277,-3.7646,-3.7554,-3.7184,-3.6569,-3.6507,-3.6816,-3.7328,-3.7328,-3.765,-3.8165,-3.8193,-3.8222,-3.8238,-3.8278,-3.8306,-3.8362,-3.892,-3.9109,-3.9206,-3.9773,-3.9995,-4.002,-4.002,-3.9606,-3.9073,-3.9073,-3.8616,-3.8058,-3.8007,-3.8024,-3.8058,-3.8007,-3.799,-3.7973,-3.7922,-3.7905,-3.7905,-3.7905,-3.7364,-3.688,-3.688,-3.6299,-3.5752,-3.5701,-3.5684,-3.5667,-3.56,0.0,0.0,-3.56,-3.56,-3.56,-3.56,-3.56,-3.56,-3.56,-3.56,-3.56,-3.56,-3.56,-3.56,-3.56,-3.56,-3.56,-3.56,-3.56,-3.56,-3.56,-3.56,-3.56,-3.56,-3.565,-3.609,-3.6827,-3.7587,-3.8003,-3.8186,-3.8308,-3.8039,-3.749,-3.6922,-3.6662,-3.6631,-3.7178,-3.7387,-3.7417,-3.801,-3.8222,-3.8222,-4.0489,-4.0489,-4.0489,-4.0489,-4.0489,-4.0489,-4.0489,-4.0489,-4.0489,-4.0489,-4.0489,-4.0489,-4.0489,-4.0489,-4.032,-3.9905,-3.9859,-3.9582,-3.8939,-3.8893,-3.9,-3.9228,-3.9031,-3.8769,-3.8523,-3.8092,-3.7754,-3.7507,-3.7076,-3.6738,-3.6492,-3.6492,-3.6631,-3.6831,-3.6831,-3.6983,-3.7193,-3.7562,-3.7953,-3.8334,-3.8712,-3.9082,-3.9428,-3.967,-3.9747,-3.9773,-4.002,-4.0096,-4.0028,-3.9571,-3.9225,-3.892,-3.8464,-3.8125,-3.7821,-3.7347,-3.6857,-3.6462,-3.6462,-3.684,-3.7094,-3.6597,-3.6462,-3.6462,-3.6462,-3.6265,-3.6062,-3.6062,-3.5802,-3.56,-3.56,-3.56,-3.56,-3.56,0.0,-3.56,-3.56,-3.56,-3.56,-3.56,-3.56,-3.56,-3.56,-3.56,-3.56,-3.56,-3.56,-3.56,-3.56,-3.56,-3.56,-3.56,-3.56,-3.56,-3.56,-3.56,-3.56,-3.56,-3.56,-3.5828,-3.626,-3.6519,-3.6746,-3.6947,-3.7421,-3.7283,-3.6801,-3.6976,-3.6831,-3.6554,-3.7148,-3.7417,-3.746,-3.8067,-3.8306,-3.8266,-4.0182,-4.0351,-4.0489,-4.0489,-4.0489,-4.0489,-4.0489,-4.0489,-4.0489,-4.0489,-4.0489,-4.0413,-4.0197,-4.0182,-3.9939,-3.9344,-3.92,-3.8956,-3.8376,-3.8161,-3.8081,-3.8185,-3.82,-3.8092,-3.7877,-3.7415,-3.7184,-3.7184,-3.6722,-3.6492,-3.6492,-3.6492,-3.6693,-3.7058,-3.7058,-3.7282,-3.765,-3.8067,-3.849,-3.8903,-3.9339,-3.9722,-4.0096,-4.0096,-4.0096,-4.0096,-4.0096,-3.996,-3.969,-3.9157,-3.8684,-3.821,-3.7702,-3.7381,-3.7094,-3.6569,-3.6045,-3.56,-3.56,-3.6011,-3.6282,-3.5735,-3.56,-3.56,-3.56,-3.56,-3.56,-3.56,-3.56,-3.56,-3.56,-3.56,-3.56,-3.56,-3.56,-3.56,-3.56,-3.56,-3.56,-3.56,-3.56,-3.56,-3.56,-3.56,-3.56,-3.56,-3.56,-3.56,-3.56,-3.56,-3.56,-3.56,-3.56,-3.56,-3.56,-3.56,-3.56,-3.56,-3.5424,-3.5422,-3.5555,-3.5638,-3.5629,-3.5616,-3.6486,-3.6561,-3.6118,-3.6721,-3.6753,-3.6416,-3.684,-3.7112,-3.7311,-3.7547,-3.7768,-3.7851,-3.9508,-4.0013,-4.0474,-4.0474,-4.0474,-4.0474,-4.0474,-4.0474,-4.0474,-4.0474,-4.0474,-4.0213,-3.9585,-3.9508,-3.9313,-3.8829,-3.8606,-3.8345,-3.7997,-3.7358,-3.7157,-3.7461,-3.7492,-3.7169,-3.6507,-3.6492,-3.6492,-3.6492,-3.6492,-3.6492,-3.6492,-3.6523,-3.7133,-3.8294,-3.8278,-3.8957,-4.007,-4.007,-4.007,-4.0113,-4.0096,-4.0096,-4.0096,-4.0096,-4.0096,-4.0096,-4.0096,-3.9622,-3.8988,-3.8988,-3.8007,-3.6795,-3.6795,-3.6231,-3.56,-3.56,-3.56,-3.56,-3.56,-3.56,-3.56,-3.56,-3.56,-3.56,-3.56,-3.56,-3.56,-3.56,-3.56,-3.56,-3.56,-3.56,-3.56,-3.56,-3.56,-3.56,-3.56,-3.56,-3.56,-3.56,-3.56,-3.56,-3.56,-3.56,-3.56,-3.56,-3.56,-3.56,-3.56,-3.56,-3.56,-3.56,-3.56,-3.56,-3.56,-3.56,-3.56,-3.56,-3.5045,-3.4809,-3.4826,-3.5076,-3.4844,-3.4284,-3.561,-3.5867,-3.5343,-3.5878,-3.6093,-3.6093,-3.6093,-3.6463,-3.6934,-3.6401,-3.66,-3.7094,-3.9161,-3.9316,-3.9456,-3.9456,-3.9456,-3.9456,-3.9456,-3.9456,-3.9456,-3.9456,-3.9456,-3.9379,-3.9177,-3.9161,-3.8897,-3.8308,-3.8167,-3.7919,-3.7327,-3.7124,-3.7032,-3.7142,-3.7157,-3.7064,-3.6847,-3.6847,-3.6847,-3.6847,-3.6847,-3.677,-3.6662,-3.7177,-3.7326,-3.7193,-3.7722,-3.8149,-3.8502,-3.8502,-3.8968,-3.974,-3.9636,-3.9876,-4.0238,-4.0138,-4.0096,-4.0028,-3.952,-3.9174,-3.8836,-3.7811,-3.7168,-3.6711,-3.6146,-3.5785,-3.56,-3.56,-3.56,-3.56,-3.56,-3.56,-3.56,-3.56,-3.56,-3.56,-3.56,-3.56,-3.56,-3.56,-3.56,-3.56,-3.56,-3.56,-3.56,-3.56,-3.56,-3.56,-3.56,-3.56,-3.56,-3.56,-3.56,-3.56,-3.56,-3.56,-3.56,-3.56,-3.56,-3.56,-3.56,-3.56,-3.56,-3.56,-3.56,-3.56,-3.56,-3.56,-3.56,-3.56,-3.5447,-3.5356,-3.5356,-3.5435,-3.5171,-3.4676,-3.5595,-3.5652,-3.5129,-3.583,-3.5878,-3.5593,-3.5986,-3.6056,-3.5948,-3.66,-3.6951,-3.7027,-3.8621,-3.8824,-3.9011,-3.9011,-3.9011,-3.9011,-3.9011,-3.9011,-3.9011,-3.9011,-3.9011,-3.8902,-3.8637,-3.8621,-3.8341,-3.7732,-3.7762,-3.7589,-3.7106,-3.7151,-3.7211,-3.7211,-3.7211,-3.7136,-3.7015,-3.7015,-3.7015,-3.7015,-3.7015,-3.6938,-3.6831,-3.7268,-3.749,-3.7504,-3.7966,-3.843,-3.887,-3.887,-3.9289,-3.9961,-3.9868,-4.0028,-4.0288,-4.0213,-3.9977,-3.9622,-3.9157,-3.8616,-3.7973,-3.71,-3.6592,-3.6231,-3.5752,-3.56,-3.56,-3.56,-3.56,-3.56,-3.56,-3.56,-3.56,-3.56,-3.56,-3.56,-3.56,-3.56,-3.56,-3.56,-3.56,-3.56,-3.56,-3.56,-3.56,-3.56,-3.56,-3.56,-3.56,-3.56,-3.56,-3.56,-3.56,-3.56,-3.56,-3.56,-3.56,-3.56,-3.56,-3.56,-3.56,-3.56,-3.56,-3.56,-3.56,-3.56,-3.56,-3.56,-3.56,-3.56,-3.5362,-3.527,-3.527,-3.5068,-3.4793,-3.4521,-3.5168,-3.5128,-3.4649,-3.5317,-3.5393,-3.5148,-3.5512,-3.5563,-3.5554,-3.6009,-3.6051,-3.5809,-3.7982,-3.845,-3.8856,-3.8856,-3.8856,-3.8856,-3.8856,-3.8856,-3.8856,-3.8856,-3.8856,-3.8622,-3.8029,-3.7982,-3.7763,-3.7287,-3.7405,-3.7435,-3.7254,-3.7405,-3.751,-3.751,-3.751,-3.7391,-3.7105,-3.706,-3.703,-3.703,-3.709,-3.7121,-3.709,-3.7225,-3.7799,-3.8723,-3.8778,-3.9437,-4.0444,-4.0444,-4.0468,-4.0534,-4.0493,-4.0412,-4.0288,-4.0195,-3.9679,-3.8971,-3.8836,-3.7946,-3.6795,-3.6728,-3.6214,-3.56,-3.56,-3.56,-3.56,-3.56,-3.56,-3.56,-3.56,-3.56,-3.56,-3.56,-3.56,-3.56,-3.56,-3.56,-3.56,-3.56,-3.56,-3.56,-3.56,-3.56,-3.56,-3.56,-3.56,-3.56,-3.56,-3.56,-3.56,-3.56,-3.5622,-3.5622,-3.56,-3.5622,-3.5622,-3.5644,-3.5644,-3.5644,-3.5644,-3.5644,-3.5644,-3.5644,-3.5644,-3.5622,-3.5622,-3.5622,-3.5622,-3.56,-3.5091,-3.488,-3.484,-3.4382,-3.4136,-3.4111,-3.4649,-3.4577,-3.4111,-3.4649,-3.4857,-3.4809,-3.4761,-3.4998,-3.5316,-3.4857,-3.4358,-3.3935,-3.7612,-3.7738,-3.7832,-3.7832,-3.7832,-3.7832,-3.7832,-3.7832,-3.7832,-3.7832,-3.7832,-3.7769,-3.7627,-3.7612,-3.7548,-3.745,-3.748,-3.748,-3.7435,-3.748,-3.751,-3.751,-3.751,-3.7655,-3.8026,-3.7626,-3.7391,-3.7391,-3.7828,-3.7969,-3.7886,-3.8887,-3.9166,-3.8897,-3.9456,-3.9876,-4.012,-4.012,-4.0328,-4.0648,-4.0534,-4.0412,-4.0237,-3.9536,-3.9148,-3.8836,-3.7692,-3.7083,-3.6711,-3.6079,-3.5735,-3.56,-3.56,-3.56,-3.56,-3.56,-3.56,-3.56,-3.56,-3.56,-3.56,-3.56,-3.56,-3.56,-3.56,-3.56,-3.56,-3.56,-3.56,-3.56,-3.56,-3.56,-3.56,-3.56,-3.56,-3.56,-3.56,-3.56,-3.56,-3.56,-3.5689,-3.5728,-3.5622,-3.5689,-3.5817,-3.591,-3.591,-3.591,-3.591,-3.591,-3.591,-3.591,-3.591,-3.5866,-3.5773,-3.5751,-3.5689,-3.56,-3.547,-3.5424,-3.5424,-3.5293,-3.5021,-3.4649,-3.5201,-3.5131,-3.4673,-3.5201,-3.5178,-3.4745,-3.4333,-3.3995,-3.37,-3.3598,-3.3469,-3.3417,-3.751,-3.751,-3.751,-3.751,-3.751,-3.751,-3.751,-3.751,-3.751,-3.751,-3.751,-3.751,-3.751,-3.751,-3.751,-3.751,-3.751,-3.751,-3.751,-3.7727,-3.7886,-3.7886,-3.8173,-3.8439,-3.8712,-3.8467,-3.8315,-3.8315,-3.859,-3.8684,-3.8634,-3.9322,-3.9568,-3.9456,-3.9834,-4.017,-4.0434,-4.0434,-4.0566,-4.0793,-4.0728,-4.0384,-3.988,-3.9399,-3.8724,-3.7916,-3.7119,-3.6581,-3.6163,-3.5735,-3.56,-3.56,-3.56,-3.56,-3.56,-3.56,-3.56,-3.56,-3.56,-3.56,-3.56,-3.56,-3.56,-3.56,-3.56,-3.56,-3.56,-3.56,-3.56,-3.56,-3.56,-3.56,-3.56,-3.56,-3.5644,-3.5706,-3.5706,-3.5756,-3.58,-3.58,-3.5795,-3.5751,-3.5622,-3.5667,-3.5734,-3.58,-3.5822,-3.5822,-3.5822,-3.5822,-3.5822,-3.5822,-3.5822,-3.5778,-3.5706,-3.5689,-3.5667,-3.56,-3.56,-3.56,-3.56,-3.56,-3.5447,-3.5201,-3.547,-3.5155,-3.4431,-3.4721,-3.4512,-3.4028,-3.3995,-3.3995,-3.3978,-3.4252,-3.4178,-3.3953,-3.751,-3.751,-3.751,-3.751,-3.751,-3.751,-3.751,-3.751,-3.751,-3.751,-3.751,-3.751,-3.751,-3.751,-3.751,-3.751,-3.751,-3.751,-3.751,-3.7915,-3.8153,-3.8153,-3.8645,-3.8963,-3.9028,-3.9152,-3.9206,-3.9206,-3.9295,-3.9322,-3.9322,-3.9428,-3.9714,-4.017,-4.017,-4.0434,-4.0912,-4.0912,-4.0802,-4.0657,-4.0657,-4.0122,-3.926,-3.914,-3.8202,-3.6928,-3.6792,-3.6282,-3.5667,-3.5667,-3.5667,-3.5667,-3.5667,-3.5667,-3.5667,-3.5667,-3.5667,-3.5667,-3.5667,-3.5667,-3.5667,-3.5667,-3.5667,-3.5667,-3.5667,-3.5644,-3.56,-3.56,-3.5622,-3.5622,-3.5622,-3.5644,-3.5667,-3.5667,-3.5734,-3.5817,-3.5839,-3.5927,-3.5954,-3.5954,-3.5861,-3.5751,-3.5667,-3.5667,-3.5689,-3.5711,-3.5711,-3.5734,-3.5734,-3.5734,-3.5734,-3.5734,-3.5734,-3.5694,-3.5711,-3.5711,-3.5689,-3.5622,-3.5622,-3.5622,-3.56,-3.56,-3.5554,-3.5447,-3.5447,-3.4904,-3.4011,-3.4111,-3.3869,-3.3521,-3.3969,-3.4407,-3.4857,-3.5201,-3.5091,-3.4738,-3.751,-3.751,-3.751,-3.751,-3.751,-3.751,-3.751,-3.751,-3.751,-3.751,-3.751,-3.751,-3.751,-3.751,-3.751,-3.751,-3.751,-3.751,-3.751,-3.7553,-3.7612,-3.7612,-3.77,-3.7943,-3.839,-3.8947,-3.9206,-3.9206,-3.9645,-3.9902,-3.9902,-4.0427,-4.071,-4.0776,-4.0776,-4.0823,-4.0912,-4.0912,-4.0444,-3.9684,-3.9684,-3.9151,-3.8322,-3.7672,-3.7291,-3.699,-3.6346,-3.6039,-3.5954,-3.5954,-3.5954,-3.5954,-3.5954,-3.5954,-3.5954,-3.5954,-3.5954,-3.5954,-3.5954,-3.5954,-3.5954,-3.5954,-3.5954,-3.5954,-3.5954,-3.5778,-3.56,-3.56,-3.5689,-3.5773,-3.5773,-3.5866,-3.5954,-3.5954,-3.5861,-3.5839,-3.5971,-3.5905,-3.5817,-3.5817,-3.5711,-3.5711,-3.5932,-3.5954,-3.5997,-3.6101,-3.617,-3.6216,-3.6216,-3.6216,-3.6216,-3.6216,-3.6216,-3.6191,-3.6122,-3.6118,-3.5993,-3.5773,-3.5773,-3.5711,-3.56,-3.56,-3.5356,-3.4904,-3.4904,-3.4553,-3.4036,-3.4504,-3.4649,-3.4601,-3.4673,-3.4738,-3.4745,-3.4358,-3.4456,-3.4785,-3.751,-3.751,-3.751,-3.751,-3.751,-3.751,-3.751,-3.751,-3.751,-3.751,-3.751,-3.751,-3.751,-3.751,-3.751,-3.751,-3.751,-3.7642,-3.7943,-3.8242,-3.8579,-3.8876,-3.9226,-3.9516,-3.9749,-3.9995,-4.0154,-4.0154,-4.0402,-4.05,-4.0524,-4.0776,-4.0912,-4.0912,-4.0912,-4.0653,-4.0239,-4.0239,-3.9761,-3.8986,-3.8986,-3.8516,-3.7767,-3.7458,-3.7019,-3.6524,-3.6139,-3.5997,-3.5997,-3.5997,-3.5997,-3.5997,-3.5997,-3.5997,-3.5997,-3.5997,-3.5997,-3.5997,-3.5997,-3.5997,-3.5997,-3.5997,-3.5997,-3.5997,-3.5997,-3.591,-3.5822,-3.5822,-3.5756,-3.5734,-3.5866,-3.5905,-3.591,-3.5997,-3.5954,-3.5932,-3.5997,-3.6014,-3.6014,-3.6014,-3.5971,-3.5954,-3.5997,-3.5997,-3.6019,-3.6062,-3.6105,-3.6148,-3.6148,-3.6148,-3.6148,-3.6148,-3.6148,-3.6127,-3.6101,-3.6101,-3.6036,-3.5927,-3.5927,-3.58,-3.56,-3.56,-3.547,-3.5247,-3.5247,-3.4951,-3.448,-3.4697,-3.4625,-3.4382,-3.4673,-3.4975,-3.5224,-3.4975,-3.5045,-3.5247]},{"header":{"parameterUnit":"m.s-1","parameterCategory":1,"la1":30.6,"la2":28.766,"lo1":-90.7593,"lo2":-88.6598,"dy":0.0162,"dx":0.0183,"nx":116,"ny":114,"refTime":"2023-08-01T00:00:00:Z","depth":0,"parameterNumber":3,"parameterNumberName":"V-component_of_WINDS"},"data":[0.0,0.0,0.0,0.0,0.0,0.0,0.0,0.0,0.0,0.0,0.0,0.0,0.0,0.0,0.0,0.0,0.0,0.0,0.0,0.0,0.0,0.0,0.0,0.0,0.0,0.0,0.0,0.0,0.0,0.0,0.0,0.0,0.0,0.0,0.0,0.0,0.0,0.0,0.0,0.0,0.0,0.0,0.0,0.0,0.0,0.0,0.0,0.0,0.0,0.0,0.0,0.0,0.0,0.0,0.0,0.0,0.0,0.0,0.0,0.0,0.0,0.0,0.0,0.0,0.0,0.0,0.0,0.0,0.0,0.0,0.0,0.0,0.0,0.0,0.0,0.0,0.0,0.0,0.0,0.0,0.0,0.0,0.0,0.0,0.0,0.0,0.0,0.0,0.0,0.0,0.0,0.0,0.0,0.0,0.0,0.0,0.0,0.0,0.0,0.0,0.0,0.0,0.0,0.0,0.0,0.0,0.0,0.0,0.0,0.0,0.0,0.0,0.0,0.0,0.0,0.0,0.0,0.0,0.0,0.0,0.0,0.0,0.0,0.0,0.0,0.0,0.0,0.0,0.0,0.0,0.0,0.0,0.0,0.0,0.0,0.0,0.0,0.0,0.0,0.0,0.0,0.0,0.0,0.0,0.0,0.0,0.0,0.0,0.0,0.0,0.0,0.0,0.0,0.0,0.0,0.0,0.0,0.0,0.0,0.0,0.0,0.0,0.0,0.0,0.0,0.0,0.0,0.0,0.0,0.0,0.0,0.0,0.0,0.0,0.0,0.0,0.0,0.0,0.0,0.0,0.0,0.0,0.0,0.0,0.0,0.0,0.0,0.0,0.0,0.0,0.0,0.0,0.0,0.0,0.0,0.0,0.0,0.0,0.0,0.0,0.0,0.0,0.0,0.0,0.0,0.0,0.0,0.0,0.0,0.0,0.0,0.0,0.0,0.0,0.0,0.0,0.0,0.0,0.0,0.0,0.0,0.0,0.0,0.0,0.0,0.0,0.0,0.0,0.0,0.0,0.0,0.0,0.0,0.0,0.0,0.0,0.0,0.0,0.0,0.0,0.0,0.0,0.0,0.0,0.0,0.0,0.0,0.0,0.0,0.0,0.0,0.0,0.0,0.0,0.0,0.0,0.0,0.0,0.0,0.0,0.0,0.0,0.0,0.0,0.0,0.0,0.0,0.0,0.0,0.0,0.0,0.0,0.0,0.0,0.0,0.0,0.0,0.0,0.0,0.0,0.0,0.0,0.0,0.0,0.0,0.0,0.0,0.0,0.0,0.0,0.0,0.0,0.0,0.0,0.0,0.0,0.0,0.0,0.0,0.0,0.0,0.0,0.0,0.0,0.0,0.0,0.0,0.0,0.0,0.0,0.0,0.0,0.0,0.0,0.0,0.0,0.0,0.0,0.0,0.0,0.0,0.0,0.0,0.0,0.0,0.0,0.0,0.0,0.0,0.0,0.0,0.0,0.0,0.0,0.0,0.0,0.0,0.0,0.0,0.0,0.0,0.0,0.0,0.0,0.0,0.0,0.0,0.0,0.0,0.0,0.0,0.0,0.0,0.0,0.0,0.0,0.0,0.0,0.0,0.0,0.0,0.0,0.0,0.0,0.0,0.0,0.0,0.0,0.0,0.0,0.0,0.0,0.0,0.0,0.0,0.0,0.0,0.0,0.0,0.0,0.0,0.0,0.0,0.0,0.0,0.0,0.0,0.0,0.0,0.0,0.0,0.0,0.0,0.0,0.0,0.0,0.0,0.0,0.0,0.0,0.0,0.0,0.0,0.0,0.0,0.0,0.0,0.0,0.0,0.0,0.0,0.0,0.0,0.0,0.0,0.0,0.0,0.0,0.0,0.0,0.0,0.0,0.0,0.0,0.0,0.0,0.0,0.0,0.0,0.0,0.0,0.0,0.0,0.0,0.0,0.0,0.0,0.0,0.0,0.0,0.0,0.0,0.0,0.0,0.0,0.0,0.0,0.0,0.0,0.0,0.0,0.0,0.0,0.0,0.0,0.0,0.0,0.0,0.0,0.0,0.0,0.0,0.0,0.0,0.0,0.0,0.0,0.0,0.0,0.0,0.0,0.0,0.0,0.0,0.0,0.0,0.0,0.0,0.0,0.0,0.0,0.0,0.0,0.0,0.0,0.0,0.0,0.0,0.0,0.0,0.0,0.0,0.0,0.0,0.0,0.0,0.0,0.0,0.0,0.0,0.0,0.0,0.0,0.0,0.0,0.0,0.0,0.0,0.0,0.0,0.0,0.0,0.0,0.0,0.0,0.0,0.0,0.0,0.0,0.0,0.0,0.0,0.0,0.0,0.0,0.0,0.0,0.0,0.0,0.0,0.0,0.0,0.0,0.0,0.0,0.0,0.0,0.0,0.0,0.0,0.0,0.0,0.0,0.0,0.0,0.0,0.0,0.0,0.0,0.0,0.0,0.0,0.0,0.0,0.0,0.0,0.0,0.0,0.0,0.0,0.0,0.0,0.0,0.0,0.0,0.0,0.0,0.0,0.0,0.0,0.0,0.0,0.0,0.0,0.0,0.0,0.0,0.0,0.0,0.0,0.0,0.0,0.0,0.0,0.0,0.0,0.0,0.0,0.0,0.0,0.0,0.0,0.0,0.0,0.0,0.0,0.0,0.0,0.0,0.0,0.0,0.0,0.0,0.0,0.0,0.0,0.0,0.0,0.0,0.0,0.0,0.0,0.0,0.0,0.0,0.0,0.0,0.0,0.0,0.0,0.0,0.0,0.0,0.0,0.0,0.0,0.0,0.0,0.0,0.0,0.0,0.0,0.0,0.0,0.0,0.0,0.0,0.0,0.0,0.0,0.0,0.0,0.0,0.0,0.0,0.0,0.0,0.0,0.0,0.0,0.0,0.0,0.0,0.0,0.0,0.0,0.0,0.0,0.0,0.0,0.0,0.0,0.0,0.0,0.0,0.0,0.0,0.0,0.0,0.0,0.0,0.0,0.0,0.0,0.0,0.0,0.0,0.0,0.0,0.0,0.0,0.0,0.0,0.0,0.0,0.0,0.0,0.0,0.0,0.0,0.0,0.0,0.0,0.0,0.0,0.0,0.0,0.0,0.0,0.0,0.0,0.0,0.0,0.0,0.0,0.0,0.0,0.0,0.0,0.0,0.0,0.0,0.0,0.0,0.0,0.0,0.0,0.0,0.0,0.0,0.0,0.0,0.0,0.0,0.0,0.0,0.0,0.0,0.0,0.0,0.0,0.0,0.0,0.0,0.0,0.0,0.0,0.0,0.0,0.0,0.0,0.0,0.0,0.0,0.0,0.0,0.0,0.0,0.0,0.0,0.0,0.0,0.0,0.0,0.0,0.0,0.0,0.0,0.0,0.0,0.0,0.0,0.0,0.0,0.0,0.0,0.0,0.0,0.0,0.0,0.0,0.0,0.0,0.0,0.0,0.0,0.0,0.0,0.0,0.0,0.0,0.0,0.0,0.0,0.0,0.0,0.0,0.0,0.0,0.0,0.0,0.0,0.0,0.0,0.0,0.0,0.0,0.0,0.0,0.0,0.0,0.0,0.0,0.0,0.0,0.0,0.0,0.0,0.0,0.0,0.0,0.0,0.0,0.0,0.0,0.0,0.0,0.0,0.0,0.0,0.0,0.0,0.0,0.0,0.0,0.0,0.0,0.0,0.0,0.0,0.0,0.0,0.0,0.0,0.0,0.0,0.0,0.0,0.0,0.0,0.0,0.0,0.0,0.0,0.0,0.0,0.0,0.0,0.0,0.0,0.0,0.0,0.0,0.0,0.0,0.0,0.0,0.0,0.0,0.0,0.0,0.0,0.0,0.0,0.0,0.0,0.0,0.0,0.0,0.0,0.0,0.0,0.0,0.0,0.0,0.0,0.0,0.0,0.0,0.0,0.0,0.0,0.0,0.0,0.0,0.0,0.0,0.0,0.0,0.0,0.0,0.0,0.0,0.0,0.0,0.0,0.0,0.0,0.0,0.0,0.0,0.0,0.0,0.0,0.0,0.0,0.0,0.0,0.0,0.0,0.0,0.0,0.0,0.0,0.0,0.0,0.0,0.0,0.0,0.0,0.0,0.0,0.0,0.0,0.0,0.0,0.0,0.0,0.0,0.0,0.0,0.0,0.0,0.0,0.0,0.0,0.0,0.0,0.0,0.0,0.0,0.0,0.0,0.0,0.0,0.0,0.0,0.0,0.0,0.0,0.0,0.0,0.0,0.0,0.0,0.0,0.0,0.0,0.0,0.0,0.0,0.0,0.0,0.0,0.0,0.0,0.0,0.0,0.0,0.0,0.0,0.0,0.0,0.0,0.0,0.0,0.0,0.0,0.0,0.0,0.0,0.0,0.0,0.0,0.0,0.0,0.0,0.0,0.0,0.0,0.0,0.0,0.0,0.0,0.0,0.0,0.0,0.0,0.0,0.0,0.0,0.0,0.0,0.0,0.0,0.0,0.0,0.0,0.0,0.0,0.0,0.0,0.0,0.0,0.0,0.0,0.0,0.0,0.0,0.0,0.0,0.0,0.0,0.0,0.0,0.0,0.0,0.0,0.0,0.0,0.0,0.0,0.0,0.0,0.0,0.0,0.0,0.0,0.0,0.0,0.0,0.0,0.0,0.0,0.0,0.0,0.0,0.0,0.0,0.0,0.0,0.0,0.0,0.0,0.0,0.0,0.0,0.0,0.0,0.0,0.0,0.0,0.0,0.0,0.0,0.0,0.0,0.0,0.0,0.0,0.0,0.0,0.0,0.0,0.0,0.0,0.0,0.0,0.0,0.0,0.0,0.0,0.0,0.0,0.0,0.0,0.0,0.0,0.0,0.0,0.0,0.0,0.0,0.0,0.0,0.0,0.0,0.0,0.0,0.0,0.0,0.0,0.0,0.0,0.0,0.0,0.0,0.0,0.0,0.0,0.0,0.0,0.0,0.0,0.0,0.0,0.0,0.0,0.0,0.0,0.0,0.0,0.0,0.0,0.0,0.0,0.0,0.0,0.0,0.0,0.0,0.0,0.0,0.0,0.0,0.0,0.0,0.0,0.0,0.0,0.0,0.0,0.0,0.0,0.0,0.0,0.0,0.0,0.0,0.0,0.0,0.0,0.0,0.0,0.0,0.0,0.0,0.0,0.0,0.0,0.0,0.0,0.0,0.0,0.0,0.0,0.0,0.0,0.0,0.0,0.0,0.0,0.0,0.0,0.0,0.0,0.0,0.0,0.0,0.0,0.0,0.0,0.0,0.0,0.0,0.0,0.0,0.0,0.0,0.0,0.0,0.0,0.0,0.0,0.0,0.0,0.0,0.0,0.0,0.0,0.0,0.0,0.0,0.0,0.0,0.0,0.0,0.0,0.0,0.0,0.0,0.0,0.0,0.0,0.0,0.0,0.0,0.0,0.0,0.0,0.0,0.0,0.0,0.0,0.0,0.0,0.0,0.0,0.0,0.0,0.0,0.0,0.0,0.0,0.0,0.0,0.0,0.0,0.0,0.0,0.0,0.0,0.0,0.0,0.0,0.0,0.0,0.0,0.0,0.0,0.0,0.0,0.0,0.0,0.0,0.0,0.0,0.0,0.0,0.0,0.0,0.0,0.0,0.0,0.0,0.0,0.0,0.0,0.0,0.0,0.0,0.0,0.0,0.0,0.0,0.0,0.0,0.0,0.0,0.0,0.0,0.0,0.0,0.0,0.0,0.0,0.0,0.0,0.0,0.0,0.0,0.0,0.0,0.0,0.0,0.0,0.0,0.0,0.0,0.0,0.0,0.0,0.0,0.0,0.0,0.0,0.0,0.0,0.0,0.0,0.0,0.0,0.0,0.0,0.0,0.0,0.0,0.0,0.0,0.0,0.0,0.0,0.0,0.0,0.0,0.0,0.0,0.0,0.0,0.0,0.0,0.0,0.0,0.0,0.0,0.0,0.0,0.0,0.0,0.0,0.0,0.0,0.0,0.0,0.0,0.0,0.0,0.0,0.0,0.0,0.0,0.0,0.0,0.0,0.0,0.0,0.0,0.0,0.0,0.0,0.0,0.0,0.0,0.0,0.0,0.0,0.0,0.0,0.0,0.0,0.0,0.0,0.0,0.0,0.0,0.0,0.0,0.0,0.0,0.0,-1.8167,0.0,0.0,0.0,0.0,0.0,0.0,0.0,0.0,0.0,0.0,0.0,0.0,0.0,0.0,0.0,0.0,0.0,0.0,0.0,0.0,0.0,0.0,0.0,0.0,0.0,0.0,0.0,0.0,0.0,0.0,0.0,0.0,0.0,0.0,0.0,0.0,0.0,0.0,0.0,0.0,0.0,0.0,0.0,0.0,0.0,0.0,0.0,0.0,0.0,0.0,0.0,0.0,0.0,0.0,0.0,0.0,0.0,0.0,0.0,0.0,0.0,0.0,0.0,0.0,0.0,0.0,0.0,0.0,0.0,0.0,0.0,0.0,0.0,0.0,0.0,0.0,0.0,0.0,0.0,0.0,0.0,0.0,0.0,0.0,0.0,0.0,0.0,0.0,0.0,0.0,0.0,0.0,0.0,0.0,0.0,0.0,0.0,0.0,0.0,0.0,0.0,0.0,0.0,0.0,0.0,0.0,0.0,0.0,0.0,0.0,0.0,0.0,0.0,0.0,0.0,0.0,-1.9146,0.0,0.0,0.0,0.0,0.0,0.0,0.0,0.0,0.0,0.0,0.0,0.0,0.0,0.0,0.0,0.0,0.0,0.0,0.0,0.0,0.0,0.0,0.0,0.0,0.0,0.0,0.0,0.0,0.0,0.0,0.0,0.0,0.0,0.0,0.0,0.0,0.0,0.0,0.0,0.0,0.0,0.0,0.0,0.0,0.0,0.0,0.0,0.0,0.0,0.0,0.0,0.0,0.0,0.0,0.0,0.0,0.0,0.0,0.0,0.0,0.0,0.0,0.0,0.0,0.0,0.0,0.0,0.0,0.0,0.0,0.0,0.0,0.0,0.0,0.0,0.0,0.0,0.0,0.0,0.0,0.0,0.0,0.0,0.0,0.0,0.0,0.0,0.0,0.0,0.0,0.0,0.0,0.0,0.0,0.0,0.0,0.0,0.0,0.0,0.0,0.0,0.0,0.0,0.0,0.0,0.0,0.0,0.0,-1.4626,-1.5914,-1.8069,-1.8377,-1.8646,-1.8869,-1.8639,-1.965,-2.1489,-2.1684,0.0,0.0,0.0,0.0,0.0,0.0,0.0,0.0,0.0,0.0,0.0,0.0,0.0,0.0,0.0,0.0,0.0,0.0,0.0,0.0,0.0,0.0,0.0,0.0,0.0,0.0,0.0,0.0,0.0,0.0,0.0,0.0,0.0,0.0,0.0,0.0,0.0,0.0,-0.3587,-0.3587,-0.3531,-0.3363,-0.3363,0.0,0.0,0.0,0.0,0.0,0.0,0.0,0.0,0.0,0.0,0.0,0.0,0.0,0.0,0.0,0.0,0.0,0.0,0.0,0.0,0.0,0.0,0.0,0.0,0.0,0.0,0.0,0.0,0.0,0.0,0.0,0.0,0.0,0.0,0.0,0.0,0.0,0.0,0.0,0.0,0.0,0.0,0.0,-0.6051,-0.594,0.0,0.0,0.0,0.0,0.0,0.0,0.0,0.0,0.0,0.0,0.0,0.0,0.0,-1.2395,-1.2169,-1.2164,-1.3186,-1.5227,-1.528,-1.6352,-1.837,-1.8705,-1.8869,-1.8921,-1.9123,0.0,-2.0731,-2.1633,0.0,0.0,0.0,0.0,0.0,0.0,0.0,0.0,0.0,0.0,0.0,0.0,0.0,0.0,0.0,0.0,0.0,0.0,0.0,0.0,0.0,0.0,0.0,0.0,0.0,0.0,0.0,0.0,0.0,0.0,0.0,0.0,0.0,0.0,0.0,0.0,-0.4596,-0.4596,-0.4596,-0.4596,-0.4596,-0.4596,-0.4596,-0.4258,-0.3699,-0.5314,0.0,0.0,0.0,0.0,0.0,0.0,0.0,0.0,0.0,0.0,0.0,0.0,0.0,0.0,0.0,0.0,0.0,0.0,0.0,0.0,0.0,0.0,0.0,0.0,0.0,0.0,0.0,0.0,0.0,0.0,0.0,0.0,0.0,0.0,0.0,0.0,0.0,0.0,0.0,-0.6219,-0.6274,-0.6274,-0.6161,-0.6105,0.0,0.0,0.0,0.0,0.0,0.0,0.0,0.0,0.0,-1.2979,-1.2984,-1.288,-1.2791,-1.2673,-1.3646,-1.5604,-1.5672,-1.6723,-1.8698,-1.8966,-1.9123,-1.9123,-1.9227,-1.9828,-2.0783,-2.1887,-2.2894,-2.389,0.0,0.0,0.0,0.0,-2.5693,-2.5781,0.0,0.0,0.0,0.0,0.0,0.0,0.0,0.0,0.0,0.0,0.0,0.0,0.0,0.0,0.0,0.0,0.0,0.0,0.0,0.0,0.0,0.0,0.0,0.0,0.0,0.0,0.0,0.0,-0.5382,-0.5382,-0.5382,-0.5382,-0.5382,-0.5437,-0.5659,-0.5098,-0.4148,-0.5262,-0.6369,0.0,0.0,0.0,0.0,0.0,0.0,0.0,0.0,0.0,0.0,0.0,0.0,0.0,0.0,0.0,0.0,0.0,0.0,0.0,0.0,0.0,0.0,0.0,0.0,0.0,0.0,0.0,0.0,0.0,0.0,0.0,0.0,0.0,0.0,0.0,0.0,0.0,0.0,-0.6537,-0.6547,-0.6576,-0.6858,-0.6968,0.0,0.0,0.0,0.0,0.0,0.0,-1.2431,-1.3083,-1.349,-1.3609,-1.3662,-1.3637,-1.3578,-1.3632,-1.4545,-1.6252,-1.6542,-1.7576,-1.9264,-1.9387,-1.9456,-1.9396,-1.9368,-1.9724,-2.0585,-2.1937,-2.3135,-2.4196,-2.5274,-2.5693,-2.5693,-2.5693,-2.5693,-2.5693,0.0,0.0,0.0,0.0,0.0,0.0,0.0,0.0,0.0,0.0,0.0,0.0,0.0,0.0,0.0,0.0,0.0,0.0,0.0,0.0,0.0,0.0,0.0,0.0,0.0,0.0,0.0,-0.5382,-0.5382,-0.5382,-0.5382,-0.5382,-0.5382,-0.5437,-0.627,-0.6158,-0.5382,-0.627,-0.7152,-0.8029,0.0,0.0,0.0,0.0,0.0,0.0,0.0,0.0,0.0,0.0,0.0,0.0,0.0,0.0,0.0,0.0,0.0,0.0,0.0,0.0,0.0,0.0,0.0,0.0,0.0,0.0,0.0,0.0,0.0,0.0,0.0,0.0,0.0,0.0,0.0,0.0,0.0,0.0,0.0,-0.7428,-0.8299,0.0,0.0,0.0,0.0,-1.1593,-1.1721,-1.2498,-1.4164,-1.4296,-1.4592,-1.5056,-1.5114,-1.5002,-1.4829,-1.5704,-1.659,-1.7544,-1.8417,-1.9297,-2.0124,-1.9872,-1.9793,-1.9779,-1.9463,-1.9324,-1.9532,-2.1633,-2.3135,-2.4196,-2.5274,-2.5693,-2.5693,-2.5693,-2.5693,-2.5693,0.0,0.0,0.0,0.0,0.0,0.0,0.0,0.0,0.0,0.0,0.0,0.0,0.0,0.0,0.0,0.0,0.0,0.0,0.0,0.0,0.0,0.0,0.0,0.0,0.0,0.0,-0.5382,-0.5382,-0.5382,-0.5382,-0.5437,-0.5993,-0.6214,-0.627,-0.7152,-0.7371,-0.7093,-0.7811,-0.8637,-0.9405,-0.9567,-1.0288,0.0,0.0,0.0,0.0,0.0,0.0,0.0,0.0,0.0,0.0,0.0,0.0,0.0,0.0,0.0,0.0,0.0,0.0,0.0,0.0,0.0,0.0,0.0,0.0,0.0,0.0,0.0,0.0,0.0,0.0,0.0,0.0,0.0,0.0,0.0,0.0,0.0,-0.9993,-1.0343,0.0,-1.0513,-1.1707,-1.2534,-1.2887,-1.3723,-1.4491,-1.5114,-1.5178,-1.5237,-1.5472,-1.5472,-1.5429,-1.5343,-1.5539,-1.6303,-1.7817,-1.7981,-1.8844,-2.0176,-2.012,-2.0069,-2.0062,-1.9945,-1.9894,-1.9979,-2.1262,-2.1899,-2.224,-2.3998,-2.4658,-2.4756,-2.5664,-2.5965,-2.5955,0.0,0.0,0.0,0.0,0.0,0.0,0.0,0.0,0.0,0.0,0.0,0.0,0.0,0.0,0.0,0.0,0.0,0.0,0.0,0.0,0.0,0.0,0.0,0.0,0.0,0.0,-0.5549,-0.5826,-0.5826,-0.5991,-0.6267,-0.6877,-0.7154,-0.7152,-0.8088,-0.8582,-0.8799,-0.9677,-1.012,-1.0178,-1.0006,-1.0726,-1.1782,0.0,0.0,0.0,0.0,0.0,0.0,0.0,0.0,0.0,0.0,0.0,0.0,0.0,0.0,0.0,0.0,0.0,0.0,0.0,0.0,0.0,0.0,0.0,0.0,0.0,0.0,0.0,0.0,0.0,0.0,0.0,0.0,0.0,0.0,0.0,-1.1492,-1.1495,-1.1912,-1.2207,-1.2207,-1.3435,-1.4226,-1.4226,-1.5086,-1.5634,-1.5715,-1.5715,-1.5758,-1.5838,-1.5838,-1.5838,-1.5838,-1.6332,-1.7126,-1.8338,-1.8753,-1.959,-2.072,-2.0446,-2.0343,-2.0336,-2.0227,-2.0183,-2.0216,-2.0796,-2.0877,-2.0854,-2.2998,-2.3998,-2.4344,-2.5441,-2.5994,-2.6245,0.0,0.0,0.0,0.0,0.0,0.0,0.0,0.0,0.0,0.0,0.0,0.0,0.0,0.0,0.0,0.0,0.0,0.0,0.0,0.0,0.0,0.0,0.0,0.0,0.0,0.0,0.0,0.0,-0.6768,-0.7207,-0.8085,-0.8085,-0.8085,-0.814,-0.9082,-0.9798,-1.0343,-1.1778,-1.161,-1.0288,-1.0343,-1.1168,-1.2436,0.0,0.0,0.0,0.0,0.0,0.0,0.0,0.0,0.0,0.0,0.0,0.0,0.0,0.0,0.0,0.0,0.0,0.0,0.0,0.0,0.0,0.0,0.0,0.0,0.0,0.0,0.0,0.0,0.0,0.0,0.0,0.0,0.0,-1.1825,-1.1707,-1.1773,-1.1831,-1.2942,-1.3784,-1.3784,-1.4873,-1.5601,-1.5612,-1.5612,-1.5715,-1.6007,-1.6017,-1.6131,-1.6307,-1.6312,-1.6312,-1.6312,-1.8208,-1.9181,-1.9242,-2.0893,-2.1715,-2.1686,-2.1057,-2.0764,-2.0735,-2.0365,-2.0219,-2.0212,-2.0252,-2.0245,-2.0451,-2.2485,-2.3746,-2.4529,-2.5128,-2.5888,-2.6585,0.0,0.0,0.0,0.0,0.0,0.0,0.0,0.0,0.0,0.0,0.0,0.0,0.0,0.0,0.0,0.0,0.0,0.0,0.0,0.0,0.0,0.0,0.0,0.0,0.0,0.0,0.0,0.0,0.0,0.0,0.0,-0.9951,-1.0225,-1.0284,-1.1168,-1.1669,-1.1832,-1.2219,-1.2436,-1.2491,-1.2925,-1.3093,-1.3039,0.0,0.0,0.0,0.0,0.0,0.0,0.0,0.0,0.0,0.0,0.0,0.0,0.0,0.0,0.0,0.0,0.0,0.0,0.0,0.0,0.0,0.0,0.0,0.0,0.0,0.0,0.0,0.0,0.0,0.0,0.0,-1.478,-1.4597,-1.3278,-1.3941,-1.4499,-1.45,-1.4873,-1.5056,-1.5056,-1.5418,-1.5666,-1.5899,-1.5909,-1.6017,-1.6204,-1.6215,-1.6242,-1.6312,-1.6312,-1.6312,-1.6312,-1.7526,-1.8557,-1.9181,-2.0435,-2.1427,-2.2045,-2.1862,-2.165,-2.1423,-2.1335,-2.1159,-2.0925,-2.1122,-2.1246,-2.1311,-2.2409,-2.3366,-2.4342,-2.5904,-2.7132,-2.8037,0.0,0.0,0.0,0.0,0.0,0.0,0.0,0.0,0.0,0.0,0.0,0.0,0.0,0.0,0.0,0.0,0.0,0.0,0.0,0.0,0.0,0.0,0.0,0.0,0.0,0.0,0.0,0.0,0.0,0.0,0.0,0.0,0.0,0.0,-1.2159,-1.255,-1.2767,-1.2767,-1.3152,-1.3699,-1.4083,-1.3975,-1.3699,-1.3699,-1.3478,-1.3207,-1.3537,-1.3699,-1.3699,-1.3699,0.0,0.0,0.0,0.0,0.0,0.0,0.0,0.0,0.0,0.0,0.0,0.0,0.0,0.0,0.0,0.0,0.0,0.0,0.0,0.0,0.0,0.0,0.0,0.0,-1.5601,-1.5353,-1.457,-1.5116,-1.5601,-1.5601,-1.5601,-1.5639,-1.5736,-1.5747,-1.5844,-1.6081,-1.6102,-1.6204,-1.6447,-1.6457,-1.6506,-1.6597,-1.6603,-1.6603,-1.6603,-1.8027,-1.9026,-1.9591,-2.0937,-2.1861,-2.2359,-2.2242,-2.2081,-2.1898,-2.1898,-2.1796,-2.1664,-2.2085,-2.223,0.0,0.0,0.0,0.0,0.0,-2.7743,-2.8618,0.0,0.0,0.0,0.0,0.0,0.0,0.0,0.0,0.0,0.0,0.0,0.0,0.0,0.0,0.0,0.0,0.0,0.0,0.0,0.0,0.0,0.0,0.0,0.0,0.0,0.0,0.0,0.0,0.0,0.0,0.0,0.0,0.0,0.0,0.0,0.0,0.0,-1.3428,-1.3699,-1.4196,-1.4196,-1.4196,-1.4196,-1.4196,-1.4196,-1.4196,-1.4196,-1.4196,-1.4196,-1.4196,0.0,0.0,0.0,0.0,0.0,0.0,0.0,0.0,0.0,0.0,0.0,0.0,0.0,0.0,0.0,0.0,0.0,0.0,0.0,0.0,0.0,0.0,0.0,0.0,-1.5601,-1.5601,-1.5601,-1.5601,-1.5601,-1.5601,-1.5623,-1.572,-1.599,-1.6034,-1.6153,-1.6334,-1.6355,-1.6457,-1.6689,0.0,0.0,0.0,0.0,-1.7001,-1.7001,-1.9054,-2.0075,-2.0138,-2.1817,-2.2681,-2.2667,-2.241,-2.2264,-2.2235,-2.2235,-2.2273,-2.2356,-2.2922,-2.3271,-2.3383,-2.3296,-2.3659,-2.4509,-2.6689,-2.7935,-2.8612,0.0,0.0,0.0,0.0,0.0,0.0,0.0,0.0,0.0,0.0,0.0,0.0,0.0,0.0,0.0,0.0,0.0,0.0,0.0,0.0,0.0,0.0,0.0,0.0,0.0,0.0,0.0,0.0,0.0,0.0,0.0,0.0,0.0,0.0,0.0,0.0,0.0,0.0,0.0,-1.4196,-1.4196,-1.4196,-1.4196,-1.4196,-1.4196,-1.4196,-1.4196,-1.4196,-1.4196,-1.4196,-1.4196,-1.4196,-1.4196,0.0,0.0,0.0,0.0,0.0,0.0,0.0,0.0,0.0,0.0,0.0,0.0,0.0,0.0,0.0,0.0,0.0,0.0,0.0,0.0,-1.5601,-1.5601,-1.5601,-1.5601,-1.5601,-1.5601,-1.5601,-1.5763,-1.5958,-1.6001,-1.6129,-1.6344,-1.6576,-1.6597,-1.6694,-1.6926,-1.6937,-1.6958,-1.7001,-1.7001,-1.7001,-1.7001,-1.9054,-2.0075,-2.0138,0.0,0.0,-2.301,-2.2959,-2.2784,-2.2535,-2.2535,-2.269,-2.2982,-2.3567,-2.445,-2.5344,-2.5249,-2.543,-2.591,-2.7733,-2.8545,-2.8755,0.0,0.0,0.0,0.0,0.0,0.0,0.0,0.0,0.0,0.0,0.0,0.0,0.0,0.0,0.0,0.0,0.0,0.0,0.0,0.0,0.0,0.0,0.0,0.0,0.0,0.0,0.0,0.0,0.0,0.0,0.0,0.0,0.0,0.0,0.0,0.0,0.0,0.0,0.0,0.0,0.0,-1.4196,-1.4196,-1.4196,-1.4196,-1.4196,-1.4196,-1.4196,-1.4196,-1.4196,-1.4196,-1.4196,-1.4196,-1.4196,-1.4196,0.0,0.0,0.0,0.0,0.0,0.0,0.0,0.0,0.0,0.0,0.0,0.0,0.0,0.0,-1.5176,-1.5531,0.0,-1.5601,-1.5601,-1.5601,-1.5601,-1.5601,-1.5601,-1.5645,-1.5758,-1.5936,-1.6104,-1.6342,-1.6414,-1.6581,-1.6818,-1.6834,-1.6883,-1.6996,-1.7001,-1.7001,-1.7001,-1.7001,-1.726,-1.777,-1.931,-2.0335,-2.0843,-2.2355,-2.3106,-2.3106,-2.3106,-2.3018,-2.2864,-2.2864,-2.3145,-2.3665,-2.4623,-2.5483,-2.6191,-2.616,-2.6364,-2.6779,-2.7955,-2.8648,-2.9112,0.0,0.0,0.0,0.0,0.0,0.0,0.0,0.0,0.0,0.0,0.0,0.0,0.0,0.0,0.0,0.0,0.0,0.0,0.0,0.0,0.0,0.0,0.0,0.0,0.0,0.0,0.0,0.0,0.0,0.0,0.0,0.0,0.0,0.0,0.0,0.0,0.0,0.0,0.0,0.0,0.0,0.0,-1.4196,-1.4196,-1.4196,-1.4196,-1.4196,-1.4196,-1.4196,-1.4196,-1.4196,-1.4196,-1.4196,-1.4196,-1.4196,-1.4196,-1.4196,0.0,0.0,0.0,0.0,0.0,0.0,0.0,0.0,-1.4369,-1.46,-1.4832,-1.5079,-1.5263,-1.5553,-1.5601,-1.5601,-1.5601,-1.5601,-1.5601,-1.5601,-1.5639,-1.5758,-1.6055,-1.6077,-1.625,-1.6682,-1.6769,-1.6807,-1.699,-1.7001,-1.7001,-1.7001,-1.7001,-1.7001,-1.7001,-1.7001,-1.7389,-1.8215,-1.9501,-2.0526,-2.1292,-2.2543,-2.3106,-2.3106,-2.3106,-2.3106,-2.3106,-2.3362,-2.386,-2.4595,-2.5831,-2.6446,-2.6602,-2.6602,-2.6826,-2.7249,-2.7669,-2.8382,-2.9223,0.0,0.0,0.0,0.0,0.0,0.0,0.0,0.0,0.0,0.0,0.0,0.0,0.0,0.0,0.0,0.0,0.0,0.0,0.0,0.0,0.0,0.0,0.0,0.0,0.0,0.0,0.0,0.0,0.0,0.0,0.0,0.0,0.0,0.0,0.0,0.0,0.0,0.0,0.0,0.0,0.0,0.0,-1.4196,-1.4196,-1.4196,-1.4196,-1.4196,-1.4196,-1.4196,-1.4196,-1.4196,-1.4196,-1.4196,-1.4196,-1.4196,-1.4196,0.0,-1.4196,-1.4196,-1.4196,-1.4196,-1.4196,-1.4196,-1.4196,0.0,-1.4369,-1.46,-1.4832,-1.5079,-1.5263,-1.5553,-1.5601,-1.5601,-1.5601,-1.5601,-1.5601,-1.5601,-1.5839,-1.6,-1.6242,-1.6274,-1.6377,-1.6698,-1.6845,-1.6974,-1.7001,-1.7001,-1.7001,-1.7001,-1.7001,-1.7001,-1.7001,-1.7001,-1.7066,-1.7195,-1.9118,-2.0138,-2.0272,-2.216,-2.3106,-2.3106,-2.3106,-2.3106,-2.3168,-2.4363,-2.528,-2.5953,-2.67,-2.6987,-2.7013,-2.7013,-2.7039,-2.7159,-2.7227,-2.7909,-2.8802,0.0,0.0,0.0,0.0,0.0,0.0,0.0,0.0,0.0,0.0,0.0,0.0,0.0,0.0,0.0,0.0,0.0,0.0,0.0,0.0,0.0,0.0,0.0,0.0,0.0,0.0,0.0,0.0,0.0,0.0,0.0,0.0,0.0,0.0,0.0,0.0,0.0,0.0,0.0,0.0,0.0,0.0,-1.4196,-1.4196,-1.4196,-1.4196,-1.4196,-1.4196,0.0,0.0,-1.4196,-1.4299,-1.4826,-1.4617,-1.4299,-1.4826,-1.4617,0.0,-1.4196,-1.4196,-1.4196,-1.4196,-1.4196,-1.4196,-1.4196,-1.4476,-1.4762,-1.4864,-1.5187,-1.5483,-1.558,-1.5601,-1.5601,0.0,-1.5601,-1.5601,-1.5601,-1.5861,-1.6099,-1.6285,-1.6436,-1.6608,-1.684,-1.6947,-1.7001,-1.7001,-1.7001,-1.7001,-1.7001,-1.7001,-1.7001,-1.7001,-1.7001,-1.7577,-1.8798,-1.9693,-2.0709,-2.1846,-2.2731,-2.3106,-2.3106,-2.3106,-2.3293,-2.3736,-2.4672,-2.5472,-2.6136,-2.6822,-2.7073,-2.7073,-2.7073,-2.7073,-2.7125,-2.7449,-2.7806,-2.8288,0.0,0.0,0.0,0.0,0.0,0.0,0.0,0.0,0.0,0.0,0.0,0.0,0.0,0.0,0.0,0.0,0.0,0.0,0.0,0.0,0.0,0.0,0.0,0.0,0.0,0.0,0.0,0.0,0.0,0.0,0.0,0.0,0.0,0.0,0.0,0.0,0.0,0.0,0.0,0.0,0.0,0.0,-1.4196,-1.4196,-1.4196,-1.4196,-1.4196,-1.4196,0.0,0.0,-1.4196,-1.4299,-1.4928,-1.4719,-1.4299,-1.4982,-1.4665,-1.4196,-1.4196,-1.4196,-1.4196,-1.4196,-1.4196,-1.4196,-1.4196,-1.4552,-1.4885,-1.4885,-1.5262,-1.5601,-1.5601,-1.5601,-1.5601,-1.5601,-1.5601,-1.5601,-1.5601,-1.586,-1.6113,-1.6291,-1.6576,-1.6824,-1.6985,-1.7001,-1.7001,-1.7001,-1.7001,-1.7001,-1.7001,-1.7001,-1.7001,-1.7001,-1.726,-1.8156,-1.9629,-2.0202,-2.1215,-2.2668,-2.2981,-2.3106,-2.3106,-2.3106,-2.3479,-2.4108,-2.4795,-2.5472,-2.6136,-2.6822,-2.7073,-2.7073,-2.7073,-2.7073,-2.7159,-2.7454,-2.7753,-2.8178,0.0,0.0,0.0,0.0,0.0,0.0,0.0,0.0,0.0,0.0,0.0,0.0,0.0,0.0,0.0,0.0,0.0,0.0,0.0,0.0,0.0,0.0,0.0,0.0,0.0,0.0,0.0,0.0,0.0,0.0,0.0,0.0,0.0,0.0,0.0,0.0,0.0,0.0,0.0,0.0,0.0,0.0,-1.4196,-1.4196,-1.4196,-1.4196,-1.4196,0.0,0.0,0.0,-1.4196,-1.4196,-1.425,-1.4191,0.0,-1.425,-1.4191,-1.4196,-1.4196,-1.4196,-1.4196,-1.4196,-1.4196,-1.4196,-1.4196,-1.4552,-1.4885,-1.4885,-1.5262,-1.5601,-1.5601,-1.5601,-1.5601,-1.5601,-1.5601,-1.5601,-1.5601,-1.6005,-1.6307,-1.6312,-1.6716,-1.6996,0.0,-1.7001,-1.7001,-1.7001,-1.7001,-1.7001,-1.7001,-1.7001,-1.7001,-1.7001,-1.7963,-1.8472,-1.8536,-2.0519,-2.1607,-2.167,-2.2613,-2.3106,-2.3106,-2.3106,-2.3479,-2.4108,-2.4795,-2.5472,-2.6136,-2.6822,-2.7073,-2.7073,-2.7073,-2.7073,-2.7073,-2.7125,-2.7702,-2.8632,0.0,0.0,0.0,0.0,0.0,0.0,0.0,0.0,0.0,0.0,0.0,0.0,0.0,0.0,0.0,0.0,0.0,0.0,0.0,0.0,0.0,0.0,0.0,0.0,0.0,0.0,0.0,0.0,0.0,0.0,0.0,0.0,0.0,0.0,0.0,0.0,0.0,0.0,0.0,0.0,0.0,0.0,-1.4245,-1.4826,-1.5035,-1.5143,0.0,0.0,0.0,0.0,0.0,-1.525,-1.6358,-1.5933,-1.5035,-1.5035,-1.5035,-1.4934,-1.4353,-1.4196,-1.4196,-1.4196,-1.4196,-1.4234,-1.4385,-1.4659,-1.4929,-1.509,-1.5381,-1.5601,-1.5601,-1.5601,-1.5601,-1.5601,-1.5601,-1.5601,-1.5601,-1.6011,-1.6312,-1.6312,-1.6721,0.0,0.0,0.0,0.0,-1.7001,-1.7001,-1.7001,-1.7001,-1.7001,-1.7324,-1.7963,-1.8343,-1.9176,-2.0519,-2.1222,-2.1922,-2.2606,-2.2918,-2.3106,-2.3106,-2.3106,-2.3736,-2.4795,-2.4988,-2.5717,-2.6761,-2.7012,-2.7073,-2.7073,-2.7073,-2.7073,-2.7073,-2.7073,-2.7315,-2.7719,0.0,0.0,0.0,0.0,0.0,0.0,0.0,0.0,0.0,0.0,0.0,0.0,0.0,0.0,0.0,0.0,0.0,0.0,0.0,0.0,0.0,0.0,0.0,0.0,0.0,0.0,0.0,0.0,0.0,0.0,0.0,0.0,0.0,0.0,0.0,0.0,0.0,0.0,0.0,0.0,0.0,0.0,-1.4719,-1.5298,-1.5666,0.0,0.0,0.0,0.0,0.0,0.0,-1.6146,-1.7199,-1.6776,-1.5933,-1.5933,-1.5933,-1.5826,-1.525,-1.5095,-1.5041,-1.4724,-1.4665,-1.4624,-1.4537,-1.4713,-1.4955,-1.514,-1.5435,-1.5601,-1.5601,-1.5887,-1.6005,-1.5655,-1.5893,-1.6005,-1.5655,-1.6011,-1.6312,-1.6312,-1.6721,-1.7001,0.0,0.0,0.0,-1.7001,-1.7001,-1.7001,-1.7001,-1.7001,-1.7453,-1.8472,-1.8856,-1.9884,-2.1607,-2.1985,-2.2487,-2.3106,-2.3106,-2.3106,-2.3113,-2.3362,-2.3922,-2.4795,-2.5226,-2.5961,-2.6761,-2.7012,-2.7073,-2.7073,-2.7073,-2.7073,-2.7073,-2.7073,-2.7073,-2.7254,0.0,0.0,0.0,0.0,0.0,0.0,0.0,0.0,0.0,0.0,0.0,0.0,0.0,0.0,0.0,0.0,0.0,0.0,0.0,0.0,0.0,0.0,0.0,0.0,0.0,0.0,0.0,0.0,0.0,0.0,0.0,0.0,0.0,0.0,0.0,0.0,0.0,0.0,0.0,0.0,0.0,0.0,-1.5559,-1.5613,0.0,0.0,0.0,0.0,0.0,0.0,0.0,-1.6836,-1.6783,-1.6783,-1.6836,-1.6783,-1.6783,-1.6783,-1.673,-1.6677,-1.6518,-1.5773,-1.5559,-1.5415,-1.4823,-1.4836,-1.5126,-1.533,-1.5563,-1.5715,0.0,0.0,-1.6762,-1.5833,-1.6473,-1.6762,-1.5774,-1.6132,-1.6436,0.0,0.0,0.0,0.0,0.0,0.0,-1.7066,0.0,-1.7001,-1.7001,-1.7066,-1.7512,-1.8536,-1.9629,-2.0652,-2.167,-2.2606,-2.3106,-2.3106,-2.3106,-2.3106,-2.3106,-2.3736,-2.4046,-2.417,-2.5456,-2.6075,-2.6136,-2.6822,-2.7073,-2.7073,-2.7073,-2.7073,-2.7073,-2.7073,-2.7073,-2.7366,0.0,0.0,0.0,0.0,0.0,0.0,0.0,0.0,0.0,0.0,0.0,0.0,0.0,0.0,0.0,0.0,0.0,0.0,0.0,0.0,0.0,0.0,0.0,0.0,0.0,0.0,0.0,0.0,0.0,0.0,0.0,0.0,0.0,0.0,0.0,0.0,0.0,0.0,0.0,0.0,0.0,0.0,-1.6465,0.0,0.0,0.0,0.0,0.0,0.0,0.0,0.0,0.0,0.0,-1.8101,-1.8534,-1.7832,-1.7674,-1.7516,-1.6889,-1.6677,-1.6624,-1.6465,-1.6411,-1.6483,-1.6741,-1.6845,-1.7028,-1.7493,-1.7646,-1.7689,-1.7689,0.0,0.0,-1.682,-1.7402,0.0,-1.6762,-1.769,0.0,-1.7409,0.0,-1.7835,-1.7066,-1.7001,0.0,0.0,-1.7453,-1.7001,-1.7001,-1.7706,-1.86,-1.9629,-2.0652,-2.1727,-2.2738,-2.2981,-2.3106,-2.3106,-2.3106,-2.3106,-2.3113,-2.33,-2.3611,-2.417,-2.498,-2.5647,-2.6136,-2.6822,-2.7073,-2.7073,-2.7073,-2.7073,-2.7073,-2.7073,-2.7073,-2.7246,0.0,0.0,0.0,0.0,0.0,0.0,0.0,0.0,0.0,0.0,0.0,0.0,0.0,0.0,0.0,0.0,0.0,0.0,0.0,0.0,0.0,0.0,0.0,0.0,0.0,0.0,0.0,0.0,0.0,0.0,0.0,0.0,0.0,0.0,0.0,0.0,0.0,0.0,0.0,0.0,0.0,0.0,0.0,0.0,0.0,0.0,0.0,0.0,0.0,0.0,0.0,-1.922,-1.8736,-1.89,-1.922,-1.8736,0.0,-1.8503,-1.816,-1.794,-1.7767,-1.7576,-1.7404,-1.735,-1.7546,-1.7618,-1.7722,-1.8275,-1.8389,-1.8389,-1.8389,-1.8745,0.0,0.0,0.0,0.0,-1.7753,-1.8526,-1.8998,0.0,-1.8854,0.0,-1.8413,-1.8349,-1.86,0.0,-1.8215,-1.7835,-1.8349,-1.892,-1.9693,-2.0716,-2.1292,-2.2111,-2.3106,-2.3106,-2.3106,-2.3106,-2.3106,-2.3106,-2.3113,-2.3425,-2.3922,-2.461,0.0,-2.59,-2.6571,-2.6943,-2.7073,-2.7073,-2.7073,-2.7073,-2.7073,-2.7073,-2.7073,-2.7194,0.0,0.0,0.0,0.0,0.0,0.0,0.0,0.0,0.0,0.0,0.0,0.0,0.0,0.0,0.0,0.0,0.0,0.0,0.0,0.0,0.0,0.0,0.0,0.0,0.0,0.0,0.0,0.0,0.0,0.0,0.0,0.0,0.0,0.0,0.0,0.0,0.0,0.0,0.0,0.0,0.0,0.0,0.0,0.0,0.0,0.0,0.0,0.0,0.0,0.0,-1.9279,-1.9279,-1.9279,-1.9279,-1.9279,-1.9279,-1.9308,-1.9456,-1.9742,-1.961,-1.9246,-1.8807,-1.8427,-1.8146,-1.7987,-1.7952,-1.8114,-1.868,-1.8797,-1.8797,-1.8797,-1.9455,-1.9693,-1.8745,0.0,-1.9635,-1.8745,-1.9184,-1.9546,-1.9424,-1.9925,-2.0265,-2.0144,-2.0075,-2.0138,-2.0272,-1.9431,-1.924,-2.0075,-2.0208,-2.0779,-2.1796,-2.1796,-2.2237,-2.3106,-2.3106,-2.3106,-2.3106,-2.3106,-2.3106,-2.3106,-2.3798,-2.4417,-2.498,-2.577,0.0,-2.6952,-2.7073,-2.7073,-2.7073,-2.7073,-2.7073,-2.7073,-2.7073,-2.7039,-2.6996,0.0,0.0,0.0,0.0,0.0,0.0,0.0,0.0,0.0,0.0,-2.3452,-2.1887,0.0,0.0,0.0,0.0,0.0,0.0,0.0,0.0,0.0,0.0,0.0,0.0,0.0,0.0,0.0,0.0,0.0,0.0,0.0,0.0,0.0,0.0,0.0,0.0,0.0,0.0,0.0,0.0,0.0,0.0,0.0,0.0,0.0,0.0,0.0,0.0,0.0,0.0,-1.9279,-1.9279,-1.9279,-1.9279,-1.9279,-1.9279,-1.9522,-1.9742,-1.9801,-1.9779,-1.9689,-1.958,-1.9295,-1.9177,-1.9649,-1.9738,0.0,-2.0608,-2.068,-2.068,-2.068,-2.0859,-2.063,-1.9693,-2.0335,-2.063,-1.9693,-2.075,-2.1321,0.0,-2.0928,-2.1032,-2.0202,-2.0075,0.0,0.0,0.0,-2.0779,-2.0138,-2.0906,-2.1796,-2.2801,-2.2856,-2.2918,-2.3106,-2.3106,-2.3106,-2.3106,-2.3106,-2.3106,-2.3106,-2.3798,-2.417,-2.4355,-2.5578,0.0,-2.6319,-2.6882,-2.7073,-2.7073,-2.7073,-2.7073,-2.7073,-2.7073,-2.6867,-2.6585,0.0,0.0,0.0,0.0,0.0,0.0,0.0,0.0,-2.5118,-2.5635,-2.4824,-2.3552,-2.1887,-2.1735,0.0,0.0,0.0,0.0,0.0,0.0,0.0,0.0,0.0,0.0,0.0,0.0,0.0,0.0,0.0,0.0,0.0,0.0,0.0,0.0,0.0,0.0,0.0,0.0,0.0,0.0,0.0,0.0,0.0,0.0,0.0,0.0,0.0,0.0,0.0,0.0,-1.9279,-1.9279,-1.9279,-1.9279,-1.9279,-1.9279,-1.9389,-1.9639,-1.9916,-1.9762,-1.9647,-1.993,-1.9638,-1.9447,-2.0037,0.0,0.0,-2.1079,-2.1211,-2.1211,-2.1211,-2.1211,0.0,-2.063,-2.0917,-2.1039,-2.0572,-2.1328,0.0,-2.1481,-2.1838,-2.1991,0.0,-2.1657,-2.1846,0.0,0.0,-2.2167,-2.172,-2.2104,-2.2606,-2.3113,-2.3106,-2.3106,-2.3106,-2.3106,-2.3106,-2.3106,-2.3106,-2.3106,-2.3106,-2.3798,-2.4293,-2.4672,-2.5647,0.0,-2.664,-2.6952,-2.7073,-2.7073,-2.7073,-2.7073,-2.7047,-2.6842,-2.6653,-2.6465,0.0,0.0,0.0,0.0,0.0,0.0,0.0,-2.5693,-2.5693,-2.5693,-2.5693,-2.4971,-2.3044,-2.2634,-2.1836,0.0,0.0,0.0,0.0,0.0,0.0,0.0,0.0,0.0,0.0,0.0,0.0,0.0,0.0,0.0,0.0,0.0,0.0,0.0,0.0,0.0,0.0,0.0,0.0,0.0,0.0,0.0,0.0,0.0,0.0,0.0,0.0,0.0,0.0,0.0,-1.9279,-1.9279,-1.9279,-1.9279,-1.9279,-1.9279,-1.9323,-1.9491,-1.9996,-1.9769,-1.9499,-2.0011,-1.9703,-1.9447,-2.0037,-2.0183,0.0,-2.1079,-2.1211,-2.1211,-2.1211,0.0,-2.1211,0.0,-2.1211,-2.1211,-2.1211,-2.1489,-2.1818,0.0,-2.244,0.0,-2.3076,-2.3106,0.0,0.0,0.0,0.0,-2.3106,-2.3106,-2.3106,-2.3106,-2.3106,-2.3106,-2.3106,-2.3106,-2.3106,-2.3106,-2.3106,-2.3106,-2.3113,-2.3922,-2.461,-2.5173,-2.5953,0.0,0.0,-2.6944,-2.6902,-2.6833,-2.6833,-2.6833,-2.679,-2.6482,-2.6319,-2.6208,0.0,0.0,0.0,0.0,0.0,0.0,0.0,-2.5693,-2.5693,-2.5693,-2.5693,-2.5274,-2.4097,-2.3085,-2.2433,0.0,0.0,0.0,0.0,0.0,0.0,0.0,0.0,0.0,0.0,0.0,0.0,0.0,0.0,0.0,0.0,0.0,0.0,0.0,0.0,0.0,0.0,0.0,0.0,0.0,0.0,0.0,0.0,0.0,0.0,0.0,0.0,0.0,0.0,0.0,0.0,-1.9279,-1.9279,-1.9279,-1.9279,-1.9279,0.0,0.0,-1.9845,-1.9815,-1.9786,-1.9845,-1.9595,-1.9447,-2.0037,0.0,-2.0365,-2.1079,-2.1211,-2.1211,-2.1211,-2.1211,-2.1211,-2.1211,0.0,-2.1211,0.0,0.0,-2.1818,-2.214,0.0,0.0,0.0,0.0,0.0,0.0,0.0,0.0,-2.3106,-2.3106,-2.3106,-2.3106,-2.3106,-2.3106,-2.3106,-2.3106,-2.3106,-2.3106,-2.3106,-2.3106,-2.3168,-2.4417,-2.5042,-2.5173,-2.6457,0.0,0.0,-2.6542,-2.6345,-2.5987,-2.5987,-2.5987,-2.6037,-2.5944,-2.5771,-2.552,0.0,0.0,0.0,0.0,0.0,0.0,0.0,-2.5693,-2.5693,-2.5693,-2.5693,-2.5538,-2.5118,-2.4097,-2.3185,0.0,0.0,0.0,0.0,0.0,0.0,0.0,0.0,0.0,0.0,0.0,0.0,-1.9279,-1.9279,0.0,0.0,0.0,0.0,0.0,0.0,0.0,0.0,0.0,0.0,0.0,0.0,0.0,0.0,0.0,0.0,0.0,0.0,0.0,0.0,0.0,0.0,0.0,-1.9279,-1.9279,0.0,0.0,-1.9367,-1.9566,-1.9764,-1.9676,-1.9566,-1.9764,-1.9573,-1.9447,-2.0037,0.0,-2.0365,-2.1079,-2.1211,-2.1211,-2.1211,-2.1211,-2.1211,0.0,0.0,0.0,-2.1211,0.0,0.0,0.0,0.0,0.0,0.0,0.0,0.0,0.0,0.0,0.0,-2.3106,-2.3106,-2.3106,-2.3106,-2.3106,-2.3018,-2.282,-2.282,-2.2725,-2.2557,-2.2557,-2.2732,-2.3149,-2.4047,-2.4647,-2.5074,-2.5974,0.0,0.0,-2.6157,-2.6071,-2.5876,-2.5876,-2.5876,-2.585,-2.5677,-2.5497,-2.54,0.0,0.0,0.0,0.0,0.0,-2.5693,-2.5693,-2.5693,-2.5693,-2.5693,-2.5693,-2.5693,-2.5693,-2.502,-2.4254,-2.3502,0.0,0.0,0.0,0.0,0.0,0.0,0.0,0.0,0.0,0.0,-1.948,-1.9776,-1.948,-1.9279,0.0,0.0,-1.9279,0.0,0.0,0.0,0.0,0.0,0.0,0.0,0.0,0.0,0.0,0.0,0.0,0.0,0.0,0.0,0.0,0.0,0.0,0.0,0.0,0.0,0.0,0.0,-1.9279,-1.9323,-1.961,-1.95,-1.9382,-1.961,-1.9447,-1.9418,0.0,0.0,-2.0336,-2.0947,-2.1137,-2.1211,-2.1211,-2.1211,-2.1211,0.0,0.0,-2.1211,-2.1211,0.0,0.0,0.0,0.0,-2.2191,0.0,0.0,0.0,0.0,0.0,0.0,-2.2967,-2.2886,-2.2871,-2.2959,-2.2879,-2.2725,-2.2491,-2.2491,-2.2389,-2.2184,-2.2363,-2.2714,-2.3131,-2.3929,-2.4576,-2.5052,-2.5644,0.0,0.0,-2.5771,-2.5703,-2.5551,-2.5551,-2.5551,-2.5574,-2.5309,-2.5206,-2.5172,0.0,0.0,0.0,0.0,0.0,0.0,0.0,-2.5693,-2.5693,-2.5693,-2.5693,-2.5693,-2.5693,-2.5684,-2.5684,-2.5693,0.0,0.0,0.0,0.0,0.0,0.0,0.0,0.0,0.0,0.0,-1.9828,-2.0885,-1.9828,-1.9279,-1.9279,-1.9279,-1.9279,-1.9279,0.0,0.0,0.0,0.0,0.0,0.0,0.0,0.0,0.0,0.0,0.0,0.0,0.0,0.0,0.0,0.0,0.0,0.0,0.0,0.0,0.0,0.0,-1.9279,-1.9279,-1.9279,-1.9279,-1.9279,-1.9279,-1.9279,-1.9412,0.0,0.0,-2.0278,-2.0662,-2.0984,-2.1211,-2.1211,-2.1211,-2.1211,-2.1211,0.0,0.0,-2.1211,0.0,0.0,0.0,0.0,0.0,0.0,0.0,0.0,0.0,0.0,0.0,-2.263,-2.2352,-2.233,-2.2615,-2.2345,-2.2191,-2.2184,-2.2184,-2.2184,-2.2184,-2.2833,-2.3071,-2.3131,-2.4416,-2.4994,0.0,0.0,0.0,0.0,-2.5434,-2.5163,-2.483,-2.483,-2.483,-2.483,-2.483,-2.483,-2.483,0.0,0.0,0.0,0.0,0.0,0.0,0.0,-2.5693,-2.5693,-2.5693,-2.5693,-2.5693,-2.5693,-2.5693,-2.5693,-2.5693,0.0,0.0,0.0,0.0,0.0,0.0,0.0,0.0,0.0,0.0,-2.1633,-2.1988,-2.0936,-2.038,-2.038,-1.9628,-1.9279,-1.9279,-1.9279,0.0,0.0,0.0,0.0,0.0,0.0,0.0,0.0,0.0,0.0,0.0,0.0,0.0,0.0,0.0,0.0,0.0,0.0,0.0,0.0,0.0,0.0,0.0,-1.9279,-1.9279,-1.9279,-1.9279,-1.9279,-1.9412,-1.9742,0.0,0.0,-2.0611,-2.0801,-2.0947,-2.1167,-2.1211,-2.1211,-2.1211,0.0,0.0,0.0,0.0,0.0,0.0,0.0,0.0,0.0,0.0,0.0,0.0,0.0,0.0,-2.2337,-2.2023,-2.1993,-2.2308,-2.2228,-2.2081,-2.1854,-2.1854,-2.1972,-2.2148,-2.2321,-2.2839,-2.3633,-2.4032,-2.4486,0.0,0.0,0.0,0.0,-2.4992,-2.4924,-2.4821,-2.4821,-2.4821,-2.4821,-2.4821,-2.4821,-2.4821,0.0,0.0,0.0,0.0,0.0,0.0,0.0,-2.5693,-2.5693,-2.5693,-2.5693,-2.5693,-2.5693,-2.5693,-2.5693,-2.5693,0.0,0.0,0.0,0.0,0.0,0.0,0.0,0.0,0.0,-2.2894,-2.2685,-2.3085,-2.2038,-2.1285,-2.0885,-2.0233,-1.968,-1.9279,-1.9279,0.0,0.0,0.0,0.0,0.0,0.0,0.0,-1.9279,0.0,0.0,0.0,0.0,0.0,0.0,0.0,0.0,0.0,0.0,0.0,0.0,0.0,-1.9279,0.0,0.0,-1.9279,-1.9279,-1.9279,-1.9279,0.0,0.0,0.0,0.0,0.0,0.0,0.0,-2.0984,-2.113,-2.1211,-2.1211,0.0,0.0,0.0,0.0,0.0,-2.1211,0.0,0.0,0.0,0.0,0.0,0.0,0.0,0.0,-2.2015,-2.1686,-2.1606,-2.1811,-2.1818,-2.1715,-2.1511,-2.1743,-2.192,-2.2116,-2.2562,-2.3183,-2.3921,-2.4144,-2.4423,0.0,0.0,0.0,0.0,-2.4821,-2.4821,-2.4821,-2.4821,-2.4821,-2.4821,-2.4821,-2.4821,-2.4821,0.0,0.0,0.0,0.0,0.0,0.0,0.0,0.0,0.0,-2.5693,-2.5693,-2.5693,-2.5693,-2.5693,-2.5693,-2.5693,0.0,0.0,0.0,0.0,0.0,0.0,0.0,0.0,0.0,-2.3759,-2.3244,-2.4196,-2.3135,-2.2038,-2.103,-2.0936,-2.0336,-1.9279,-1.9279,0.0,0.0,0.0,0.0,0.0,0.0,0.0,0.0,0.0,0.0,0.0,0.0,0.0,0.0,0.0,0.0,0.0,0.0,0.0,0.0,0.0,0.0,0.0,0.0,-1.9376,-1.9279,0.0,0.0,0.0,0.0,0.0,0.0,0.0,0.0,0.0,0.0,0.0,0.0,0.0,0.0,0.0,0.0,-2.1211,0.0,0.0,-2.1745,0.0,0.0,0.0,0.0,0.0,0.0,0.0,-2.1679,-2.1379,-2.1211,-2.1211,-2.1211,-2.1211,-2.1211,-2.1774,-2.2059,-2.2173,-2.3239,-2.3865,-2.3968,-2.4479,-2.4765,0.0,0.0,0.0,0.0,-2.4889,-2.4881,-2.4864,-2.4864,-2.4847,-2.4821,-2.4821,-2.4821,-2.4821,0.0,0.0,0.0,0.0,0.0,0.0,0.0,0.0,0.0,0.0,-2.5693,-2.5693,-2.5693,-2.5693,-2.5693,0.0,0.0,0.0,0.0,0.0,0.0,0.0,0.0,0.0,0.0,-2.5226,-2.5079,-2.5323,-2.4254,-2.3185,-2.2089,-2.1285,-2.0336,-1.9279,-1.9279,-1.9279,0.0,0.0,0.0,0.0,0.0,0.0,0.0,0.0,0.0,0.0,-1.9279,-1.9279,0.0,0.0,0.0,0.0,0.0,0.0,0.0,0.0,-2.1089,-2.1591,-2.0739,0.0,-1.9279,-1.9279,-1.9279,-1.9279,0.0,0.0,0.0,0.0,0.0,0.0,0.0,0.0,0.0,0.0,0.0,0.0,-2.1174,0.0,0.0,-2.1211,-2.1342,0.0,0.0,0.0,0.0,0.0,0.0,-2.1935,-2.1357,-2.1247,-2.1211,-2.1211,-2.1211,-2.1211,-2.1211,-2.1325,-2.1888,-2.2788,-2.2619,-2.3239,-2.4599,-2.4256,-2.4368,0.0,0.0,0.0,-2.5266,-2.5557,-2.5506,-2.5241,-2.5241,-2.5069,-2.4821,-2.4821,-2.4821,-2.4821,0.0,0.0,0.0,0.0,0.0,0.0,0.0,0.0,0.0,0.0,0.0,0.0,0.0,0.0,0.0,0.0,0.0,0.0,0.0,0.0,0.0,0.0,0.0,0.0,-2.5693,-2.5693,-2.5693,-2.5693,-2.5118,-2.4048,-2.2492,-2.1887,-2.0783,-1.9279,-1.9279,-1.9279,0.0,0.0,0.0,0.0,-1.9279,0.0,0.0,0.0,0.0,0.0,-1.9279,-1.9279,0.0,-1.9879,-2.0431,-2.0885,0.0,0.0,0.0,0.0,-2.2038,-2.2383,-2.1785,-2.0834,-1.9931,-1.9428,-1.968,-2.0027,-2.0027,0.0,0.0,0.0,0.0,0.0,0.0,0.0,0.0,0.0,-2.1806,0.0,0.0,0.0,-2.1816,-2.1268,0.0,0.0,0.0,0.0,0.0,0.0,0.0,-2.1964,-2.1459,-2.1291,-2.1211,-2.1211,-2.1211,-2.1325,-2.1603,-2.1888,-2.2505,-2.3408,-2.3352,-2.3947,-2.5069,-2.4732,-2.4825,0.0,0.0,0.0,-2.5386,-2.5592,-2.5455,-2.5121,-2.5121,-2.4992,-2.4821,-2.4821,-2.4821,-2.4821,0.0,0.0,0.0,0.0,0.0,0.0,0.0,0.0,0.0,0.0,0.0,0.0,0.0,0.0,0.0,0.0,0.0,0.0,0.0,0.0,0.0,0.0,0.0,-2.5693,-2.5693,-2.5693,-2.5693,-2.5693,-2.5693,-2.4667,-2.2735,-2.2584,-2.1336,-1.9279,-1.9279,-1.9279,0.0,0.0,0.0,0.0,-1.9279,0.0,0.0,0.0,0.0,0.0,0.0,0.0,0.0,-2.0834,-2.1234,-2.154,-2.2291,0.0,0.0,0.0,0.0,0.0,-2.2793,-2.2089,-2.1132,-2.0078,-2.0483,-2.1132,-2.1132,0.0,0.0,0.0,0.0,0.0,0.0,-2.3185,0.0,0.0,0.0,0.0,-2.3311,-2.3247,-2.2862,-2.1873,0.0,0.0,0.0,0.0,0.0,0.0,0.0,-2.2616,-2.2285,-2.2,-2.182,-2.1767,-2.1702,-2.193,-2.2384,-2.2619,-2.3014,-2.3632,-2.4033,-2.4583,-2.517,-2.5057,-2.5284,-2.5714,0.0,0.0,-2.5378,-2.5429,-2.5241,-2.4907,-2.4907,-2.4872,-2.4821,-2.4821,-2.4821,-2.4821,0.0,0.0,0.0,0.0,0.0,0.0,0.0,0.0,0.0,0.0,0.0,0.0,0.0,0.0,0.0,0.0,0.0,0.0,0.0,0.0,0.0,0.0,-2.5693,-2.5693,-2.5693,-2.5693,-2.5693,-2.5693,-2.5693,-2.5069,-2.384,-2.2944,-2.1336,-1.9279,-1.9279,-1.9279,-1.9279,-1.9279,-1.9279,-1.9279,-1.9279,0.0,0.0,0.0,0.0,0.0,0.0,0.0,0.0,-2.219,-2.2835,-2.3493,-2.2735,0.0,0.0,0.0,0.0,0.0,-2.4097,-2.3732,-2.3335,-2.2291,-2.2139,-2.2232,-2.2232,0.0,0.0,0.0,0.0,0.0,0.0,-2.2621,-2.2664,0.0,0.0,-2.4198,0.0,0.0,-2.4394,0.0,0.0,0.0,0.0,0.0,0.0,0.0,0.0,-2.5193,-2.484,-2.4765,-2.458,-2.4189,-2.4172,-2.3966,-2.3608,-2.2214,-2.1774,-2.2392,-2.1945,-2.2593,-2.4116,-2.3601,-2.3972,-2.5009,0.0,-2.542,-2.5395,-2.572,-2.5626,-2.5283,-2.5283,-2.5095,-2.4821,-2.4821,-2.4821,-2.4821,0.0,0.0,0.0,0.0,0.0,0.0,0.0,0.0,0.0,0.0,0.0,0.0,0.0,0.0,0.0,0.0,0.0,0.0,0.0,0.0,0.0,-2.5693,-2.5693,-2.5693,-2.5693,-2.5693,-2.5693,-2.5693,-2.5693,-2.5167,-2.4038,-2.2391,-2.0783,-1.9279,-1.9279,-1.9279,-1.9279,-1.9279,-1.9279,-1.9279,0.0,0.0,0.0,0.0,0.0,0.0,0.0,0.0,0.0,0.0,-2.3683,-2.4146,-2.4205,0.0,0.0,0.0,0.0,0.0,-2.5118,-2.4962,-2.4864,-2.4362,-2.38,-2.3335,-2.3335,0.0,0.0,0.0,0.0,0.0,0.0,0.0,-2.4417,-2.5043,0.0,-2.5005,-2.5592,-2.568,0.0,0.0,0.0,0.0,0.0,0.0,0.0,0.0,0.0,0.0,-2.4962,-2.4578,-2.427,-2.4082,-2.4074,-2.3974,-2.3866,-2.23,-2.181,-2.2337,-2.2206,-2.2656,-2.3624,-2.3615,-2.4055,-2.483,0.0,-2.4949,-2.477,-2.4949,-2.4915,-2.4753,-2.4753,-2.4787,-2.4821,-2.4821,-2.4684,-2.4504,0.0,0.0,0.0,0.0,0.0,0.0,0.0,0.0,0.0,0.0,0.0,0.0,0.0,0.0,0.0,0.0,0.0,0.0,0.0,0.0,-2.5693,-2.5693,-2.5693,-2.5693,-2.5693,-2.5693,-2.5693,-2.5693,-2.5693,-2.5167,-2.4038,-2.2433,-2.0936,-1.968,-1.968,-1.9532,-1.9279,-1.9279,-1.9279,-1.9324,0.0,0.0,0.0,0.0,0.0,0.0,0.0,0.0,0.0,0.0,0.0,0.0,0.0,0.0,0.0,-2.5693,-2.5693,-2.5693,-2.5693,-2.5693,-2.5693,-2.5693,0.0,-2.4452,-2.4452,-2.5118,0.0,0.0,0.0,0.0,0.0,-2.5693,0.0,-2.6875,-2.6326,0.0,0.0,0.0,0.0,0.0,0.0,0.0,0.0,0.0,0.0,0.0,0.0,0.0,-2.5329,-2.4774,-2.4404,-2.4316,-2.4316,-2.4307,-2.4237,-2.3151,-2.2626,-2.262,-2.2516,-2.2748,-2.3244,-2.367,-2.4102,-2.4547,-2.4547,-2.4376,-2.4102,-2.4102,-2.4102,-2.4102,-2.4102,-2.4282,-2.4547,-2.4547,-2.4359,-2.4102,0.0,0.0,0.0,0.0,0.0,0.0,0.0,0.0,0.0,0.0,0.0,0.0,0.0,0.0,0.0,0.0,0.0,0.0,0.0,0.0,-2.5693,-2.5693,-2.5693,-2.5693,-2.5693,-2.5693,-2.5693,-2.5693,-2.5693,-2.5167,-2.4088,-2.3939,-2.2793,-2.0783,-2.0783,-2.0233,-1.9279,-1.9279,-1.9279,-1.9376,-2.038,0.0,0.0,0.0,0.0,0.0,0.0,0.0,0.0,0.0,0.0,0.0,0.0,0.0,-2.5693,-2.5693,-2.5693,-2.5693,-2.5693,-2.5693,-2.5693,-2.5693,-2.5635,0.0,-2.5586,-2.5635,0.0,-2.5693,0.0,0.0,0.0,-2.5693,0.0,0.0,0.0,0.0,0.0,0.0,0.0,0.0,0.0,0.0,0.0,0.0,0.0,0.0,0.0,0.0,-2.7495,-2.7437,-2.7214,-2.6756,-2.6746,-2.6317,-2.5496,-2.5066,-2.4255,-2.3036,-2.1796,-2.1812,-2.2827,-2.2881,-2.3201,-2.3795,-2.3795,-2.3787,-2.3761,-2.3761,-2.3761,-2.3761,-2.3761,-2.377,-2.3795,-2.3795,-2.3787,-2.3761,0.0,0.0,0.0,0.0,0.0,0.0,0.0,0.0,0.0,0.0,0.0,0.0,0.0,0.0,0.0,0.0,0.0,0.0,0.0,0.0,-2.5693,-2.5693,-2.5693,-2.5693,-2.5693,-2.5693,-2.5693,-2.5693,-2.5693,-2.5167,-2.4088,-2.3434,-2.2685,-2.1887,-2.1183,-2.068,-2.0277,-2.0277,-2.0277,-2.0328,-2.0731,-2.1285,0.0,0.0,0.0,0.0,0.0,0.0,0.0,0.0,-2.5693,-2.5693,0.0,0.0,-2.5693,-2.5693,-2.5693,-2.5693,-2.5693,-2.5693,-2.5693,-2.5693,-2.5693,0.0,0.0,-2.5693,-2.5693,-2.5693,-2.5693,0.0,0.0,0.0,0.0,0.0,0.0,0.0,0.0,0.0,0.0,0.0,0.0,0.0,0.0,0.0,0.0,0.0,0.0,0.0,-2.6875,-2.6611,-2.6387,-2.6181,-2.6171,-2.6201,-2.6182,-2.5197,-2.4799,-2.4958,-2.3091,-2.244,-2.286,-2.2714,-2.2817,-2.3023,-2.3023,-2.3023,-2.3023,-2.3023,-2.316,-2.3348,-2.3624,-2.3718,-2.3718,-2.3682,-2.3537,-2.3323,0.0,0.0,0.0,0.0,0.0,0.0,0.0,0.0,0.0,0.0,0.0,0.0,0.0,0.0,0.0,0.0,0.0,0.0,0.0,-2.5693,-2.5693,-2.5693,-2.5693,-2.5693,-2.5693,-2.5693,-2.5693,-2.5693,-2.5693,-2.5323,-2.4609,-2.385,-2.3352,-2.2985,-2.224,-2.1735,-2.1387,-2.1387,-2.1387,-2.1438,-2.1785,-2.2333,0.0,0.0,0.0,0.0,0.0,0.0,0.0,0.0,0.0,0.0,0.0,0.0,0.0,0.0,-2.5693,-2.5693,-2.5693,-2.5693,-2.5693,0.0,0.0,0.0,-2.5693,-2.5693,-2.5693,-2.5693,-2.5693,-2.5693,-2.5693,0.0,0.0,0.0,0.0,0.0,0.0,0.0,0.0,0.0,0.0,0.0,0.0,0.0,0.0,0.0,0.0,0.0,0.0,-2.5849,-2.5693,-2.5693,-2.5781,-2.6062,-2.6496,-2.5693,-2.5693,-2.6486,-2.4707,-2.3619,-2.3129,-2.2987,-2.2846,-2.2594,-2.2594,-2.2594,-2.2594,-2.2594,-2.2748,-2.2963,-2.3263,-2.3358,-2.3366,-2.3331,-2.3169,-2.2937,0.0,0.0,0.0,0.0,0.0,0.0,0.0,0.0,0.0,0.0,0.0,0.0,0.0,0.0,0.0,0.0,0.0,0.0,0.0,-2.5693,-2.5693,-2.5693,-2.5693,-2.5693,-2.5693,-2.5693,-2.5693,-2.5693,-2.5693,-2.5693,-2.5693,-2.5684,-2.5118,-2.4088,-2.4088,-2.3493,-2.2534,-2.2534,-2.2534,-2.2593,-2.3683,-2.4088,-2.4245,0.0,0.0,0.0,0.0,0.0,0.0,0.0,-2.5693,0.0,0.0,0.0,0.0,0.0,-2.5693,-2.5693,-2.5693,-2.5693,-2.5693,0.0,0.0,0.0,-2.5693,-2.5693,-2.5693,-2.5693,0.0,-2.5693,-2.5693,0.0,0.0,-2.6318,0.0,0.0,0.0,0.0,0.0,0.0,0.0,0.0,0.0,0.0,0.0,0.0,0.0,0.0,0.0,-2.5693,-2.5693,-2.5693,-2.5955,-2.6245,-2.6496,-2.6757,-2.7034,-2.7309,-2.6486,-2.5255,-2.3728,-2.3728,-2.3288,-2.2594,-2.2594,-2.2594,-2.2594,-2.2594,-2.2594,-2.2594,-2.2594,-2.2594,-2.2594,-2.2594,-2.2594,-2.2594,0.0,0.0,0.0,0.0,0.0,0.0,0.0,0.0,0.0,0.0,0.0,0.0,0.0,0.0,0.0,0.0,0.0,0.0,0.0,-2.61,-2.5693,-2.5693,-2.5693,-2.5693,-2.5693,-2.5693,-2.5693,-2.5693,-2.5693,-2.5693,-2.5684,-2.4913,-2.4815,-2.5167,-2.4452,-2.3939,-2.3642,-2.3642,-2.3642,-2.3633,-2.3989,-2.455,-2.5274,0.0,0.0,0.0,0.0,0.0,0.0,0.0,0.0,0.0,0.0,0.0,0.0,-2.5693,-2.5693,-2.5693,-2.5693,-2.5693,0.0,-2.5693,0.0,0.0,0.0,0.0,0.0,0.0,0.0,-2.5693,-2.5693,0.0,0.0,-2.6318,0.0,0.0,0.0,0.0,0.0,0.0,0.0,0.0,0.0,0.0,0.0,0.0,0.0,0.0,0.0,-2.5868,-2.5955,-2.5955,-2.6255,-2.6496,-2.6805,-2.6853,-2.7034,-2.7309,-2.7061,-2.638,-2.5362,-2.4223,-2.3587,-2.3329,-2.2846,-2.2594,-2.2594,-2.2594,-2.2594,-2.2594,-2.2594,-2.2594,-2.2594,-2.2594,-2.2594,-2.2695,0.0,0.0,0.0,0.0,0.0,0.0,0.0,0.0,0.0,0.0,0.0,0.0,0.0,0.0,0.0,0.0,0.0,0.0,0.0,0.0,-2.5693,-2.5693,-2.5693,-2.5693,-2.5693,-2.5693,-2.5693,-2.5693,-2.5693,-2.5693,-2.5693,-2.502,-2.5069,-2.5684,-2.502,-2.4756,-2.4756,-2.4756,-2.4756,-2.4756,-2.4756,-2.5118,-2.5693,0.0,0.0,0.0,0.0,0.0,0.0,0.0,0.0,0.0,0.0,0.0,0.0,-2.5693,-2.5693,-2.5693,-2.5693,-2.5693,0.0,-2.5693,-2.5693,-2.5693,-2.5693,0.0,0.0,0.0,0.0,-2.5693,-2.5693,-2.5693,0.0,0.0,0.0,0.0,0.0,0.0,0.0,0.0,0.0,0.0,0.0,0.0,0.0,0.0,0.0,0.0,0.0,-2.5868,-2.5965,-2.5965,-2.6197,-2.6448,-2.6747,-2.6853,-2.7034,-2.7309,-2.7309,-2.7071,-2.6534,-2.5255,-2.4322,-2.3678,-2.2946,-2.2594,-2.2594,-2.2594,-2.2594,-2.2594,-2.2594,-2.2594,-2.2594,-2.2594,-2.2795,-2.3088,0.0,0.0,0.0,0.0,0.0,0.0,0.0,0.0,0.0,0.0,0.0,0.0,0.0,0.0,0.0,0.0,0.0,0.0,0.0,0.0,-2.5781,-2.5693,-2.5693,-2.5693,-2.5693,-2.5693,-2.5693,-2.5693,-2.5693,-2.5693,-2.5693,-2.5693,-2.5693,-2.5693,-2.5693,-2.5693,-2.5693,-2.5693,-2.5693,-2.5693,-2.5693,-2.5693,-2.5693,-2.5693,0.0,0.0,0.0,0.0,0.0,0.0,0.0,0.0,0.0,0.0,-2.5693,-2.5693,-2.5693,-2.5693,-2.5693,0.0,0.0,-2.5693,-2.5693,0.0,-2.5693,-2.5693,-2.5693,-2.5693,0.0,-2.5693,0.0,0.0,0.0,0.0,0.0,0.0,0.0,0.0,0.0,0.0,0.0,0.0,0.0,0.0,0.0,0.0,0.0,0.0,0.0,-2.5732,-2.5732,-2.5781,-2.6014,-2.6304,-2.6544,-2.6794,-2.7081,-2.7309,-2.7309,-2.7309,-2.7262,-2.6486,-2.5206,-2.3678,-2.2996,-2.2644,-2.2594,-2.2594,-2.2594,-2.2594,-2.2594,-2.2594,-2.2594,-2.2594,-2.3097,-2.3728,0.0,0.0,0.0,0.0,0.0,0.0,0.0,0.0,0.0,0.0,0.0,0.0,0.0,0.0,0.0,0.0,0.0,0.0,0.0,0.0,-2.6552,-2.5732,-2.5693,-2.5693,-2.5693,-2.5693,-2.5693,-2.5693,-2.5693,-2.5693,-2.5693,-2.5693,-2.5693,-2.5693,-2.5693,-2.5693,-2.5693,-2.5693,-2.5693,-2.5693,-2.5693,-2.5693,-2.5693,-2.5693,-2.5693,0.0,0.0,0.0,0.0,0.0,0.0,0.0,-2.5693,-2.5693,-2.5693,-2.5693,-2.5693,-2.5693,0.0,-2.5693,0.0,0.0,-2.5693,-2.5693,-2.5693,-2.5693,-2.5693,-2.5693,-2.5693,-2.5693,0.0,0.0,0.0,0.0,0.0,0.0,0.0,0.0,0.0,0.0,0.0,0.0,0.0,0.0,0.0,0.0,0.0,0.0,-2.6004,-2.6004,-2.611,-2.6304,-2.6602,-2.6747,-2.6794,-2.7081,-2.7262,0.0,-2.7309,-2.7309,-2.7262,-2.6486,-2.5206,-2.3678,-2.3529,-2.3138,-2.2594,-2.2594,-2.2594,-2.2594,-2.2594,-2.2594,-2.2594,-2.2594,-2.3097,-2.3777,0.0,0.0,0.0,0.0,0.0,0.0,0.0,0.0,0.0,0.0,0.0,0.0,0.0,0.0,0.0,0.0,0.0,0.0,0.0,0.0,0.0,0.0,-2.5693,0.0,0.0,0.0,-2.5693,-2.5693,-2.5693,-2.5693,-2.5693,-2.5693,-2.5693,-2.5693,-2.5693,-2.5693,-2.5693,-2.5693,-2.5693,-2.5693,-2.5693,-2.5693,-2.5693,-2.5693,-2.5693,-2.5693,-2.5693,0.0,0.0,0.0,0.0,0.0,0.0,0.0,-2.5693,-2.5693,-2.5693,-2.5693,0.0,0.0,0.0,0.0,0.0,0.0,-2.5693,-2.5693,-2.5693,-2.5693,-2.5693,0.0,0.0,0.0,0.0,0.0,0.0,0.0,0.0,0.0,0.0,0.0,0.0,0.0,0.0,0.0,0.0,0.0,0.0,-2.6014,-2.6294,-2.6294,-2.6352,-2.6496,-2.6651,-2.6747,-2.69,-2.7034,-2.7177,-2.7309,-2.7309,-2.7309,-2.7262,-2.6486,-2.5654,-2.4815,-2.4026,-2.3488,-2.3088,-2.2745,-2.2594,-2.2594,-2.2594,-2.2594,-2.2594,-2.2594,-2.3329,-2.4313,0.0,0.0,0.0,0.0,0.0,0.0,0.0,0.0,0.0,0.0,0.0,0.0,0.0,0.0,0.0,0.0,0.0,0.0,0.0,0.0,0.0,0.0,0.0,0.0,0.0,0.0,0.0,0.0,0.0,0.0,0.0,0.0,0.0,-2.5693,-2.5693,-2.5693,-2.5693,-2.5693,-2.5693,-2.5693,-2.5693,-2.5693,-2.5693,-2.5693,-2.5693,-2.5693,-2.5693,-2.5693,-2.5693,-2.5693,0.0,0.0,0.0,0.0,-2.5693,-2.5693,-2.5693,-2.5693,0.0,0.0,0.0,0.0,0.0,0.0,0.0,-2.5693,0.0,0.0,0.0,0.0,0.0,0.0,0.0,0.0,0.0,0.0,0.0,0.0,0.0,0.0,0.0,0.0,0.0,0.0,0.0,0.0,0.0,-2.6207,-2.6554,-2.6496,-2.6448,-2.6554,-2.6673,-2.681,-2.7013,-2.7143,-2.727,-2.7452,-2.7452,-2.7458,-2.7376,-2.6693,-2.6315,-2.6042,-2.4716,-2.3976,-2.3628,-2.3038,-2.2695,-2.2594,-2.2594,-2.2594,-2.2594,-2.2594,-2.3578,-2.4894,0.0,0.0,0.0,0.0,0.0,0.0,0.0,0.0,0.0,0.0,0.0,0.0,0.0,0.0,0.0,0.0,0.0,0.0,0.0,0.0,0.0,0.0,-2.5693,0.0,0.0,0.0,0.0,0.0,0.0,0.0,0.0,0.0,0.0,-2.5693,0.0,-2.5693,-2.5693,-2.5693,-2.5693,-2.5693,-2.5693,-2.5693,-2.5693,-2.5693,-2.5693,-2.5693,-2.5693,-2.5693,-2.5693,-2.5693,-2.5693,0.0,0.0,0.0,-2.5693,-2.5693,-2.5693,-2.5693,0.0,0.0,0.0,0.0,0.0,0.0,0.0,0.0,0.0,0.0,0.0,0.0,0.0,0.0,0.0,0.0,0.0,0.0,0.0,0.0,0.0,0.0,0.0,0.0,0.0,0.0,0.0,0.0,-2.5868,-2.6072,-2.6805,-2.64,-2.6352,-2.6853,-2.7258,-2.7452,-2.75,-2.8087,-2.8293,-2.8054,-2.8054,-2.7988,-2.7841,-2.7685,-2.7081,-2.61,-2.5849,-2.5011,-2.3678,-2.3578,-2.3188,-2.2594,-2.2594,-2.2594,-2.2594,-2.2594,-2.3578,-2.4894,0.0,0.0,0.0,0.0,0.0,0.0,0.0,0.0,0.0,0.0,0.0,0.0,0.0,0.0,0.0,0.0,0.0,0.0,0.0,0.0,0.0,-2.5693,-2.5693,-2.5693,-2.5693,0.0,0.0,0.0,0.0,0.0,0.0,-2.5693,-2.5693,0.0,0.0,0.0,-2.5693,-2.5693,-2.5693,-2.5693,-2.5693,-2.5693,-2.5693,-2.5693,-2.5693,-2.5693,-2.5693,-2.5693,-2.5693,-2.5693,-2.5693,-2.5693,-2.5693,0.0,0.0,0.0,-2.5693,0.0,-2.5693,0.0,0.0,0.0,0.0,0.0,0.0,0.0,0.0,0.0,0.0,0.0,0.0,0.0,0.0,0.0,0.0,0.0,0.0,0.0,0.0,0.0,0.0,0.0,0.0,0.0,0.0,0.0,-2.6004,-2.6159,-2.6651,-2.6448,-2.6559,-2.7005,-2.7197,-2.7469,-2.7712,-2.8015,-2.8116,-2.7975,-2.8137,-2.8175,-2.807,-2.8219,-2.7729,-2.6774,-2.6294,-2.545,-2.4362,-2.3877,-2.3288,-2.2594,-2.2594,-2.2594,-2.2644,-2.3038,-2.3917,-2.4943,0.0,0.0,0.0,0.0,0.0,0.0,0.0,0.0,0.0,0.0,0.0,0.0,0.0,0.0,0.0,0.0,0.0,0.0,0.0,0.0,0.0,-2.5693,-2.5693,-2.5693,-2.5693,0.0,0.0,0.0,0.0,0.0,-2.5693,-2.5693,-2.5693,0.0,-2.5693,-2.5693,0.0,-2.5693,-2.5693,-2.5693,-2.5693,-2.5693,-2.5693,-2.5693,-2.5693,-2.5693,-2.5693,-2.5693,-2.5693,-2.5693,-2.5693,-2.5693,-2.5693,-2.5693,0.0,0.0,0.0,0.0,0.0,0.0,0.0,0.0,0.0,0.0,0.0,0.0,0.0,0.0,0.0,0.0,0.0,0.0,0.0,0.0,0.0,0.0,0.0,0.0,0.0,0.0,0.0,0.0,0.0,0.0,0.0,0.0,-2.6052,-2.6159,-2.6496,-2.6448,-2.659,-2.7081,-2.7201,-2.7482,-2.7975,-2.8096,-2.8207,-2.836,-2.8472,-2.8513,-2.8502,-2.8693,-2.8359,-2.7603,-2.7013,-2.6271,-2.5513,-2.4868,-2.4236,-2.3529,-2.3529,-2.3529,-2.3631,-2.4176,-2.4868,-2.5612,0.0,0.0,0.0,0.0,0.0,0.0,0.0,0.0,0.0,0.0,0.0,0.0,0.0,-3.1661,-3.1238,-3.0215,-2.9235,-2.7851,-2.5917,-2.5732,-2.5693,-2.5693,-2.5693,0.0,-2.5693,-2.5693,0.0,0.0,0.0,0.0,-2.5693,-2.5693,-2.5693,-2.5693,-2.5693,-2.5693,-2.5693,0.0,0.0,-2.5693,-2.5693,-2.5693,-2.5693,-2.5693,-2.5693,-2.5693,-2.5693,-2.5693,-2.5693,-2.5693,-2.5693,-2.5693,-2.5693,-2.5693,-2.5693,0.0,0.0,0.0,0.0,0.0,0.0,0.0,0.0,0.0,0.0,0.0,0.0,0.0,0.0,0.0,0.0,0.0,0.0,0.0,0.0,0.0,0.0,0.0,0.0,0.0,0.0,0.0,0.0,0.0,0.0,0.0,-2.5868,-2.5975,-2.6448,-2.6245,-2.6445,-2.7081,-2.7502,-2.7995,-2.8448,-2.886,-2.9335,-2.9869,-2.965,-2.9424,-2.9219,-2.927,-2.9001,-2.8545,-2.8495,-2.7985,-2.7269,-2.7219,-2.6761,-2.6087,-2.6087,-2.6087,-2.6087,-2.6138,-2.6659,-2.7269,0.0,0.0,0.0,0.0,0.0,0.0,0.0,0.0,0.0,0.0,0.0,0.0,0.0,-3.1705,-3.1294,-3.0306,-2.868,-2.7699,-2.7626,-2.6428,-2.5693,-2.5693,-2.5693,-2.5693,-2.5693,-2.5693,0.0,0.0,0.0,-2.5693,-2.5693,-2.5693,-2.5693,-2.5693,-2.5693,-2.5693,-2.5693,-2.5693,0.0,0.0,0.0,0.0,-2.5781,-2.6418,-2.6638,-2.6733,-2.7389,-2.72,-2.6638,-2.6638,-2.6638,-2.6638,-2.6638,-2.7115,-2.7484,-2.6829,-2.6187,-2.5693,0.0,0.0,0.0,0.0,0.0,0.0,0.0,0.0,0.0,0.0,0.0,0.0,0.0,0.0,0.0,0.0,0.0,0.0,0.0,0.0,0.0,0.0,0.0,0.0,0.0,0.0,0.0,0.0,0.0,-2.6251,-2.6448,-2.634,-2.6537,-2.702,-2.7505,-2.7939,-2.8374,-2.8532,-2.8771,-2.9152,-2.9248,-2.9367,-2.9475,-2.9694,-2.9653,-2.9497,-2.9497,-2.8696,-2.7389,-2.7389,-2.6982,-2.6307,-2.6307,-2.6307,-2.6359,-2.682,-2.7186,-2.7491,0.0,0.0,0.0,0.0,0.0,0.0,0.0,0.0,0.0,0.0,0.0,0.0,0.0,0.0,-3.1294,-3.0306,-2.868,-2.784,-2.8168,-2.661,-2.5693,-2.5693,-2.5693,-2.5693,-2.5693,-2.5693,-2.5693,0.0,0.0,0.0,0.0,-2.5693,-2.5693,-2.5693,-2.5693,-2.5693,0.0,0.0,0.0,-2.5732,0.0,0.0,-2.6322,0.0,0.0,-2.7793,-2.8448,-2.8262,-2.7699,-2.7699,-2.7699,-2.7699,-2.7699,-2.8168,-2.8495,-2.751,-2.6733,-2.6139,-2.5781,0.0,0.0,0.0,0.0,0.0,0.0,0.0,0.0,0.0,0.0,0.0,0.0,0.0,0.0,0.0,0.0,0.0,0.0,0.0,0.0,0.0,0.0,0.0,0.0,0.0,0.0,0.0,0.0,0.0,-2.6742,-2.6742,-2.6888,-2.7217,-2.7646,-2.8061,-2.8451,-2.8504,-2.8717,-2.8993,-2.9248,-2.9511,-2.9722,-2.9942,-2.9994,-2.9994,-2.9994,-2.9331,-2.8247,-2.8247,-2.799,-2.7567,-2.7567,-2.7567,-2.7619,-2.8093,-2.8247,-2.8359,0.0,0.0,0.0,0.0,0.0,0.0,0.0,0.0,0.0,-3.1705,0.0,0.0,0.0,0.0,0.0,-3.0351,-2.9326,-2.8355,-2.7332,-2.6332,-2.5781,-2.5781,-2.5781,-2.5781,-2.5781,-2.5781,-2.5732,0.0,0.0,0.0,0.0,0.0,-2.5742,-2.5732,-2.5684,-2.5732,-2.5781,0.0,-2.5732,-2.582,0.0,-2.7237,-2.7332,0.0,0.0,0.0,-2.8773,-2.8773,-2.8727,-2.8727,-2.8727,-2.8773,-2.8773,-2.8773,-2.8541,-2.7558,-2.7237,-2.701,0.0,0.0,0.0,0.0,0.0,0.0,0.0,0.0,0.0,0.0,0.0,0.0,0.0,0.0,0.0,0.0,0.0,0.0,0.0,0.0,0.0,0.0,0.0,0.0,0.0,0.0,0.0,0.0,-2.7379,-2.7379,-2.7379,-2.7389,-2.7505,-2.7728,-2.8076,-2.8408,-2.8684,-2.893,-2.9237,-2.9606,-2.9837,-2.9994,-2.9994,-2.9994,-2.9994,-2.9994,-2.9994,-2.9994,-2.9994,-2.9994,-2.9994,-2.9994,-2.9994,-2.9994,-2.9994,-2.9994,-2.9994,-2.9994,0.0,0.0,0.0,0.0,0.0,0.0,0.0,0.0,-3.1705,0.0,0.0,0.0,-3.1705,-3.1705,-3.1617,-3.1294,-3.0351,-2.9658,-2.9372,-2.8402,-2.7851,-2.7851,-2.7851,-2.7851,-2.7851,-2.7152,0.0,0.0,0.0,0.0,0.0,0.0,0.0,0.0,-2.6004,-2.6514,-2.7804,-2.7105,0.0,-2.6867,-2.7887,-2.8308,0.0,0.0,0.0,0.0,0.0,-3.0396,-2.9795,-2.9795,-2.9795,-2.9932,-3.0633,-3.0351,-2.9749,-2.9464,-2.8355,-2.7142,-2.6867,0.0,0.0,0.0,0.0,0.0,0.0,0.0,0.0,0.0,0.0,0.0,0.0,0.0,0.0,0.0,0.0,0.0,0.0,0.0,0.0,0.0,0.0,0.0,0.0,0.0,0.0,0.0,-2.6829,-2.6703,-2.6703,-2.6947,-2.7508,-2.8423,-2.8339,-2.8408,-2.8684,-2.8558,-2.8761,-2.9237,-2.929,-2.9564,-2.9994,-2.9994,-2.9994,-2.9994,-2.9994,-2.9994,-2.9994,-2.9994,-2.9994,-2.9994,-2.9994,-2.9994,-2.9994,-2.9994,-2.9994,-2.9994,0.0,0.0,0.0,0.0,0.0,0.0,0.0,0.0,-3.1705,0.0,0.0,0.0,-3.1705,-3.1705,-3.1705,-3.1705,-3.0767,-3.0215,-3.0215,-2.9235,-2.868,-2.868,-2.8308,-2.8262,-2.868,-2.7295,0.0,0.0,0.0,0.0,0.0,0.0,0.0,0.0,0.0,0.0,0.0,0.0,0.0,0.0,-2.8912,0.0,0.0,-3.0453,-3.0824,0.0,0.0,0.0,-3.0824,-3.0824,-3.0824,-3.0913,-3.1516,-3.1294,-3.0722,-3.0306,-2.905,-2.7746,-2.7321,-2.6466,0.0,0.0,0.0,0.0,-2.5693,-2.5693,0.0,0.0,0.0,0.0,0.0,0.0,0.0,0.0,0.0,0.0,0.0,0.0,0.0,0.0,0.0,0.0,0.0,-2.7155,-2.7155,-2.7155,-2.6929,-2.6842,-2.6842,-2.7017,-2.7442,-2.7963,-2.7816,-2.7957,-2.8301,-2.8239,-2.8486,-2.893,-2.9026,-2.929,-2.9617,-2.9617,-2.9722,-2.9827,-2.9827,-2.9889,-2.9994,-2.9994,-2.9994,-2.9994,-2.9994,-2.9994,-2.9994,-2.9994,-2.9994,-2.9994,0.0,0.0,0.0,0.0,0.0,0.0,0.0,0.0,0.0,0.0,-3.1705,-3.1705,-3.1705,-3.1705,-3.1705,-3.1705,-3.0869,-3.0351,-3.0351,-2.9521,-2.905,-2.905,-2.8168,-2.8121,-2.9004,-2.7163,0.0,0.0,0.0,0.0,0.0,0.0,0.0,0.0,0.0,0.0,0.0,0.0,0.0,-2.9096,-3.0034,-3.0351,0.0,0.0,-3.1705,-3.1705,-3.1705,-3.1705,-3.1705,-3.1705,-3.1705,-3.1705,-3.1705,-3.1705,-3.1516,-3.0633,-2.9567,-2.8495,-2.7605,-2.6552,-2.5693,-2.5693,-2.5693,0.0,-2.5693,-2.5693,-2.5693,0.0,0.0,0.0,0.0,0.0,0.0,0.0,0.0,0.0,0.0,0.0,0.0,0.0,0.0,0.0,-2.717,-2.72,-2.72,-2.72,-2.72,-2.722,-2.7279,-2.7279,-2.7197,-2.7063,-2.7012,-2.7197,-2.764,-2.789,-2.8182,-2.8589,-2.883,-2.8999,-2.9009,-2.9059,-2.9237,-2.9554,-2.9554,-2.9669,-2.9889,-2.9942,-2.9994,-2.9994,-2.9994,-2.9994,-2.9994,-2.9994,-2.9994,-2.9994,-3.1705,0.0,0.0,0.0,0.0,0.0,0.0,0.0,0.0,-3.1705,-3.1705,-3.1705,-3.1705,-3.1705,-3.1705,-3.1705,-3.1516,-3.1427,-3.1427,-3.1238,-3.1104,-3.1104,-3.0913,-3.0913,-3.1104,-2.9943,0.0,0.0,0.0,0.0,0.0,0.0,0.0,0.0,0.0,0.0,0.0,0.0,0.0,-3.1149,-3.1339,0.0,-3.1427,-3.1617,-3.1705,-3.1705,-3.1705,-3.1705,-3.1705,-3.1705,-3.1705,-3.1705,-3.1705,-3.1705,-3.1661,-3.1472,-3.0125,-2.868,-2.8448,-2.7067,-2.5693,-2.5693,-2.5693,0.0,-2.5693,-2.5693,-2.5693,0.0,0.0,0.0,0.0,0.0,0.0,0.0,0.0,0.0,0.0,0.0,0.0,0.0,0.0,0.0,-2.6026,-2.6026,-2.6026,-2.6026,-2.6026,-2.6182,-2.6584,-2.6604,-2.6801,-2.7288,-2.7114,-2.7153,-2.7477,-2.7282,-2.7373,-2.7657,-2.8066,-2.8391,-2.8619,-2.8971,-2.9132,-2.9185,-2.9185,-2.9237,-2.929,-2.9564,-2.9827,-2.9994,-2.9994,-2.9994,-2.9994,-2.9994,-2.9994,-2.9994,-3.1705,0.0,0.0,0.0,0.0,0.0,0.0,0.0,0.0,0.0,-3.1705,-3.1705,-3.1705,-3.1705,-3.1705,-3.1705,-3.1705,-3.1705,-3.1705,-3.1705,-3.1705,-3.1705,-3.1238,-3.1193,-3.1705,-3.0215,0.0,0.0,0.0,0.0,0.0,0.0,0.0,0.0,0.0,0.0,0.0,0.0,-3.1238,-3.1705,-3.1705,0.0,-3.1705,-3.1705,-3.1705,-3.1705,-3.1705,-3.1705,-3.1705,-3.1705,-3.1705,0.0,-3.1705,-3.1705,-3.1705,-3.1705,-3.026,-2.868,-2.868,-2.721,0.0,-2.5693,-2.5693,0.0,0.0,-2.5693,-2.5693,0.0,0.0,0.0,0.0,0.0,0.0,0.0,0.0,0.0,0.0,0.0,0.0,0.0,0.0,0.0,-2.5693,-2.5693,-2.5693,-2.5693,-2.5693,-2.5781,-2.6055,-2.6064,-2.6202,-2.6556,-2.6417,-2.6525,-2.6891,-2.675,-2.6857,-2.7206,-2.7422,-2.7643,-2.7766,-2.8192,-2.8495,-2.86,-2.883,-2.9089,-2.9343,-2.9554,-2.9774,-2.9994,-2.9994,-2.9994,-2.9994,-2.9994,-2.9994,-2.9994,-3.1705,0.0,0.0,0.0,0.0,0.0,0.0,0.0,0.0,0.0,0.0,-3.1705,-3.1705,-3.1705,-3.1705,-3.1705,-3.1705,-3.1705,-3.1705,-3.1705,-3.1705,-3.1705,-3.0913,-3.0869,-3.1661,-3.0125,-3.0068,0.0,0.0,0.0,0.0,0.0,0.0,0.0,0.0,0.0,0.0,0.0,0.0,-3.1705,0.0,-3.1705,-3.1705,-3.1705,-3.1705,-3.1705,-3.1705,-3.1705,-3.1705,-3.1705,-3.1705,-3.1705,-3.1705,-3.1705,0.0,0.0,-3.0396,-2.8958,0.0,0.0,0.0,0.0,0.0,-2.5693,0.0,0.0,0.0,0.0,0.0,0.0,0.0,0.0,0.0,0.0,0.0,0.0,0.0,0.0,0.0,0.0,0.0,0.0,0.0,-2.5781,-2.5781,-2.5781,-2.5781,-2.5781,-2.5781,-2.5781,-2.5732,-2.5693,-2.5693,-2.5859,-2.626,-2.6269,-2.6435,-2.6768,-2.6855,-2.6894,-2.6904,-2.7344,-2.7685,-2.7902,-2.8216,-2.8678,-2.9221,-2.9264,-2.9482,-2.9784,-2.9942,-2.9994,-2.9994,-2.9994,-2.9994,-2.9994,-3.1705,-3.1705,0.0,0.0,0.0,0.0,0.0,0.0,0.0,0.0,0.0,0.0,-3.1705,-3.1705,-3.1705,-3.1705,-3.1705,-3.1705,-3.1705,-3.1705,-3.1705,-3.1705,-3.1617,-3.1572,-3.1705,-3.1472,-3.1472,0.0,0.0,0.0,0.0,0.0,0.0,0.0,-3.1572,0.0,0.0,0.0,-3.1705,0.0,-3.1705,-3.1705,0.0,-3.1705,-3.1705,-3.1705,-3.1705,-3.1705,-3.1705,0.0,-3.1705,-3.1705,0.0,-3.1705,-3.1705,-3.1705,0.0,0.0,0.0,0.0,0.0,0.0,-2.5693,0.0,0.0,0.0,-2.5693,-2.5693,0.0,0.0,0.0,0.0,0.0,0.0,0.0,0.0,0.0,0.0,0.0,0.0,0.0,0.0,0.0,-2.6052,-2.6052,-2.6052,-2.6052,-2.6052,-2.6052,-2.6052,-2.5965,-2.5684,-2.5693,-2.5713,-2.5762,-2.5762,-2.5791,-2.584,-2.6269,-2.6455,-2.6475,-2.6894,-2.709,-2.7141,-2.719,-2.7486,-2.7944,-2.8185,-2.8528,-2.894,-2.9679,-2.9994,-2.9994,-2.9994,-2.9994,-2.9994,-3.1705,-3.1705,0.0,0.0,0.0,0.0,0.0,0.0,0.0,0.0,0.0,0.0,-3.1705,-3.1705,-3.1705,-3.1705,-3.1705,-3.1705,0.0,-3.1705,-3.1705,-3.1705,-3.1705,-3.1705,-3.1705,-3.1705,-3.1705,-3.1705,-3.1705,0.0,0.0,0.0,0.0,0.0,-3.1705,0.0,-3.1705,0.0,-3.1705,0.0,0.0,0.0,0.0,-3.1705,-3.1705,-3.1705,-3.1705,-3.1705,-3.1705,0.0,-3.1705,0.0,0.0,0.0,0.0,-3.1705,0.0,0.0,0.0,0.0,0.0,0.0,0.0,0.0,-2.5693,0.0,-2.5693,0.0,0.0,0.0,0.0,0.0,0.0,0.0,-2.5567,0.0,0.0,0.0,0.0,0.0,0.0,0.0,0.0,0.0,0.0,0.0,-2.5868,-2.5868,-2.5868,-2.5868,-2.583,-2.5693,-2.5693,-2.5693,-2.5693,-2.5693,-2.5693,-2.5693,-2.5918,-2.6006,-2.6025,-2.6455,-2.665,-2.665,-2.665,-2.6849,-2.7189,-2.7182,-2.7382,-2.7723,-2.8489,-2.9023,-2.9394,-2.9549,-2.9425,-2.9197,-3.1705,-3.1705,0.0,0.0,0.0,0.0,0.0,0.0,0.0,0.0,0.0,0.0,-3.1705,-3.1705,-3.1705,-3.1705,-3.1705,-3.1705,0.0,0.0,-3.1705,-3.1705,-3.1705,-3.1705,-3.1705,-3.1705,-3.1705,-3.1705,0.0,0.0,0.0,0.0,0.0,0.0,0.0,-3.1705,-3.1705,0.0,-3.1705,-3.1705,-3.1705,-3.1705,-3.1705,-3.1705,-3.1705,-3.1705,-3.1705,-3.1705,-3.1705,-3.1705,-3.1705,0.0,-3.1705,0.0,-3.1705,0.0,0.0,0.0,-2.905,0.0,0.0,0.0,0.0,0.0,0.0,0.0,0.0,0.0,0.0,0.0,0.0,0.0,0.0,0.0,0.0,-2.5361,0.0,0.0,0.0,0.0,0.0,0.0,0.0,0.0,0.0,-2.583,-2.5722,-2.5653,-2.5653,-2.5653,-2.5605,-2.5557,-2.5625,-2.5625,-2.5557,-2.5557,-2.5498,-2.5323,-2.5323,-2.5323,-2.5343,-2.5703,-2.585,-2.585,-2.585,-2.6055,-2.6319,-2.6157,-2.628,-2.6602,-2.7275,-2.7746,-2.8116,-2.8828,-2.8897,-2.8618,-3.1705,-3.1705,0.0,0.0,0.0,0.0,0.0,0.0,0.0,0.0,0.0,0.0,0.0,0.0,0.0,0.0,0.0,-3.1705,-3.1705,0.0,-3.1705,-3.1705,-3.1705,-3.1705,-3.1705,-3.1705,-3.1705,0.0,0.0,0.0,0.0,0.0,0.0,0.0,0.0,-3.1705,-3.1705,-3.1705,-3.1705,-3.1705,-3.1705,-3.1705,-3.1705,0.0,-3.1705,-3.1705,-3.1705,0.0,0.0,-3.1705,-3.1705,0.0,0.0,0.0,0.0,0.0,0.0,0.0,0.0,0.0,0.0,-2.6197,0.0,0.0,0.0,0.0,-2.5693,0.0,0.0,0.0,0.0,0.0,-2.5411,-2.46,0.0,0.0,0.0,0.0,0.0,0.0,0.0,0.0,0.0,0.0,0.0,-2.61,-2.5714,-2.5523,-2.5523,-2.5523,-2.5382,-2.5135,-2.5508,-2.5527,-2.5145,-2.5135,-2.4873,-2.4453,-2.4453,-2.4453,-2.4453,-2.4473,-2.4482,-2.4482,-2.4482,-2.4717,-2.5155,-2.5145,-2.539,-2.5781,-2.6324,-2.6275,-2.6111,-2.7955,-2.8628,-2.8618,-3.1633,0.0,0.0,0.0,0.0,0.0,0.0,-3.1705,0.0,0.0,-3.1705,0.0,0.0,-3.1705,-3.1705,0.0,0.0,-3.1705,-3.1705,-3.1705,0.0,-3.1705,-3.1705,-3.1705,-3.1705,-3.1705,-3.1705,0.0,0.0,0.0,0.0,0.0,0.0,0.0,0.0,-3.1705,0.0,0.0,0.0,0.0,0.0,-3.1705,-3.1705,0.0,0.0,-3.1705,-3.1705,-3.1705,0.0,-3.1705,-3.1705,-3.1705,-3.1705,-3.1705,-3.1705,-3.1705,-3.1238,0.0,0.0,0.0,-2.7379,-2.6062,0.0,0.0,0.0,0.0,0.0,0.0,0.0,0.0,0.0,0.0,-2.5098,-2.4512,-2.4541,0.0,0.0,0.0,0.0,0.0,0.0,0.0,0.0,0.0,0.0,-2.5426,-2.5024,-2.4778,-2.4778,-2.4778,-2.4732,-2.4639,-2.5068,-2.5225,-2.5116,-2.5116,-2.5037,-2.4844,-2.4551,-2.4414,-2.4414,-2.4414,-2.4414,-2.4404,-2.4121,-2.4082,-2.4245,-2.4096,-2.4202,-2.4506,-2.5169,-2.5416,-2.5542,-2.6822,-2.7065,-2.6806,-3.1356,0.0,0.0,0.0,0.0,0.0,0.0,0.0,0.0,0.0,-3.1705,0.0,-3.1705,0.0,-3.1705,0.0,-3.1705,-3.1705,-3.1705,-3.1705,0.0,-3.1705,-3.1705,-3.1705,-3.1705,-3.1705,-3.1705,0.0,0.0,-3.1705,0.0,0.0,0.0,0.0,0.0,-3.1705,-3.1705,0.0,-3.1705,0.0,0.0,-3.1705,0.0,0.0,-3.1705,-3.1705,0.0,-3.1705,-3.1705,-3.1705,-3.1705,-3.1705,-3.1705,-3.1705,-3.1705,-3.1705,-3.1238,-3.0498,-2.951,-2.8495,0.0,-2.6466,-2.5965,0.0,-2.5693,0.0,-2.5693,0.0,0.0,0.0,0.0,0.0,0.0,-2.4287,-2.4199,-2.4043,0.0,-2.3276,0.0,0.0,0.0,0.0,0.0,0.0,-2.4834,-2.4834,-2.4443,-2.4199,0.0,0.0,-2.4199,-2.4199,-2.4609,-2.4834,-2.4834,-2.4834,-2.4766,-2.4609,-2.4326,-2.4111,-2.3919,-2.3919,-2.3919,-2.39,-2.3682,-2.3555,-2.3535,-2.3393,-2.3493,-2.3741,-2.4304,-2.4635,-2.4967,-2.5999,-2.6179,-2.5875,-3.0874,0.0,0.0,0.0,-3.1705,0.0,0.0,0.0,-3.1705,0.0,-3.1705,-3.1705,-3.1705,-3.1705,-3.1705,-3.1705,-3.1705,-3.1705,-3.1705,-3.1705,0.0,0.0,-3.1705,-3.1705,-3.1705,-3.1705,-3.1705,0.0,0.0,0.0,0.0,0.0,0.0,0.0,-3.1705,0.0,-3.1705,-3.1705,-3.1705,-3.1705,-3.1705,-3.1705,-3.1705,-3.1705,-3.1705,-3.1705,-3.1705,-3.1705,-3.1705,-3.1705,-3.1705,-3.1705,-3.1705,-3.1705,-3.1705,-3.1705,-3.1661,-3.1427,-3.0407,-2.9372,-2.8402,-2.7379,0.0,0.0,0.0,0.0,-2.5693,0.0,0.0,0.0,0.0,0.0,0.0,-2.3896,-2.376,-2.3613,0.0,0.0,0.0,0.0,0.0,0.0,0.0,-2.415,-2.4385,-2.4385,-2.3994,-2.376,0.0,0.0,-2.376,-2.376,-2.417,-2.4385,-2.4385,-2.4404,-2.4219,-2.3818,-2.3799,-2.3574,-2.312,-2.311,-2.3091,-2.3091,-2.3091,-2.3091,-2.3091,-2.3091,-2.3276,-2.3503,-2.3711,-2.398,-2.4352,-2.5413,-2.5813,-2.5813,-3.0218,-3.0766,-3.1247,0.0,-3.1705,-3.1705,0.0,0.0,0.0,0.0,-3.1705,-3.1705,-3.1705,-3.1705,-3.1705,-3.1705,-3.1705,0.0,0.0,0.0,0.0,-3.1705,-3.1705,-3.1705,-3.1705,-3.1705,-3.1705,-3.1705,0.0,0.0,-3.1705,0.0,0.0,0.0,0.0,0.0,-3.1705,-3.1705,-3.1705,-3.1705,-3.1705,-3.1705,0.0,0.0,-3.1705,-3.1705,-3.1705,-3.1705,-3.1705,-3.1705,-3.1705,-3.1705,-3.1705,-3.1705,-3.1705,-3.1705,-3.1193,-3.0351,-2.9372,-2.8355,-2.7332,-2.6332,-2.5868,-2.5693,0.0,0.0,0.0,0.0,0.0,0.0,0.0,0.0,0.0,0.0,-2.3257,-2.3227,0.0,0.0,0.0,-2.3091,0.0,-2.3437,-2.376,-2.3887,-2.3945,-2.3945,-2.3555,0.0,0.0,0.0,0.0,-2.3257,-2.373,-2.3945,-2.3945,-2.4258,-2.4365,-2.4248,-2.3935,-2.373,-2.3613,-2.3247,-2.3091,-2.3091,-2.3091,-2.3091,-2.3091,-2.3091,-2.3276,-2.3503,-2.3547,-2.3807,-2.4227,-2.4722,-2.4838,-2.4838,-2.9689,0.0,0.0,-3.1621,0.0,0.0,-3.1705,-3.1705,0.0,-3.1705,-3.1705,0.0,-3.1705,-3.1705,-3.1705,-3.1705,-3.1705,0.0,-3.1705,0.0,0.0,-3.1705,-3.1705,-3.1705,-3.1705,-3.1705,-3.1705,-3.1705,0.0,0.0,-3.1705,0.0,0.0,0.0,0.0,-3.1705,0.0,-3.1705,-3.1705,-3.1705,-3.1705,0.0,0.0,-3.1705,-3.1705,-3.1705,-3.1705,-3.1705,-3.1705,-3.1705,-3.1705,-3.1705,-3.1705,-3.1705,-3.1705,-3.1705,-3.1003,-3.0079,-2.951,-2.8308,-2.7047,-2.6514,-2.6004,-2.5693,-2.5693,-2.5693,-2.5693,0.0,-2.5381,-2.4979,0.0,0.0,0.0,0.0,0.0,0.0,0.0,0.0,0.0,0.0,-2.3091,-2.3188,-2.3486,-2.3506,-2.3506,-2.3506,-2.3227,0.0,0.0,0.0,0.0,-2.3091,-2.3379,-2.3594,-2.3789,-2.4023,-2.4238,-2.4414,-2.3984,-2.3789,-2.3769,-2.3296,-2.3091,-2.3091,-2.3091,-2.3091,-2.3091,-2.3091,-2.3276,-2.3503,-2.359,-2.3807,-2.4024,-2.4143,-2.4325,-2.4497,-2.9376,0.0,0.0,0.0,0.0,0.0,0.0,-3.1705,0.0,-3.1705,0.0,-3.1705,-3.1705,-3.1705,-3.1705,-3.1705,0.0,-3.1705,-3.1705,-3.1705,-3.1705,-3.1705,-3.1705,-3.1705,-3.1705,-3.1705,-3.1705,0.0,0.0,0.0,0.0,0.0,0.0,0.0,0.0,0.0,0.0,-3.1705,-3.1705,-3.1705,-3.1705,-3.1705,-3.1705,-3.1705,-3.1705,-3.1705,-3.1705,-3.1705,-3.1705,-3.1705,-3.1705,-3.1705,-3.1705,-3.1705,-3.1705,-3.1705,-3.1104,-3.0351,-3.0215,-2.8912,-2.751,-2.7284,-2.6552,-2.5868,-2.5732,-2.5693,-2.5674,-2.5615,-2.5293,-2.4853,0.0,0.0,0.0,0.0,0.0,0.0,0.0,0.0,0.0,0.0,0.0,0.0,-2.3091,-2.3091,-2.3091,-2.3091,0.0,0.0,0.0,0.0,0.0,-2.3091,-2.3091,-2.3276,-2.3701,0.0,-2.3975,-2.4336,-2.4014,-2.3838,-2.3779,-2.3398,-2.3149,-2.3091,-2.3091,-2.3091,-2.3091,-2.3091,-2.3232,-2.346,-2.3667,-2.3754,-2.3754,-2.3797,-2.4057,-2.4411,-2.9785,0.0,0.0,0.0,0.0,-3.1705,-3.1705,-3.1705,-3.1705,-3.1705,-3.1705,-3.1705,-3.1705,-3.1705,-3.1705,-3.1705,-3.1705,0.0,0.0,0.0,0.0,-3.1705,-3.1705,-3.1705,-3.1705,-3.1705,-3.1705,0.0,0.0,0.0,0.0,0.0,0.0,0.0,0.0,0.0,-3.1705,-3.1705,0.0,-3.1705,-3.1705,-3.1705,-3.1705,-3.1705,-3.1705,-3.1705,-3.1705,-3.1705,-3.1705,-3.1705,-3.1705,-3.1705,-3.1705,-3.1705,-3.1705,-3.1705,-3.1572,-3.125,-3.0453,-2.9932,-2.928,-2.7605,-2.7057,-2.6733,-2.5868,-2.5693,-2.5635,-2.5264,-2.4834,-2.4404,-2.3975,0.0,0.0,0.0,0.0,0.0,0.0,0.0,0.0,0.0,0.0,-2.3091,0.0,-2.3091,0.0,0.0,0.0,0.0,0.0,0.0,0.0,0.0,-2.3091,0.0,0.0,0.0,-2.3828,-2.3906,-2.418,-2.4121,-2.3789,-2.3711,-2.3486,-2.3091,-2.3091,-2.3091,-2.3091,-2.3091,-2.3144,-2.3188,-2.345,-2.3537,-2.358,-2.3754,-2.3841,-2.3927,0.0,0.0,0.0,0.0,0.0,0.0,0.0,-3.1705,-3.1705,-3.1705,-3.1705,-3.1705,-3.1705,-3.1705,-3.1705,-3.1705,-3.1705,-3.1705,-3.1705,-3.1705,-3.1705,-3.1705,-3.1705,-3.1705,-3.1705,-3.1705,-3.1705,-3.1705,0.0,0.0,0.0,0.0,0.0,0.0,0.0,-3.1705,0.0,0.0,0.0,-3.1705,-3.1705,-3.1705,-3.1705,-3.1705,-3.1705,-3.1705,-3.1705,-3.1705,-3.1705,-3.1705,-3.1705,-3.1705,-3.1705,-3.1705,-3.1705,-3.1705,-3.1339,-3.0678,-2.9704,-2.905,-2.8308,-2.6781,-2.6418,-2.6284,-2.583,-2.5557,-2.5332,-2.5165,-2.4551,-2.3965,-2.3535,-2.3237,0.0,0.0,0.0,0.0,0.0,0.0,-2.3091,0.0,0.0,0.0,0.0,0.0,0.0,0.0,0.0,0.0,0.0,0.0,0.0,0.0,0.0,0.0,0.0,0.0,0.0,-2.3789,-2.3994,-2.4102,-2.4111,-2.3887,-2.3682,-2.3467,-2.3198,-2.3091,-2.3091,-2.3091,-2.3091,-2.3091,-2.3232,-2.3276,-2.3319,-2.3406,-2.345,-2.3493,0.0,-3.1007,0.0,0.0,-3.1705,0.0,-3.1705,-3.1705,-3.1705,-3.1705,-3.1705,-3.1705,-3.1705,-3.1705,-3.1705,-3.1705,-3.1705,-3.1705,-3.1705,-3.1705,-3.1705,-3.1705,-3.1705,-3.1705,-3.1705,-3.1705,-3.1705,0.0,0.0,0.0,0.0,0.0,0.0,0.0,0.0,0.0,0.0,0.0,-3.1609,-3.1705,-3.1705,-3.1705,-3.1705,-3.1705,-3.1705,-3.1705,-3.1705,-3.1705,-3.1705,-3.1705,-3.1705,-3.1705,-3.1705,-3.1705,-3.1661,-3.1427,-3.0824,-2.9977,-2.8958,-2.8121,-2.7284,-2.6284,-2.5935,-2.5827,-2.5644,-2.5244,-2.4949,-2.4861,-2.4189,-2.3545,-2.3159,-2.3091,0.0,0.0,0.0,0.0,0.0,0.0,0.0,0.0,0.0,0.0,-2.3091,0.0,0.0,0.0,0.0,0.0,0.0,0.0,0.0,0.0,0.0,-2.3091,-2.3091,0.0,-2.331,-2.3652,-2.3838,-2.4053,-2.4277,-2.4033,-2.3877,-2.3769,-2.3286,-2.3091,-2.3091,-2.3091,-2.3091,-2.3091,-2.3091,-2.3091,-2.3091,-2.3091,-2.3091,-2.3135,0.0,0.0,0.0,0.0,0.0,0.0,-3.1705,-3.1705,-3.1705,-3.1705,-3.1705,-3.1705,-3.1705,-3.1705,-3.1705,-3.1705,-3.1705,-3.1705,-3.1705,-3.1705,-3.1705,-3.1705,-3.1705,-3.1705,-3.1705,-3.1705,-3.1705,0.0,0.0,-3.1464,0.0,0.0,0.0,0.0,0.0,0.0,0.0,-3.0995,-3.1271,-3.1705,-3.1705,-3.1705,-3.1705,-3.1705,-3.1705,-3.1705,-3.1705,-3.1705,-3.1705,-3.1705,-3.1705,-3.1705,-3.1705,-3.1705,-3.1516,-3.0588,-3.026,-2.9977,-2.8958,-2.8634,-2.8308,-2.7332,-2.6795,-2.6274,-2.5354,-2.4795,-2.4365,-2.3984,-2.3525,-2.314,-2.3101,-2.3091,-2.3091,0.0,0.0,0.0,0.0,0.0,-2.3091,-2.3091,0.0,0.0,0.0,-2.3091,0.0,0.0,-2.2877,0.0,0.0,0.0,0.0,-2.3091,0.0,-2.3091,-2.3091,-2.3091,-2.311,-2.3169,-2.3984,-2.418,-2.3857,-2.4199,-2.415,-2.3769,-2.3286,-2.3091,-2.3091,-2.3091,-2.3091,-2.3091,-2.3091,-2.3091,-2.3091,-2.3091,-2.3091,-2.3101,0.0,0.0,0.0,0.0,0.0,0.0,0.0,-3.1705,-3.1705,-3.1705,-3.1705,-3.1705,-3.1705,-3.1705,-3.1705,-3.1705,-3.1705,-3.1705,-3.1705,-3.1705,-3.1705,-3.1705,-3.1705,-3.1705,-3.1705,-3.1705,-3.1705,0.0,0.0,0.0,0.0,0.0,0.0,0.0,0.0,-3.0206,-3.0422,-3.0735,-3.1043,-3.1259,-3.1585,-3.1705,-3.1705,-3.1705,-3.1705,-3.1705,-3.1705,-3.1705,-3.1705,-3.1705,-3.1705,-3.1705,-3.1705,-3.1705,-3.1617,-3.1238,-3.1104,-3.0709,-2.8844,-2.8346,-2.7869,-2.5991,-2.5391,-2.5169,-2.4771,-2.4346,-2.3994,-2.3828,-2.3437,-2.3091,-2.3091,-2.3091,-2.3091,-2.3091,0.0,0.0,0.0,0.0,0.0,-2.3091,0.0,-2.3003,0.0,0.0,0.0,0.0,0.0,0.0,0.0,0.0,0.0,-2.3091,0.0,-2.3091,-2.3091,-2.3091,-2.3091,-2.3101,-2.375,-2.4082,-2.417,-2.4082,-2.3809,-2.3389,-2.3169,-2.3091,-2.3091,-2.3091,-2.344,-2.3864,-2.3309,-2.343,-2.3854,-2.3309,-2.3091,-2.3091,-3.1705,0.0,-3.1705,0.0,-3.1705,-3.1705,-3.1705,-3.1705,-3.1705,-3.1705,-3.1705,-3.1705,-3.1705,-3.1705,-3.1705,-3.1705,-3.1705,-3.1705,-3.1705,-3.1705,-3.1705,-3.1705,-3.1705,0.0,-3.1705,-3.1705,-3.1705,-3.1705,-3.1705,0.0,0.0,0.0,0.0,0.0,-2.9629,-2.9713,-2.9881,-3.0254,-3.0506,-3.0718,-3.1091,-3.1247,-3.1247,-3.1247,-3.1247,-3.1247,-3.1247,-3.1247,-3.1247,-3.1247,-3.1061,-3.0898,-3.1328,-3.1368,-3.1105,-3.0555,-3.0423,-2.9931,-2.7636,-2.6995,-2.6603,-2.4851,-2.4326,-2.4228,-2.4228,-2.3906,-2.3603,-2.3603,-2.3305,-2.3091,-2.3091,-2.3091,-2.3091,-2.3091,0.0,0.0,0.0,-2.3091,0.0,-2.2925,-2.2916,-2.275,-2.2373,-2.2324,0.0,0.0,0.0,0.0,0.0,0.0,0.0,0.0,0.0,0.0,0.0,-2.3091,-2.3091,-2.3101,-2.3584,-2.4014,-2.4404,-2.4111,-2.374,-2.3276,-2.3149,-2.3091,-2.3091,-2.3091,-2.3474,-2.4026,-2.3353,-2.3517,-2.3993,-2.3343,-2.3091,-2.3091,-3.1705,-3.1705,-3.1705,-3.1705,-3.1705,-3.1705,-3.1705,-3.1705,-3.1705,-3.1705,-3.1705,-3.1705,-3.1705,-3.1705,-3.1705,-3.1705,-3.1705,-3.1705,-3.1705,-3.1705,-3.1705,0.0,0.0,-3.1705,-3.1705,-3.1705,-3.1705,-3.1705,0.0,0.0,-3.0074,0.0,-2.8534,-2.8522,-2.8522,-2.8823,-2.9304,-2.9316,-2.9629,-3.0098,-3.011,-3.011,-3.011,-3.011,-3.011,-3.011,-3.011,-3.011,-3.011,-3.011,-2.9513,-2.8973,-3.0441,-3.053,-2.9748,-2.7897,-2.7371,-2.6928,-2.4965,-2.4424,-2.4424,-2.4414,-2.4102,-2.3799,-2.3799,-2.3457,-2.3101,-2.3101,-2.3101,-2.3091,-2.3091,-2.3091,-2.3091,-2.3091,0.0,0.0,0.0,-2.3091,0.0,-2.2568,-2.2519,-2.2353,-2.1934,-2.1894,0.0,0.0,0.0,0.0,0.0,0.0,0.0,-2.251,-2.2519,0.0,-2.3091,-2.3091,-2.3091,-2.3101,-2.3584,-2.4014,-2.4414,-2.4414,-2.418,-2.376,-2.3286,-2.3091,-2.3091,-2.3091,-2.3101,-2.3135,-2.3091,-2.3101,-2.3135,-2.3091,-2.3091,-2.3091,-3.1705,-3.1705,-3.1705,-3.1705,-3.1705,-3.1705,-3.1705,-3.1705,-3.1705,-3.1705,-3.1705,-3.1705,-3.1705,-3.1705,-3.1705,0.0,-3.1705,-3.1705,0.0,-3.1705,-3.1705,-3.1705,-3.1705,-3.1705,-3.1705,-3.1705,-3.1705,-3.1705,0.0,0.0,0.0,-2.9003,-2.851,-2.851,-2.851,-2.8607,-2.8787,-2.9148,-2.94,-2.9581,-2.9941,-3.0086,-3.0086,-3.0086,-3.0086,-3.0044,-2.9374,-2.9149,-2.9118,-2.8494,-2.7824,-2.7351,-2.782,-2.8119,-2.8136,-2.7557,-2.7393,-2.7008,-2.5416,-2.4988,-2.4784,-2.3747,-2.3403,-2.3305,-2.3305,-2.3198,-2.3091,-2.3091,-2.3091,-2.3091,-2.3091,-2.3091,-2.3091,-2.3091,-2.3091,0.0,-2.3091,0.0,-2.2656,-2.2529,-2.2266,-2.1914,-2.1484,-2.1405,0.0,0.0,0.0,0.0,0.0,0.0,0.0,0.0,-2.2363,0.0,-2.2672,-2.2955,-2.3091,-2.3091,-2.3237,-2.3574,-2.4004,-2.4287,-2.4189,-2.3769,-2.3286,-2.3091,-2.3091,-2.3091,-2.3484,-2.3983,-2.3353,-2.3474,-2.3993,-2.3353,-2.3091,-2.3091,-3.1705,-3.1705,-3.1705,-3.1705,-3.1705,-3.1705,-3.1705,-3.1705,-3.1705,-3.1705,-3.1705,-3.1705,-3.1705,-3.1705,0.0,-3.1705,-3.1705,-3.1705,-3.1705,-3.1705,-3.1705,-3.1705,-3.1705,-3.1705,-3.1705,-3.1705,0.0,-3.1705,-3.1308,-3.0778,-3.0062,-2.9003,-2.851,-2.851,-2.851,-2.851,-2.8534,-2.8871,-2.9003,-2.9027,-2.9364,-2.9496,-2.9496,-2.9496,-2.9496,-2.9402,-2.8839,-2.8661,-2.8547,-2.7637,-2.686,-2.6224,-2.5926,-2.5796,-2.5844,-2.6194,-2.6335,-2.6053,-2.482,-2.4486,-2.425,-2.3334,-2.3091,-2.3091,-2.3091,-2.3091,-2.3091,-2.3091,-2.3091,-2.3091,-2.3091,-2.3091,-2.3091,-2.3091,-2.2964,-2.2857,-2.2857,0.0,-2.2217,0.0,0.0,0.0,0.0,-2.0986,-2.0869,0.0,0.0,0.0,0.0,0.0,0.0,-2.1621,-2.1894,0.0,-2.251,-2.273,-2.2945,-2.3101,-2.3422,-2.376,-2.4033,-2.4297,-2.4277,-2.3994,-2.3354,-2.3091,-2.3091,-2.3091,-2.344,-2.3907,-2.3353,-2.3484,-2.3897,-2.3309,-2.3091,-2.3135,-3.1705,-3.1705,-3.1705,0.0,-3.1705,0.0,-3.1705,-3.1705,-3.1705,-3.1705,-3.1705,-3.1705,-3.1705,-3.1705,-3.1705,-3.1705,0.0,0.0,0.0,-3.1705,-3.1705,-3.1705,-3.1705,-3.1705,-3.1705,-3.1705,-3.1705,-3.1705,-3.0645,-3.0086,-3.0062,-2.9003,-2.851,-2.851,-2.851,-2.851,-2.851,-2.851,-2.851,-2.851,-2.851,-2.851,-2.851,-2.851,-2.851,-2.8471,-2.8339,-2.8299,-2.8179,-2.7214,-2.6329,-2.5484,-2.4659,-2.382,-2.3266,-2.4155,-2.4413,-2.4198,-2.3353,-2.3091,-2.3091,-2.3091,-2.3091,-2.3091,-2.3091,-2.3091,-2.3091,-2.3091,-2.3091,-2.3091,-2.3091,-2.3071,-2.3052,-2.3052,-2.2744,-2.2471,-2.2471,-2.2109,-2.1689,0.0,0.0,0.0,0.0,-2.0605,-2.0605,0.0,0.0,0.0,0.0,0.0,-2.0752,-2.1132,-2.1181,-2.158,-2.2412,-2.2451,-2.2676,-2.3062,-2.3919,-2.4385,-2.4414,-2.4414,-2.4414,-2.4365,-2.3471,-2.3091,-2.3091,-2.3091,-2.3091,-2.3091,-2.3091,-2.3091,-2.3091,-2.3178,-2.3178,-2.3309,0.0,0.0,-3.1705,-3.1705,-3.1705,-3.1705,-3.1705,-3.1705,-3.1705,-3.1705,-3.1705,-3.1705,-3.1705,-3.1705,-3.1705,-3.1705,-3.1705,-3.1705,-3.1705,-3.1705,-3.1705,-3.1705,-3.1705,-3.1705,-3.1705,-3.1705,-3.1705,-3.1705,-3.0645,-3.0086,-3.0062,-2.9003,-2.851,-2.851,-2.851,-2.851,-2.851,-2.851,-2.851,-2.851,-2.851,-2.851,-2.851,-2.851,-2.851,-2.8299,-2.6958,-2.6453,-2.6205,-2.4606,-2.394,-2.3681,-2.3517,-2.3266,-2.3135,-2.3353,-2.344,-2.3396,-2.3178,-2.3091,-2.3091,-2.3091,-2.3091,-2.3091,-2.3091,-2.3091,-2.3091,-2.3091,-2.3091,-2.3091,-2.3091,-2.2838,-2.2656,-2.2656,-2.2305,-2.2031,-2.2031,-2.166,-2.1307,0.0,-2.0937,-2.0684,-2.0615,-2.0605,-2.0605,0.0,0.0,0.0,0.0,-2.0605,-2.0654,-2.0723,-2.1055,-2.1298,-2.1492,-2.1865,-2.2246,-2.2676,-2.3535,-2.4111,-2.4414,-2.4414,-2.4414,-2.4365,-2.3471,-2.3091,-2.3091,-2.3091,-2.3091,-2.3091,-2.3091,-2.3091,-2.3178,-2.3897,-2.4155,-2.4198,-3.1705,-3.1705,-3.1705,-3.1705,-3.1705,-3.1705,-3.1705,-3.1705,-3.1705,-3.1705,-3.1705,-3.1705,-3.1705,-3.1705,-3.1705,-3.1705,-3.1705,-3.1705,-3.1705,-3.1705,-3.1705,-3.1705,-3.1705,-3.1705,-3.1705,-3.1705,-3.1705,-3.1705,-3.0645,-3.0086,-3.0062,-2.9003,-2.851,-2.851,-2.851,-2.851,-2.851,-2.851,-2.851,-2.851,-2.851,-2.851,-2.851,-2.851,-2.851,-2.8391,-2.7377,-2.6794,-2.6205,-2.4819,-2.4069,-2.3647,-2.3222,-2.3091,-2.3091,-2.3091,-2.3091,-2.3091,-2.3091,-2.3091,-2.3091,-2.3091,-2.3091,-2.3091,-2.3091,-2.3091,-2.3091,-2.3091,-2.3091,-2.3033,-2.2847,-2.2666,-2.2451,-2.2256,-2.1865,-2.1592,-2.1592,-2.1211,0.0,-2.0928,-2.0713,-2.0605,-2.0605,-2.0605,-2.0605,-2.0605,-2.0605,0.0,-2.0605,-2.0605,-2.0605,-2.0605,-2.0801,-2.1025,-2.119,-2.167,-2.2002,-2.2236,-2.3096,-2.3623,-2.3857,-2.4043,-2.4131,-2.4092,-2.3383,-2.3091,-2.3091,-2.3091,-2.3353,-2.3734,-2.3734,-2.3983,-2.436,-2.4456,-2.4498,-2.4584,-3.1705,-3.1705,-3.1705,-3.1705,-3.1705,-3.1705,-3.1705,-3.1705,-3.1705,-3.1705,-3.1705,-3.1705,-3.1705,-3.1705,-3.1705,-3.1705,-3.1705,-3.1705,-3.1705,-3.1705,-3.1705,-3.1705,-3.1705,-3.1705,-3.1705,-3.1705,-3.1669,-3.1585,-3.0567,-3.005,-2.9941,-2.8967,-2.851,-2.851,-2.851,-2.851,-2.851,-2.851,-2.851,-2.851,-2.851,-2.851,-2.8471,-2.8339,-2.8299,-2.8259,-2.8007,-2.7429,-2.6629,-2.5704,-2.4904,-2.4155,-2.3353,-2.3091,-2.3091,-2.3091,-2.3091,-2.3091,-2.3091,-2.3091,-2.3091,-2.3091,-2.3091,-2.3091,-2.3091,-2.3042,-2.3003,-2.3003,-2.2955,-2.2799,-2.248,-2.2363,-2.2197,-2.1846,-2.1426,-2.1093,-2.1093,0.0,-2.0605,-2.0605,-2.0605,-2.0605,-2.0605,-2.0605,-2.0605,-2.0605,-2.0605,-2.0605,-2.0605,-2.0605,-2.0605,-2.0605,-2.0605,-2.0752,-2.1093,-2.1504,-2.1719,-2.1797,-2.264,-2.3081,-2.3218,-2.3535,-2.373,-2.376,-2.3452,-2.3309,-2.3309,-2.343,-2.3983,-2.4659,-2.4531,-2.5031,-2.5694,-2.4956,-2.4787,-2.4999,-3.1705,-3.1705,-3.1705,-3.1705,-3.1705,-3.1705,-3.1705,-3.1705,-3.1705,-3.1705,-3.1705,-3.1705,-3.1705,-3.1705,-3.1705,-3.1705,-3.1705,-3.1705,-3.1705,-3.1705,-3.1705,-3.1705,-3.1705,-3.1705,-3.1705,-3.1705,-3.1488,-3.0999,-3.0386,-2.9857,-2.9412,-2.8799,-2.851,-2.851,-2.851,-2.851,-2.851,-2.851,-2.851,-2.851,-2.851,-2.851,-2.8431,-2.7684,-2.7389,-2.7214,-2.5673,-2.5041,-2.4787,-2.3854,-2.343,-2.3309,-2.3135,-2.3091,-2.3091,-2.3091,-2.3091,-2.3091,-2.3091,-2.3091,-2.3091,-2.3091,-2.3091,-2.3091,-2.3091,-2.2818,-2.2607,-2.2607,-2.2324,-2.206,-2.1992,-2.168,-2.1366,-2.1307,-2.0957,-2.0713,-2.0713,0.0,-2.0605,-2.0605,-2.0605,-2.0605,-2.0605,-2.0605,-2.0605,-2.0605,-2.0605,-2.0605,-2.0605,-2.0605,-2.0605,-2.0605,-2.0605,-2.0635,-2.0713,-2.0781,-2.0957,-2.1307,-2.1846,-2.2451,-2.3101,-2.3223,-2.3501,-2.3814,-2.4142,-2.4284,-2.4327,-2.5073,-2.5484,-2.5537,-2.4787,-2.5031,-2.5777,-2.5663,-2.608,-2.6805,-3.1705,-3.1705,-3.1705,-3.1705,-3.1705,-3.1705,-3.1705,-3.1705,-3.1705,-3.1705,-3.1705,-3.1705,-3.1705,-3.1705,-3.1705,-3.1705,-3.1705,-3.1705,-3.1705,-3.1705,-3.1705,-3.1705,-3.1705,-3.1705,-3.1705,-3.1428,-3.1163,-3.0922,-3.0062,-2.9532,-2.9292,-2.8751,-2.851,-2.851,-2.851,-2.851,-2.8471,-2.8018,-2.7805,-2.7765,-2.7255,-2.704,-2.6999,-2.6588,-2.6453,-2.634,-2.5495,-2.4914,-2.4413,-2.3983,-2.3517,-2.3091,-2.3091,-2.3091,-2.3052,-2.2818,-2.2916,-2.3042,-2.2818,-2.276,-2.2701,-2.2519,-2.2461,-2.2461,-2.2461,-2.2314,-2.2178,-2.2178,-2.2021,-2.1816,-2.1582,-2.1327,-2.1112,-2.0908,-2.0742,0.0,0.0,-2.0605,-2.0605,-2.0605,-2.0605,-2.0605,-2.0605,-2.0605,-2.0605,-2.0605,-2.0605,-2.0605,-2.0605,-2.0605,-2.0605,-2.0605,-2.0605,-2.0605,-2.0605,-2.0605,-2.0713,-2.0879,-2.1328,-2.2093,-2.3158,-2.34,-2.3753,-2.42,-2.442,-2.4498,-2.4541,-2.4914,-2.5663,-2.6505,-2.6133,-2.6505,-2.7214,-2.6712,-2.6846,-2.7185,-3.1705,-3.1705,-3.1705,-3.1705,-3.1705,-3.1705,-3.1705,-3.1705,-3.1705,-3.1705,-3.1705,-3.1705,-3.1705,-3.1705,-3.1705,-3.1705,-3.1705,-3.1657,-3.1536,-3.1524,-3.1585,-3.1705,-3.1585,-3.1464,-3.1344,-3.0946,-3.0627,-3.0506,-2.9689,-2.9232,-2.9112,-2.8703,-2.8379,-2.8179,-2.8179,-2.8099,-2.7834,-2.7174,-2.6887,-2.6794,-2.608,-2.5777,-2.5788,-2.5579,-2.5495,-2.5453,-2.5242,-2.4744,-2.4155,-2.4155,-2.3621,-2.2945,-2.2945,-2.2886,-2.274,-2.2461,-2.2598,-2.274,-2.2451,-2.2363,-2.2295,-2.1963,-2.1885,-2.1885,-2.1885,-2.1807,-2.1738,-2.1738,-2.165,-2.1475,-2.1143,-2.1074,-2.0967,-2.0664,0.0,0.0,0.0,-2.0605,-2.0605,-2.0605,-2.0605,-2.0605,-2.0605,-2.0605,-2.0605,-2.0605,-2.0605,-2.0605,-2.0605,-2.0605,-2.0605,-2.0605,-2.0605,-2.0605,-2.0605,-2.0605,-2.0605,-2.0605,-2.0918,-2.165,-2.2766,-2.3176,-2.3699,-2.4343,-2.466,-2.4914,-2.5126,-2.5337,-2.6257,-2.747,-2.7267,-2.7603,-2.8099,-2.7214,-2.6887,-2.6887,-3.1705,-3.1705,-3.1705,-3.1705,-3.1705,-3.1705,-3.1705,-3.1705,-3.1705,-3.1705,-3.1705,-3.1705,-3.1705,-3.1705,-3.1705,-3.1705,-3.1705,-3.15,-3.1007,-3.097,-3.1199,-3.1681,-3.1235,-3.0742,-3.0218,-3.017,-2.9905,-2.9412,-2.934,-2.9051,-2.857,-2.8522,-2.8059,-2.7307,-2.7307,-2.6794,-2.5986,-2.5944,-2.5902,-2.5913,-2.5819,-2.5777,-2.5694,-2.4914,-2.4616,-2.4498,-2.3604,-2.3266,-2.3222,-2.3222,-2.2924,-2.2559,-2.2559,-2.2295,-2.1973,-2.1943,-2.1953,-2.1973,-2.1943,-2.1934,-2.1924,-2.1894,-2.1885,-2.1885,-2.1885,-2.1572,-2.1239,-2.1239,-2.0957,-2.0693,-2.0664,-2.0654,-2.0644,-2.0605,0.0,0.0,-2.0605,-2.0605,-2.0605,-2.0605,-2.0605,-2.0605,-2.0605,-2.0605,-2.0605,-2.0605,-2.0605,-2.0605,-2.0605,-2.0605,-2.0605,-2.0605,-2.0605,-2.0605,-2.0605,-2.0605,-2.0605,-2.0605,-2.0635,-2.0889,-2.1369,-2.1811,-2.2722,-2.3919,-2.5175,-2.6205,-2.7051,-2.7886,-2.8259,-2.8299,-2.751,-2.7226,-2.7185,-2.6246,-2.5902,-2.5902,-3.1705,-3.1705,-3.1705,-3.1705,-3.1705,-3.1705,-3.1705,-3.1705,-3.1705,-3.1705,-3.1705,-3.1705,-3.1705,-3.1705,-3.1573,-3.1247,-3.1211,-3.0995,-3.0422,-3.0386,-3.047,-3.0718,-3.0494,-3.029,-3.0098,-2.9761,-2.9496,-2.9304,-2.8967,-2.8703,-2.851,-2.851,-2.8299,-2.8007,-2.8007,-2.7805,-2.7458,-2.6917,-2.6329,-2.5735,-2.52,-2.4659,-2.4102,-2.3777,-2.3647,-2.3604,-2.3222,-2.3091,-2.3052,-2.2789,-2.2646,-2.2471,-2.2207,-2.2012,-2.1836,-2.1562,-2.1279,-2.1104,-2.1104,-2.1269,-2.1416,-2.1182,-2.1104,-2.1104,-2.1104,-2.0937,-2.082,-2.082,-2.0723,-2.0605,-2.0605,-2.0605,-2.0605,-2.0605,0.0,-2.0605,-2.0605,-2.0605,-2.0605,-2.0605,-2.0605,-2.0605,-2.0605,-2.0605,-2.0605,-2.0605,-2.0605,-2.0605,-2.0605,-2.0605,-2.0605,-2.0605,-2.0605,-2.0605,-2.0605,-2.0605,-2.0605,-2.0605,-2.0605,-2.1104,-2.2057,-2.2269,-2.3017,-2.4223,-2.5063,-2.5924,-2.6737,-2.7423,-2.8007,-2.8431,-2.7551,-2.7185,-2.7092,-2.6163,-2.5777,-2.5872,-3.1464,-3.1597,-3.1705,-3.1705,-3.1705,-3.1705,-3.1705,-3.1705,-3.1705,-3.1705,-3.1705,-3.1645,-3.1476,-3.1464,-3.1204,-3.0601,-3.0627,-3.0368,-2.9714,-2.9481,-2.9552,-2.9833,-2.9845,-2.9761,-2.9593,-2.9232,-2.9051,-2.9051,-2.8691,-2.851,-2.851,-2.851,-2.8219,-2.7672,-2.7672,-2.7336,-2.6794,-2.6163,-2.5537,-2.4904,-2.4284,-2.3691,-2.3091,-2.3091,-2.3091,-2.3091,-2.3091,-2.3013,-2.2857,-2.2607,-2.2334,-2.206,-2.1768,-2.1582,-2.1416,-2.1113,-2.081,-2.0605,-2.0605,-2.0791,-2.0947,-2.0683,-2.0605,-2.0605,-2.0605,-2.0605,-2.0605,-2.0605,-2.0605,-2.0605,-2.0605,-2.0605,-2.0605,-2.0605,-2.0605,-2.0605,-2.0605,-2.0605,-2.0605,-2.0605,-2.0605,-2.0605,-2.0605,-2.0605,-2.0605,-2.0605,-2.0605,-2.0605,-2.0605,-2.0605,-2.0605,-2.0605,-2.0605,-2.0605,-2.0605,-2.0605,-2.0605,-2.0605,-2.0867,-2.1442,-2.2379,-2.2759,-2.3526,-2.4592,-2.4843,-2.5423,-2.6181,-2.6314,-2.6703,-2.7193,-2.6582,-2.6168,-2.5884,-2.5505,-2.5176,-2.5053,-3.0867,-3.1332,-3.1693,-3.1693,-3.1693,-3.1693,-3.1693,-3.1693,-3.1693,-3.1693,-3.1693,-3.1488,-3.0927,-3.0867,-3.0577,-2.9862,-2.9959,-2.969,-2.8763,-2.8216,-2.8319,-2.9268,-2.9292,-2.9039,-2.8522,-2.851,-2.851,-2.851,-2.851,-2.851,-2.851,-2.8471,-2.7539,-2.583,-2.5819,-2.4819,-2.3135,-2.3135,-2.3135,-2.3101,-2.3091,-2.3091,-2.3091,-2.3091,-2.3091,-2.3091,-2.3091,-2.2818,-2.251,-2.251,-2.1943,-2.119,-2.119,-2.0918,-2.0605,-2.0605,-2.0605,-2.0605,-2.0605,-2.0605,-2.0605,-2.0605,-2.0605,-2.0605,-2.0605,-2.0605,-2.0605,-2.0605,-2.0605,-2.0605,-2.0605,-2.0605,-2.0605,-2.0605,-2.0605,-2.0605,-2.0605,-2.0605,-2.0605,-2.0605,-2.0605,-2.0605,-2.0605,-2.0605,-2.0605,-2.0605,-2.0605,-2.0605,-2.0605,-2.0605,-2.0605,-2.0605,-2.0605,-2.0605,-2.0605,-2.0605,-2.0605,-2.0605,-2.1423,-2.1804,-2.1814,-2.3052,-2.406,-2.4852,-2.4531,-2.4882,-2.562,-2.4831,-2.4517,-2.4517,-2.4517,-2.3963,-2.3304,-2.4093,-2.3825,-2.3123,-2.9846,-2.9965,-3.0071,-3.0071,-3.0071,-3.0071,-3.0071,-3.0071,-3.0071,-3.0071,-3.0071,-3.0012,-2.9858,-2.9846,-2.9645,-2.9064,-2.9089,-2.8834,-2.8192,-2.7975,-2.8032,-2.8307,-2.8319,-2.8248,-2.8082,-2.8082,-2.8082,-2.8082,-2.8082,-2.8151,-2.8259,-2.7447,-2.7244,-2.7458,-2.6659,-2.5975,-2.5484,-2.5484,-2.4766,-2.3584,-2.3757,-2.343,-2.2882,-2.3057,-2.3091,-2.3052,-2.276,-2.2617,-2.2422,-2.1775,-2.1405,-2.1142,-2.0869,-2.0713,-2.0605,-2.0605,-2.0605,-2.0605,-2.0605,-2.0605,-2.0605,-2.0605,-2.0605,-2.0605,-2.0605,-2.0605,-2.0605,-2.0605,-2.0605,-2.0605,-2.0605,-2.0605,-2.0605,-2.0605,-2.0605,-2.0605,-2.0605,-2.0605,-2.0605,-2.0605,-2.0605,-2.0605,-2.0605,-2.0605,-2.0605,-2.0605,-2.0605,-2.0605,-2.0605,-2.0605,-2.0605,-2.0605,-2.0605,-2.0605,-2.0605,-2.0605,-2.0605,-2.0605,-2.0828,-2.0982,-2.0982,-2.1344,-2.1924,-2.2735,-2.3006,-2.3597,-2.437,-2.4453,-2.4831,-2.5271,-2.4675,-2.4607,-2.4764,-2.3825,-2.3314,-2.3193,-2.9103,-2.9256,-2.9397,-2.9397,-2.9397,-2.9397,-2.9397,-2.9397,-2.9397,-2.9397,-2.9397,-2.9315,-2.9115,-2.9103,-2.8892,-2.8304,-2.8134,-2.8005,-2.7771,-2.7679,-2.7598,-2.7598,-2.7598,-2.7731,-2.7893,-2.7893,-2.7893,-2.7893,-2.7893,-2.7962,-2.807,-2.7389,-2.7051,-2.6999,-2.6276,-2.5557,-2.4882,-2.4882,-2.4253,-2.3246,-2.3367,-2.3169,-2.2794,-2.2925,-2.2906,-2.2818,-2.2607,-2.2295,-2.1924,-2.1366,-2.1073,-2.0918,-2.0693,-2.0605,-2.0605,-2.0605,-2.0605,-2.0605,-2.0605,-2.0605,-2.0605,-2.0605,-2.0605,-2.0605,-2.0605,-2.0605,-2.0605,-2.0605,-2.0605,-2.0605,-2.0605,-2.0605,-2.0605,-2.0605,-2.0605,-2.0605,-2.0605,-2.0605,-2.0605,-2.0605,-2.0605,-2.0605,-2.0605,-2.0605,-2.0605,-2.0605,-2.0605,-2.0605,-2.0605,-2.0605,-2.0605,-2.0605,-2.0605,-2.0605,-2.0605,-2.0605,-2.0605,-2.0605,-2.0934,-2.1088,-2.1088,-2.1385,-2.1794,-2.2258,-2.2297,-2.2758,-2.3481,-2.3431,-2.3705,-2.41,-2.3561,-2.3483,-2.3533,-2.283,-2.2801,-2.3144,-2.8556,-2.8909,-2.9214,-2.9214,-2.9214,-2.9214,-2.9214,-2.9214,-2.9214,-2.9214,-2.9214,-2.9038,-2.8592,-2.8556,-2.8263,-2.7528,-2.7301,-2.726,-2.7441,-2.7301,-2.719,-2.719,-2.719,-2.7353,-2.7708,-2.78,-2.7841,-2.7841,-2.776,-2.7719,-2.776,-2.7545,-2.6652,-2.5147,-2.5062,-2.4049,-2.2476,-2.2476,-2.2432,-2.2353,-2.2388,-2.2574,-2.2794,-2.2799,-2.2679,-2.25,-2.2422,-2.1853,-2.119,-2.1151,-2.0908,-2.0605,-2.0605,-2.0605,-2.0605,-2.0605,-2.0605,-2.0605,-2.0605,-2.0605,-2.0605,-2.0605,-2.0605,-2.0605,-2.0605,-2.0605,-2.0605,-2.0605,-2.0605,-2.0605,-2.0605,-2.0605,-2.0605,-2.0605,-2.0605,-2.0605,-2.0605,-2.0605,-2.0605,-2.0605,-2.0566,-2.0566,-2.0605,-2.0566,-2.0566,-2.0527,-2.0527,-2.0527,-2.0527,-2.0527,-2.0527,-2.0527,-2.0527,-2.0566,-2.0566,-2.0566,-2.0566,-2.0605,-2.1346,-2.169,-2.1718,-2.2435,-2.2809,-2.2846,-2.2021,-2.2134,-2.2846,-2.2021,-2.1728,-2.1804,-2.188,-2.1499,-2.1011,-2.1728,-2.2472,-2.3106,-2.7515,-2.7607,-2.7676,-2.7676,-2.7676,-2.7676,-2.7676,-2.7676,-2.7676,-2.7676,-2.7676,-2.763,-2.7526,-2.7515,-2.7469,-2.7272,-2.7231,-2.7231,-2.726,-2.7231,-2.719,-2.719,-2.719,-2.6921,-2.6257,-2.6962,-2.7353,-2.7353,-2.661,-2.634,-2.6528,-2.4893,-2.4414,-2.484,-2.3943,-2.3313,-2.2931,-2.2931,-2.2643,-2.2185,-2.2353,-2.2574,-2.2765,-2.2654,-2.2545,-2.2422,-2.1707,-2.1356,-2.1142,-2.083,-2.0683,-2.0605,-2.0605,-2.0605,-2.0605,-2.0605,-2.0605,-2.0605,-2.0605,-2.0605,-2.0605,-2.0605,-2.0605,-2.0605,-2.0605,-2.0605,-2.0605,-2.0605,-2.0605,-2.0605,-2.0605,-2.0605,-2.0605,-2.0605,-2.0605,-2.0605,-2.0605,-2.0605,-2.0605,-2.0605,-2.045,-2.042,-2.0566,-2.045,-2.0264,-2.0059,-2.0059,-2.0059,-2.0059,-2.0059,-2.0059,-2.0059,-2.0059,-2.0137,-2.0342,-2.0381,-2.045,-2.0605,-2.0789,-2.0867,-2.0867,-2.1049,-2.1461,-2.2021,-2.1203,-2.1318,-2.1983,-2.1203,-2.1242,-2.1869,-2.251,-2.2984,-2.3379,-2.3526,-2.3708,-2.3781,-2.719,-2.719,-2.719,-2.719,-2.719,-2.719,-2.719,-2.719,-2.719,-2.719,-2.719,-2.719,-2.719,-2.719,-2.719,-2.719,-2.719,-2.719,-2.719,-2.6787,-2.6528,-2.6528,-2.6113,-2.5684,-2.52,-2.5642,-2.5904,-2.5904,-2.5421,-2.5242,-2.539,-2.4274,-2.3833,-2.3943,-2.3347,-2.2843,-2.2413,-2.2413,-2.2255,-2.1919,-2.1998,-2.2098,-2.2163,-2.2064,-2.1909,-2.1671,-2.1215,-2.1014,-2.0879,-2.0683,-2.0605,-2.0605,-2.0605,-2.0605,-2.0605,-2.0605,-2.0605,-2.0605,-2.0605,-2.0605,-2.0605,-2.0605,-2.0605,-2.0605,-2.0605,-2.0605,-2.0605,-2.0605,-2.0605,-2.0605,-2.0605,-2.0605,-2.0605,-2.0605,-2.0527,-2.0459,-2.0459,-2.0333,-2.0255,-2.0255,-2.0303,-2.0381,-2.0566,-2.0489,-2.0372,-2.0255,-2.0216,-2.0216,-2.0216,-2.0216,-2.0216,-2.0216,-2.0216,-2.0294,-2.0459,-2.045,-2.0489,-2.0605,-2.0605,-2.0605,-2.0605,-2.0605,-2.0828,-2.1203,-2.0789,-2.128,-2.236,-2.1907,-2.2199,-2.2898,-2.2984,-2.2984,-2.2973,-2.2563,-2.2675,-2.301,-2.719,-2.719,-2.719,-2.719,-2.719,-2.719,-2.719,-2.719,-2.719,-2.719,-2.719,-2.719,-2.719,-2.719,-2.719,-2.719,-2.719,-2.719,-2.719,-2.6487,-2.6038,-2.6038,-2.5337,-2.4882,-2.4744,-2.4584,-2.4498,-2.4498,-2.4317,-2.4274,-2.4274,-2.4102,-2.3627,-2.2843,-2.2843,-2.2413,-2.1696,-2.1696,-2.1695,-2.1675,-2.1675,-2.1558,-2.1427,-2.1362,-2.1121,-2.084,-2.0763,-2.0632,-2.0489,-2.0489,-2.0489,-2.0489,-2.0489,-2.0489,-2.0489,-2.0489,-2.0489,-2.0489,-2.0489,-2.0489,-2.0489,-2.0489,-2.0489,-2.0489,-2.0489,-2.0527,-2.0605,-2.0605,-2.0566,-2.0566,-2.0566,-2.0527,-2.0489,-2.0489,-2.0372,-2.0264,-2.0225,-2.0069,-1.9981,-1.9981,-2.0186,-2.0381,-2.0489,-2.0489,-2.045,-2.0411,-2.0411,-2.0372,-2.0372,-2.0372,-2.0372,-2.0372,-2.0372,-2.0401,-2.0411,-2.0411,-2.045,-2.0566,-2.0566,-2.0566,-2.0605,-2.0605,-2.0683,-2.0828,-2.0828,-2.1652,-2.2995,-2.2846,-2.3169,-2.3635,-2.3021,-2.2397,-2.1728,-2.1203,-2.1346,-2.1918,-2.719,-2.719,-2.719,-2.719,-2.719,-2.719,-2.719,-2.719,-2.719,-2.719,-2.719,-2.719,-2.719,-2.719,-2.719,-2.719,-2.719,-2.719,-2.719,-2.7097,-2.7015,-2.7015,-2.6891,-2.6445,-2.5652,-2.4872,-2.4498,-2.4498,-2.3704,-2.327,-2.327,-2.2467,-2.1989,-2.1909,-2.1909,-2.182,-2.1696,-2.1696,-2.1618,-2.1547,-2.1547,-2.1423,-2.1188,-2.0828,-2.0671,-2.0609,-2.0199,-2.0028,-1.9981,-1.9981,-1.9981,-1.9981,-1.9981,-1.9981,-1.9981,-1.9981,-1.9981,-1.9981,-1.9981,-1.9981,-1.9981,-1.9981,-1.9981,-1.9981,-1.9981,-2.0294,-2.0605,-2.0605,-2.045,-2.0342,-2.0342,-2.0137,-1.9981,-1.9981,-2.0186,-2.0225,-1.999,-2.0108,-2.0264,-2.0264,-2.0411,-2.0411,-2.002,-1.9981,-1.9902,-1.9754,-1.9587,-1.946,-1.946,-1.946,-1.946,-1.946,-1.946,-1.9548,-1.9715,-1.9764,-1.9951,-2.0342,-2.0342,-2.0411,-2.0605,-2.0605,-2.0982,-2.1652,-2.1652,-2.2172,-2.2957,-2.2247,-2.2021,-2.2096,-2.1983,-2.1918,-2.1869,-2.2472,-2.2322,-2.1842,-2.719,-2.719,-2.719,-2.719,-2.719,-2.719,-2.719,-2.719,-2.719,-2.719,-2.719,-2.719,-2.719,-2.719,-2.719,-2.719,-2.719,-2.6974,-2.6445,-2.5977,-2.5474,-2.4946,-2.4392,-2.392,-2.3531,-2.3149,-2.295,-2.295,-2.2511,-2.2334,-2.229,-2.1909,-2.1696,-2.1696,-2.1696,-2.1559,-2.1339,-2.1339,-2.1197,-2.0948,-2.0948,-2.075,-2.0452,-2.0285,-2.0152,-2.0038,-1.9929,-1.9902,-1.9902,-1.9902,-1.9902,-1.9902,-1.9902,-1.9902,-1.9902,-1.9902,-1.9902,-1.9902,-1.9902,-1.9902,-1.9902,-1.9902,-1.9902,-1.9902,-1.9902,-2.0059,-2.0216,-2.0216,-2.0333,-2.0372,-2.0137,-2.0108,-2.0059,-1.9902,-1.9981,-2.002,-1.9902,-1.9912,-1.9912,-1.9912,-1.999,-1.9981,-1.9902,-1.9902,-1.9863,-1.9784,-1.9706,-1.9627,-1.9627,-1.9627,-1.9627,-1.9627,-1.9627,-1.9666,-1.9754,-1.9754,-1.9872,-2.0069,-2.0069,-2.0255,-2.0605,-2.0605,-2.0789,-2.1126,-2.1126,-2.1576,-2.2285,-2.1945,-2.2059,-2.2435,-2.1983,-2.1538,-2.1165,-2.1538,-2.1423,-2.1126]}]]